Wetterdaten: Samstag, 28.09.2019
Datum Zeit Temp. A. Pool Temp. Temp. 5cm Feuchte A. Luftdruck Regen Wind Richtung Richtung Sonnenschein ET UV Solar Taupunkt Windchill Windben Empfang
28.09.2019 00:01 15,6 C 13,9 C 14,4 C 90 % 1014,1 hPa 0,0 l/m 5,6 km/h (1 Bft) S-SW 210 0 min 0,000 mm 0,0 UV-I 0 W/m 14,0 C 15,6 C 8,0 km/h (2 Bft) 100,00 %
28.09.2019 00:02 15,6 C 13,9 C 14,4 C 90 % 1014,0 hPa 0,0 l/m 6,1 km/h (2 Bft) SW 223 0 min 0,000 mm 0,0 UV-I 0 W/m 14,0 C 15,6 C 9,7 km/h (2 Bft) 100,00 %
28.09.2019 00:04 15,5 C 13,9 C 14,4 C 90 % 1014,1 hPa 0,0 l/m 7,6 km/h (2 Bft) S-SW 194 0 min 0,000 mm 0,0 UV-I 0 W/m 13,9 C 14,8 C 9,7 km/h (2 Bft) 97,83 %
28.09.2019 00:06 15,5 C 13,9 C 14,4 C 90 % 1014,1 hPa 0,0 l/m 9,1 km/h (2 Bft) S-SW 212 0 min 0,000 mm 0,0 UV-I 0 W/m 13,9 C 14,1 C 16,1 km/h (3 Bft) 97,87 %
28.09.2019 00:08 15,5 C 13,9 C 15,0 C 90 % 1014,1 hPa 0,0 l/m 7,5 km/h (2 Bft) SW 223 0 min 0,000 mm 0,0 UV-I 0 W/m 13,9 C 14,9 C 11,3 km/h (2 Bft) 98,00 %
28.09.2019 00:10 15,6 C 13,9 C 15,0 C 90 % 1014,1 hPa 0,0 l/m 6,9 km/h (2 Bft) SW 229 0 min 0,000 mm 0,0 UV-I 0 W/m 14,0 C 15,3 C 12,9 km/h (3 Bft) 98,00 %
28.09.2019 00:12 15,6 C 13,9 C 15,0 C 90 % 1014,2 hPa 0,0 l/m 5,8 km/h (2 Bft) SW 223 0 min 0,000 mm 0,0 UV-I 0 W/m 14,0 C 15,6 C 8,0 km/h (2 Bft) 94,87 %
28.09.2019 00:14 15,5 C 13,9 C 15,0 C 90 % 1014,1 hPa 0,0 l/m 6,8 km/h (2 Bft) S-SW 209 0 min 0,000 mm 0,0 UV-I 0 W/m 13,9 C 15,3 C 11,3 km/h (2 Bft) 95,74 %
28.09.2019 00:16 15,5 C 13,9 C 14,4 C 90 % 1014,1 hPa 0,0 l/m 6,2 km/h (2 Bft) SW 228 0 min 0,000 mm 0,0 UV-I 0 W/m 13,9 C 15,5 C 9,7 km/h (2 Bft) 97,87 %
28.09.2019 00:18 15,4 C 13,9 C 14,4 C 90 % 1014,2 hPa 0,0 l/m 5,8 km/h (2 Bft) W-SW 237 0 min 0,000 mm 0,0 UV-I 0 W/m 13,8 C 15,4 C 8,0 km/h (2 Bft) 98,00 %
28.09.2019 00:20 15,4 C 13,9 C 14,4 C 90 % 1014,2 hPa 0,0 l/m 5,4 km/h (1 Bft) W-SW 244 0 min 0,000 mm 0,0 UV-I 0 W/m 13,8 C 15,4 C 8,0 km/h (2 Bft) 96,00 %
28.09.2019 00:22 15,4 C 13,9 C 15,0 C 90 % 1014,2 hPa 0,0 l/m 7,5 km/h (2 Bft) S-SW 213 0 min 0,000 mm 0,0 UV-I 0 W/m 13,8 C 14,8 C 9,7 km/h (2 Bft) 100,00 %
28.09.2019 00:24 15,4 C 13,9 C 14,4 C 90 % 1014,3 hPa 0,0 l/m 6,6 km/h (2 Bft) SW 219 0 min 0,000 mm 0,0 UV-I 0 W/m 13,8 C 15,3 C 9,7 km/h (2 Bft) 96,23 %
28.09.2019 00:26 15,4 C 13,9 C 14,4 C 90 % 1014,3 hPa 0,0 l/m 4,6 km/h (1 Bft) SW 217 0 min 0,000 mm 0,0 UV-I 0 W/m 13,8 C 15,4 C 8,0 km/h (2 Bft) 97,37 %
28.09.2019 00:28 15,3 C 13,9 C 14,4 C 91 % 1014,2 hPa 0,0 l/m 4,6 km/h (1 Bft) S-SW 213 0 min 0,000 mm 0,0 UV-I 0 W/m 13,8 C 15,3 C 8,0 km/h (2 Bft) 100,00 %
28.09.2019 00:30 15,3 C 13,9 C 14,4 C 91 % 1014,2 hPa 0,0 l/m 5,3 km/h (1 Bft) SW 227 0 min 0,000 mm 0,0 UV-I 0 W/m 13,8 C 15,3 C 11,3 km/h (2 Bft) 100,00 %
28.09.2019 00:32 15,3 C 13,9 C 14,4 C 91 % 1014,2 hPa 0,0 l/m 4,6 km/h (1 Bft) SW 230 0 min 0,000 mm 0,0 UV-I 0 W/m 13,8 C 15,3 C 8,0 km/h (2 Bft) 100,00 %
28.09.2019 00:34 15,3 C 13,9 C 14,4 C 91 % 1014,2 hPa 0,0 l/m 5,4 km/h (1 Bft) S-SW 212 0 min 0,000 mm 0,0 UV-I 0 W/m 13,8 C 15,3 C 9,7 km/h (2 Bft) 98,00 %
28.09.2019 00:36 15,3 C 13,9 C 14,4 C 91 % 1014,2 hPa 0,0 l/m 7,3 km/h (2 Bft) S-SW 207 0 min 0,000 mm 0,0 UV-I 0 W/m 13,8 C 14,8 C 12,9 km/h (3 Bft) 97,73 %
28.09.2019 00:38 15,3 C 13,9 C 14,4 C 91 % 1014,2 hPa 0,0 l/m 5,9 km/h (2 Bft) S-SW 213 0 min 0,000 mm 0,0 UV-I 0 W/m 13,8 C 15,3 C 11,3 km/h (2 Bft) 100,00 %
28.09.2019 00:40 15,3 C 13,9 C 14,4 C 91 % 1014,2 hPa 0,0 l/m 5,7 km/h (1 Bft) S 190 0 min 0,000 mm 0,0 UV-I 0 W/m 13,8 C 15,3 C 9,7 km/h (2 Bft) 100,00 %
28.09.2019 00:42 15,3 C 13,9 C 14,4 C 91 % 1014,2 hPa 0,0 l/m 6,6 km/h (2 Bft) SW 216 0 min 0,000 mm 0,0 UV-I 0 W/m 13,8 C 15,2 C 9,7 km/h (2 Bft) 100,00 %
28.09.2019 00:44 15,3 C 13,9 C 14,4 C 91 % 1014,2 hPa 0,0 l/m 5,0 km/h (1 Bft) S-SW 196 0 min 0,000 mm 0,0 UV-I 0 W/m 13,8 C 15,3 C 8,0 km/h (2 Bft) 97,87 %
28.09.2019 00:46 15,3 C 13,9 C 14,4 C 91 % 1014,2 hPa 0,0 l/m 6,6 km/h (2 Bft) W-SW 241 0 min 0,000 mm 0,0 UV-I 0 W/m 13,8 C 15,2 C 9,7 km/h (2 Bft) 97,44 %
28.09.2019 00:48 15,3 C 13,9 C 14,4 C 90 % 1014,2 hPa 0,0 l/m 4,9 km/h (1 Bft) SW 218 0 min 0,000 mm 0,0 UV-I 0 W/m 13,7 C 15,3 C 8,0 km/h (2 Bft) 98,11 %
28.09.2019 00:50 15,3 C 13,9 C 14,4 C 90 % 1014,2 hPa 0,0 l/m 7,6 km/h (2 Bft) SW 225 0 min 0,000 mm 0,0 UV-I 0 W/m 13,7 C 14,6 C 9,7 km/h (2 Bft) 97,56 %
28.09.2019 00:52 15,3 C 13,9 C 14,4 C 90 % 1014,2 hPa 0,0 l/m 9,9 km/h (2 Bft) SW 217 0 min 0,000 mm 0,0 UV-I 0 W/m 13,7 C 13,5 C 12,9 km/h (3 Bft) 98,11 %
28.09.2019 00:54 15,3 C 13,9 C 14,4 C 90 % 1014,2 hPa 0,0 l/m 7,3 km/h (2 Bft) SW 225 0 min 0,000 mm 0,0 UV-I 0 W/m 13,7 C 14,8 C 9,7 km/h (2 Bft) 96,00 %
28.09.2019 00:56 15,4 C 13,9 C 14,4 C 90 % 1014,2 hPa 0,0 l/m 9,7 km/h (2 Bft) W-SW 246 0 min 0,000 mm 0,0 UV-I 0 W/m 13,8 C 13,7 C 16,1 km/h (3 Bft) 97,87 %
28.09.2019 00:58 15,4 C 13,9 C 15,0 C 90 % 1014,2 hPa 0,0 l/m 10,0 km/h (2 Bft) SW 229 0 min 0,000 mm 0,0 UV-I 0 W/m 13,8 C 13,6 C 16,1 km/h (3 Bft) 97,37 %
28.09.2019 01:00 15,5 C 13,9 C 15,0 C 89 % 1014,2 hPa 0,0 l/m 8,1 km/h (2 Bft) SW 218 0 min 0,000 mm 0,0 UV-I 0 W/m 13,7 C 14,6 C 12,9 km/h (3 Bft) 96,00 %
28.09.2019 01:02 15,5 C 13,9 C 15,0 C 89 % 1014,2 hPa 0,0 l/m 8,0 km/h (2 Bft) SW 226 0 min 0,000 mm 0,0 UV-I 0 W/m 13,7 C 14,6 C 14,5 km/h (3 Bft) 97,37 %
28.09.2019 01:04 15,6 C 13,9 C 15,0 C 89 % 1014,2 hPa 0,0 l/m 7,0 km/h (2 Bft) SW 220 0 min 0,000 mm 0,0 UV-I 0 W/m 13,8 C 15,3 C 11,3 km/h (2 Bft) 94,34 %
28.09.2019 01:06 15,6 C 13,9 C 15,0 C 89 % 1014,2 hPa 0,0 l/m 6,5 km/h (2 Bft) S-SW 213 0 min 0,000 mm 0,0 UV-I 0 W/m 13,8 C 15,6 C 8,0 km/h (2 Bft) 96,23 %
28.09.2019 01:08 15,6 C 13,9 C 15,0 C 88 % 1014,2 hPa 0,0 l/m 6,8 km/h (2 Bft) SW 219 0 min 0,000 mm 0,0 UV-I 0 W/m 13,6 C 15,4 C 9,7 km/h (2 Bft) 98,00 %
28.09.2019 01:10 15,6 C 13,9 C 15,0 C 88 % 1014,2 hPa 0,0 l/m 8,0 km/h (2 Bft) SW 233 0 min 0,000 mm 0,0 UV-I 0 W/m 13,6 C 14,7 C 12,9 km/h (3 Bft) 97,37 %
28.09.2019 01:12 15,6 C 13,9 C 15,0 C 88 % 1014,3 hPa 0,0 l/m 6,5 km/h (2 Bft) W-SW 240 0 min 0,000 mm 0,0 UV-I 0 W/m 13,6 C 15,6 C 9,7 km/h (2 Bft) 98,00 %
28.09.2019 01:14 15,6 C 13,9 C 15,0 C 88 % 1014,3 hPa 0,0 l/m 6,6 km/h (2 Bft) W-SW 238 0 min 0,000 mm 0,0 UV-I 0 W/m 13,6 C 15,5 C 9,7 km/h (2 Bft) 95,74 %
28.09.2019 01:16 15,5 C 13,9 C 15,0 C 88 % 1014,4 hPa 0,0 l/m 7,2 km/h (2 Bft) W-SW 242 0 min 0,000 mm 0,0 UV-I 0 W/m 13,5 C 15,1 C 11,3 km/h (2 Bft) 95,45 %
28.09.2019 01:18 15,5 C 13,9 C 15,0 C 89 % 1014,4 hPa 0,0 l/m 8,4 km/h (2 Bft) SW 232 0 min 0,000 mm 0,0 UV-I 0 W/m 13,7 C 14,4 C 12,9 km/h (3 Bft) 98,11 %
28.09.2019 01:20 15,4 C 13,9 C 15,0 C 89 % 1014,4 hPa 0,0 l/m 8,0 km/h (2 Bft) SW 236 0 min 0,000 mm 0,0 UV-I 0 W/m 13,6 C 14,5 C 11,3 km/h (2 Bft) 97,73 %
28.09.2019 01:22 15,4 C 13,9 C 15,0 C 89 % 1014,5 hPa 0,0 l/m 7,6 km/h (2 Bft) W 279 0 min 0,000 mm 0,0 UV-I 0 W/m 13,6 C 14,7 C 12,9 km/h (3 Bft) 100,00 %
28.09.2019 01:24 15,4 C 13,9 C 15,0 C 89 % 1014,6 hPa 0,0 l/m 5,3 km/h (1 Bft) W 260 0 min 0,000 mm 0,0 UV-I 0 W/m 13,6 C 15,4 C 9,7 km/h (2 Bft) 100,00 %
28.09.2019 01:26 15,4 C 13,9 C 15,0 C 89 % 1014,6 hPa 0,0 l/m 7,1 km/h (2 Bft) W-NW 285 0 min 0,000 mm 0,0 UV-I 0 W/m 13,6 C 15,0 C 11,3 km/h (2 Bft) 98,00 %
28.09.2019 01:28 15,4 C 13,9 C 15,6 C 89 % 1014,7 hPa 0,0 l/m 9,1 km/h (2 Bft) W-SW 257 0 min 0,000 mm 0,0 UV-I 0 W/m 13,6 C 14,0 C 12,9 km/h (3 Bft) 98,00 %
28.09.2019 01:30 15,5 C 13,9 C 15,6 C 89 % 1014,8 hPa 0,0 l/m 10,1 km/h (2 Bft) W 260 0 min 0,000 mm 0,0 UV-I 0 W/m 13,7 C 13,6 C 14,5 km/h (3 Bft) 94,74 %
28.09.2019 01:32 15,6 C 13,9 C 15,6 C 89 % 1014,9 hPa 0,0 l/m 6,4 km/h (2 Bft) W 261 0 min 0,000 mm 0,0 UV-I 0 W/m 13,8 C 15,6 C 11,3 km/h (2 Bft) 96,23 %
28.09.2019 01:34 15,6 C 13,9 C 15,6 C 89 % 1014,9 hPa 0,0 l/m 8,1 km/h (2 Bft) W 271 0 min 0,000 mm 0,0 UV-I 0 W/m 13,8 C 14,7 C 12,9 km/h (3 Bft) 94,34 %
28.09.2019 01:36 15,6 C 13,9 C 15,6 C 89 % 1014,9 hPa 0,0 l/m 6,9 km/h (2 Bft) W 265 0 min 0,000 mm 0,0 UV-I 0 W/m 13,8 C 15,3 C 9,7 km/h (2 Bft) 94,74 %
28.09.2019 01:38 15,7 C 13,9 C 15,6 C 89 % 1014,9 hPa 0,0 l/m 7,0 km/h (2 Bft) W 262 0 min 0,000 mm 0,0 UV-I 0 W/m 13,9 C 15,4 C 11,3 km/h (2 Bft) 94,34 %
28.09.2019 01:40 15,6 C 13,9 C 15,6 C 89 % 1014,9 hPa 0,0 l/m 6,9 km/h (2 Bft) W-SW 249 0 min 0,000 mm 0,0 UV-I 0 W/m 13,8 C 15,3 C 11,3 km/h (2 Bft) 92,11 %
28.09.2019 01:42 15,6 C 13,9 C 15,6 C 89 % 1015,0 hPa 0,0 l/m 8,0 km/h (2 Bft) W 263 0 min 0,000 mm 0,0 UV-I 0 W/m 13,8 C 14,7 C 11,3 km/h (2 Bft) 96,23 %
28.09.2019 01:44 15,6 C 13,9 C 15,6 C 89 % 1015,0 hPa 0,0 l/m 6,5 km/h (2 Bft) W-SW 244 0 min 0,000 mm 0,0 UV-I 0 W/m 13,8 C 15,6 C 11,3 km/h (2 Bft) 97,87 %
28.09.2019 01:46 15,6 C 13,9 C 15,6 C 89 % 1015,0 hPa 0,0 l/m 6,1 km/h (2 Bft) W-SW 258 0 min 0,000 mm 0,0 UV-I 0 W/m 13,8 C 15,6 C 9,7 km/h (2 Bft) 92,68 %
28.09.2019 01:48 15,6 C 13,9 C 15,6 C 89 % 1015,1 hPa 0,0 l/m 9,5 km/h (2 Bft) W 259 0 min 0,000 mm 0,0 UV-I 0 W/m 13,8 C 14,0 C 14,5 km/h (3 Bft) 92,00 %
28.09.2019 01:50 15,6 C 13,9 C 15,6 C 89 % 1015,1 hPa 0,0 l/m 7,0 km/h (2 Bft) W 267 0 min 0,000 mm 0,0 UV-I 0 W/m 13,8 C 15,3 C 11,3 km/h (2 Bft) 94,34 %
28.09.2019 01:52 15,6 C 13,9 C 15,6 C 89 % 1015,1 hPa 0,0 l/m 6,5 km/h (2 Bft) W 269 0 min 0,000 mm 0,0 UV-I 0 W/m 13,8 C 15,6 C 11,3 km/h (2 Bft) 93,62 %
28.09.2019 01:54 15,5 C 13,9 C 15,6 C 89 % 1015,1 hPa 0,0 l/m 5,5 km/h (1 Bft) W 267 0 min 0,000 mm 0,0 UV-I 0 W/m 13,7 C 15,5 C 9,7 km/h (2 Bft) 95,83 %
28.09.2019 01:56 15,5 C 13,9 C 15,6 C 89 % 1015,1 hPa 0,0 l/m 6,7 km/h (2 Bft) W 270 0 min 0,000 mm 0,0 UV-I 0 W/m 13,7 C 15,3 C 11,3 km/h (2 Bft) 98,44 %
28.09.2019 01:58 15,5 C 13,9 C 15,6 C 89 % 1015,1 hPa 0,0 l/m 5,2 km/h (1 Bft) W 261 0 min 0,000 mm 0,0 UV-I 0 W/m 13,7 C 15,5 C 9,7 km/h (2 Bft) 94,00 %
28.09.2019 02:00 15,4 C 13,9 C 15,6 C 89 % 1015,0 hPa 0,0 l/m 5,1 km/h (1 Bft) W-SW 253 0 min 0,025 mm 0,0 UV-I 0 W/m 13,6 C 15,4 C 9,7 km/h (2 Bft) 97,44 %
28.09.2019 02:02 15,4 C 13,9 C 15,6 C 89 % 1015,0 hPa 0,0 l/m 3,8 km/h (1 Bft) W-SW 258 0 min 0,000 mm 0,0 UV-I 0 W/m 13,6 C 15,4 C 6,4 km/h (2 Bft) 98,08 %
28.09.2019 02:04 15,4 C 13,9 C 15,6 C 89 % 1015,0 hPa 0,0 l/m 4,1 km/h (1 Bft) W-SW 257 0 min 0,000 mm 0,0 UV-I 0 W/m 13,6 C 15,4 C 6,4 km/h (2 Bft) 97,44 %
28.09.2019 02:06 15,4 C 13,9 C 15,6 C 89 % 1015,0 hPa 0,0 l/m 4,2 km/h (1 Bft) SW 236 0 min 0,000 mm 0,0 UV-I 0 W/m 13,6 C 15,4 C 6,4 km/h (2 Bft) 98,00 %
28.09.2019 02:08 15,4 C 13,9 C 15,6 C 89 % 1015,0 hPa 0,0 l/m 4,0 km/h (1 Bft) W-SW 237 0 min 0,000 mm 0,0 UV-I 0 W/m 13,6 C 15,4 C 4,8 km/h (1 Bft) 97,87 %
28.09.2019 02:10 15,4 C 13,9 C 15,6 C 89 % 1015,0 hPa 0,0 l/m 3,7 km/h (1 Bft) W-SW 239 0 min 0,000 mm 0,0 UV-I 0 W/m 13,6 C 15,4 C 4,8 km/h (1 Bft) 97,87 %
28.09.2019 02:12 15,4 C 13,9 C 15,6 C 89 % 1014,9 hPa 0,0 l/m 3,7 km/h (1 Bft) W-SW 239 0 min 0,000 mm 0,0 UV-I 0 W/m 13,6 C 15,4 C 4,8 km/h (1 Bft) 98,00 %
28.09.2019 02:14 15,4 C 13,9 C 15,6 C 90 % 1014,9 hPa 0,0 l/m 3,5 km/h (1 Bft) W-SW 240 0 min 0,000 mm 0,0 UV-I 0 W/m 13,8 C 15,4 C 4,8 km/h (1 Bft) 97,87 %
28.09.2019 02:16 15,4 C 13,9 C 15,6 C 90 % 1014,9 hPa 0,0 l/m 2,0 km/h (1 Bft) W-SW 240 0 min 0,000 mm 0,0 UV-I 0 W/m 13,8 C 15,4 C 3,2 km/h (1 Bft) 97,87 %
28.09.2019 02:18 15,4 C 13,9 C 15,6 C 90 % 1014,9 hPa 0,0 l/m 1,7 km/h (1 Bft) W-SW 240 0 min 0,000 mm 0,0 UV-I 0 W/m 13,8 C 15,4 C 3,2 km/h (1 Bft) 97,87 %
28.09.2019 02:20 15,4 C 13,9 C 15,6 C 90 % 1015,0 hPa 0,0 l/m 1,7 km/h (1 Bft) W-SW 240 0 min 0,000 mm 0,0 UV-I 0 W/m 13,8 C 15,4 C 3,2 km/h (1 Bft) 94,34 %
28.09.2019 02:22 15,3 C 13,9 C 15,6 C 90 % 1014,9 hPa 0,0 l/m 1,8 km/h (1 Bft) W-SW 240 0 min 0,000 mm 0,0 UV-I 0 W/m 13,7 C 15,3 C 3,2 km/h (1 Bft) 97,14 %
28.09.2019 02:24 15,3 C 13,9 C 15,0 C 90 % 1014,9 hPa 0,0 l/m 1,5 km/h (1 Bft) W-SW 240 0 min 0,000 mm 0,0 UV-I 0 W/m 13,7 C 15,3 C 3,2 km/h (1 Bft) 98,11 %
28.09.2019 02:26 15,3 C 13,9 C 15,0 C 90 % 1014,8 hPa 0,0 l/m 1,8 km/h (1 Bft) W-SW 240 0 min 0,000 mm 0,0 UV-I 0 W/m 13,7 C 15,3 C 3,2 km/h (1 Bft) 98,00 %
28.09.2019 02:28 15,3 C 13,9 C 15,0 C 90 % 1014,8 hPa 0,0 l/m 2,0 km/h (1 Bft) W-SW 240 0 min 0,000 mm 0,0 UV-I 0 W/m 13,7 C 15,3 C 3,2 km/h (1 Bft) 97,87 %
28.09.2019 02:30 15,3 C 13,9 C 15,0 C 90 % 1014,8 hPa 0,0 l/m 3,0 km/h (1 Bft) W-SW 240 0 min 0,000 mm 0,0 UV-I 0 W/m 13,7 C 15,3 C 4,8 km/h (1 Bft) 97,87 %
28.09.2019 02:32 15,3 C 13,9 C 15,0 C 90 % 1014,7 hPa 0,0 l/m 3,4 km/h (1 Bft) W-SW 240 0 min 0,000 mm 0,0 UV-I 0 W/m 13,7 C 15,3 C 4,8 km/h (1 Bft) 97,37 %
28.09.2019 02:34 15,2 C 13,9 C 15,0 C 91 % 1014,7 hPa 0,0 l/m 3,6 km/h (1 Bft) W-SW 240 0 min 0,000 mm 0,0 UV-I 0 W/m 13,7 C 15,2 C 4,8 km/h (1 Bft) 100,00 %
28.09.2019 02:36 15,2 C 13,9 C 15,0 C 91 % 1014,7 hPa 0,0 l/m 3,8 km/h (1 Bft) W-SW 239 0 min 0,000 mm 0,0 UV-I 0 W/m 13,7 C 15,2 C 4,8 km/h (1 Bft) 100,00 %
28.09.2019 02:38 15,2 C 13,9 C 15,0 C 91 % 1014,6 hPa 0,0 l/m 2,8 km/h (1 Bft) W-SW 239 0 min 0,000 mm 0,0 UV-I 0 W/m 13,7 C 15,2 C 4,8 km/h (1 Bft) 95,74 %
28.09.2019 02:40 15,2 C 13,9 C 15,0 C 91 % 1014,6 hPa 0,0 l/m 3,0 km/h (1 Bft) W-SW 239 0 min 0,000 mm 0,0 UV-I 0 W/m 13,7 C 15,2 C 4,8 km/h (1 Bft) 95,24 %
28.09.2019 02:42 15,1 C 13,9 C 15,0 C 91 % 1014,5 hPa 0,0 l/m 3,4 km/h (1 Bft) W-SW 239 0 min 0,000 mm 0,0 UV-I 0 W/m 13,6 C 15,1 C 4,8 km/h (1 Bft) 100,00 %
28.09.2019 02:44 15,1 C 13,9 C 15,0 C 92 % 1014,6 hPa 0,0 l/m 3,3 km/h (1 Bft) W-SW 238 0 min 0,000 mm 0,0 UV-I 0 W/m 13,8 C 15,1 C 6,4 km/h (2 Bft) 97,92 %
28.09.2019 02:46 15,1 C 13,9 C 15,0 C 92 % 1014,5 hPa 0,0 l/m 3,6 km/h (1 Bft) W-SW 238 0 min 0,000 mm 0,0 UV-I 0 W/m 13,8 C 15,1 C 4,8 km/h (1 Bft) 100,00 %
28.09.2019 02:48 15,1 C 13,9 C 15,0 C 92 % 1014,5 hPa 0,0 l/m 3,3 km/h (1 Bft) W-SW 237 0 min 0,000 mm 0,0 UV-I 0 W/m 13,8 C 15,1 C 4,8 km/h (1 Bft) 98,11 %
28.09.2019 02:50 15,1 C 13,9 C 15,0 C 92 % 1014,4 hPa 0,0 l/m 4,6 km/h (1 Bft) SW 232 0 min 0,000 mm 0,0 UV-I 0 W/m 13,8 C 15,1 C 6,4 km/h (2 Bft) 95,74 %
28.09.2019 02:52 15,1 C 13,9 C 15,0 C 92 % 1014,4 hPa 0,0 l/m 4,6 km/h (1 Bft) S-SW 205 0 min 0,000 mm 0,0 UV-I 0 W/m 13,8 C 15,1 C 6,4 km/h (2 Bft) 95,74 %
28.09.2019 02:54 15,1 C 13,9 C 15,0 C 92 % 1014,3 hPa 0,0 l/m 4,5 km/h (1 Bft) S-SW 196 0 min 0,000 mm 0,0 UV-I 0 W/m 13,8 C 15,1 C 6,4 km/h (2 Bft) 92,68 %
28.09.2019 02:56 15,1 C 13,9 C 15,0 C 92 % 1014,3 hPa 0,0 l/m 3,7 km/h (1 Bft) S-SW 196 0 min 0,000 mm 0,0 UV-I 0 W/m 13,8 C 15,1 C 4,8 km/h (1 Bft) 94,34 %
28.09.2019 02:58 15,0 C 13,9 C 15,0 C 92 % 1014,3 hPa 0,0 l/m 3,4 km/h (1 Bft) S-SW 198 0 min 0,000 mm 0,0 UV-I 0 W/m 13,7 C 15,0 C 4,8 km/h (1 Bft) 95,12 %
28.09.2019 03:00 14,9 C 13,9 C 14,4 C 92 % 1014,4 hPa 0,0 l/m 3,5 km/h (1 Bft) S-SW 202 0 min 0,000 mm 0,0 UV-I 0 W/m 13,6 C 14,9 C 4,8 km/h (1 Bft) 95,12 %
28.09.2019 03:02 14,9 C 13,9 C 14,4 C 92 % 1014,4 hPa 0,0 l/m 3,4 km/h (1 Bft) S-SW 205 0 min 0,000 mm 0,0 UV-I 0 W/m 13,6 C 14,9 C 4,8 km/h (1 Bft) 94,00 %
28.09.2019 03:04 14,9 C 13,9 C 14,4 C 92 % 1014,4 hPa 0,0 l/m 2,9 km/h (1 Bft) S-SW 205 0 min 0,000 mm 0,0 UV-I 0 W/m 13,6 C 14,9 C 4,8 km/h (1 Bft) 95,74 %
28.09.2019 03:06 14,9 C 13,9 C 14,4 C 92 % 1014,4 hPa 0,0 l/m 2,0 km/h (1 Bft) S-SW 205 0 min 0,000 mm 0,0 UV-I 0 W/m 13,6 C 14,9 C 3,2 km/h (1 Bft) 92,68 %
28.09.2019 03:08 14,9 C 13,9 C 14,4 C 92 % 1014,4 hPa 0,0 l/m 2,4 km/h (1 Bft) S-SW 205 0 min 0,000 mm 0,0 UV-I 0 W/m 13,6 C 14,9 C 3,2 km/h (1 Bft) 96,23 %
28.09.2019 03:10 14,8 C 13,9 C 14,4 C 92 % 1014,3 hPa 0,0 l/m 1,6 km/h (1 Bft) S-SW 205 0 min 0,000 mm 0,0 UV-I 0 W/m 13,5 C 14,8 C 3,2 km/h (1 Bft) 94,34 %
28.09.2019 03:12 14,8 C 13,9 C 14,4 C 92 % 1014,4 hPa 0,0 l/m 2,5 km/h (1 Bft) S-SW 205 0 min 0,000 mm 0,0 UV-I 0 W/m 13,5 C 14,8 C 4,8 km/h (1 Bft) 95,74 %
28.09.2019 03:14 14,8 C 13,9 C 13,9 C 93 % 1014,3 hPa 0,0 l/m 2,3 km/h (1 Bft) S-SW 205 0 min 0,000 mm 0,0 UV-I 0 W/m 13,7 C 14,8 C 4,8 km/h (1 Bft) 94,44 %
28.09.2019 03:16 14,7 C 13,9 C 13,9 C 93 % 1014,2 hPa 0,0 l/m 1,8 km/h (1 Bft) S-SW 205 0 min 0,000 mm 0,0 UV-I 0 W/m 13,6 C 14,7 C 3,2 km/h (1 Bft) 94,23 %
28.09.2019 03:18 14,6 C 13,9 C 13,9 C 93 % 1014,2 hPa 0,0 l/m 1,7 km/h (1 Bft) S-SW 205 0 min 0,000 mm 0,0 UV-I 0 W/m 13,5 C 14,6 C 3,2 km/h (1 Bft) 94,87 %
28.09.2019 03:20 14,5 C 13,9 C 13,9 C 93 % 1014,3 hPa 0,0 l/m 3,5 km/h (1 Bft) S-SW 205 0 min 0,000 mm 0,0 UV-I 0 W/m 13,4 C 14,5 C 4,8 km/h (1 Bft) 96,23 %
28.09.2019 03:22 14,5 C 13,9 C 13,9 C 93 % 1014,3 hPa 0,0 l/m 3,6 km/h (1 Bft) S-SW 205 0 min 0,000 mm 0,0 UV-I 0 W/m 13,4 C 14,5 C 4,8 km/h (1 Bft) 96,00 %
28.09.2019 03:24 14,4 C 13,9 C 13,9 C 93 % 1014,2 hPa 0,0 l/m 2,7 km/h (1 Bft) S-SW 205 0 min 0,000 mm 0,0 UV-I 0 W/m 13,3 C 14,4 C 4,8 km/h (1 Bft) 98,00 %
28.09.2019 03:26 14,3 C 13,9 C 13,9 C 93 % 1014,2 hPa 0,0 l/m 2,1 km/h (1 Bft) S-SW 205 0 min 0,000 mm 0,0 UV-I 0 W/m 13,2 C 14,3 C 3,2 km/h (1 Bft) 94,74 %
28.09.2019 03:28 14,3 C 13,9 C 13,9 C 93 % 1014,2 hPa 0,0 l/m 1,2 km/h (1 Bft) S-SW 205 0 min 0,000 mm 0,0 UV-I 0 W/m 13,2 C 14,3 C 1,6 km/h (1 Bft) 100,00 %
28.09.2019 03:30 14,3 C 13,9 C 13,9 C 94 % 1014,2 hPa 0,0 l/m 0,0 km/h (0 Bft) S-SW 205 0 min 0,000 mm 0,0 UV-I 0 W/m 13,3 C 14,3 C 0,0 km/h (0 Bft) 100,00 %
28.09.2019 03:32 14,3 C 13,9 C 13,9 C 94 % 1014,2 hPa 0,0 l/m 0,0 km/h (0 Bft) S-SW 205 0 min 0,000 mm 0,0 UV-I 0 W/m 13,3 C 14,3 C 0,0 km/h (0 Bft) 100,00 %
28.09.2019 03:34 14,3 C 13,9 C 13,9 C 94 % 1014,2 hPa 0,0 l/m 0,0 km/h (0 Bft) S-SW 205 0 min 0,000 mm 0,0 UV-I 0 W/m 13,3 C 14,3 C 0,0 km/h (0 Bft) 100,00 %
28.09.2019 03:36 14,3 C 13,9 C 13,9 C 94 % 1014,2 hPa 0,0 l/m 0,5 km/h (0 Bft) S-SW 205 0 min 0,000 mm 0,0 UV-I 0 W/m 13,3 C 14,3 C 1,6 km/h (1 Bft) 100,00 %
28.09.2019 03:38 14,3 C 13,9 C 13,9 C 94 % 1014,1 hPa 0,0 l/m 0,9 km/h (0 Bft) S-SW 205 0 min 0,000 mm 0,0 UV-I 0 W/m 13,3 C 14,3 C 1,6 km/h (1 Bft) 100,00 %
28.09.2019 03:40 14,3 C 13,9 C 13,9 C 94 % 1014,1 hPa 0,0 l/m 0,3 km/h (0 Bft) S-SW 205 0 min 0,000 mm 0,0 UV-I 0 W/m 13,3 C 14,3 C 1,6 km/h (1 Bft) 98,00 %
28.09.2019 03:42 14,3 C 13,9 C 13,9 C 94 % 1014,1 hPa 0,0 l/m 0,0 km/h (0 Bft) S-SW 205 0 min 0,000 mm 0,0 UV-I 0 W/m 13,3 C 14,3 C 0,0 km/h (0 Bft) 100,00 %
28.09.2019 03:44 14,2 C 13,9 C 13,9 C 94 % 1014,1 hPa 0,0 l/m 1,2 km/h (1 Bft) S-SW 205 0 min 0,000 mm 0,0 UV-I 0 W/m 13,2 C 14,2 C 3,2 km/h (1 Bft) 98,00 %
28.09.2019 03:46 14,2 C 13,9 C 13,9 C 94 % 1014,0 hPa 0,0 l/m 2,3 km/h (1 Bft) S-SW 205 0 min 0,000 mm 0,0 UV-I 0 W/m 13,2 C 14,2 C 3,2 km/h (1 Bft) 100,00 %
28.09.2019 03:48 14,2 C 13,9 C 13,9 C 94 % 1014,1 hPa 0,0 l/m 1,6 km/h (1 Bft) S-SW 205 0 min 0,000 mm 0,0 UV-I 0 W/m 13,2 C 14,2 C 3,2 km/h (1 Bft) 97,87 %
28.09.2019 03:50 14,2 C 13,9 C 13,9 C 94 % 1014,2 hPa 0,0 l/m 2,3 km/h (1 Bft) S-SW 205 0 min 0,000 mm 0,0 UV-I 0 W/m 13,2 C 14,2 C 4,8 km/h (1 Bft) 100,00 %
28.09.2019 03:52 14,1 C 13,9 C 13,9 C 94 % 1014,2 hPa 0,0 l/m 2,2 km/h (1 Bft) S-SW 207 0 min 0,000 mm 0,0 UV-I 0 W/m 13,1 C 14,1 C 4,8 km/h (1 Bft) 100,00 %
28.09.2019 03:54 14,1 C 13,9 C 13,9 C 94 % 1014,2 hPa 0,0 l/m 0,6 km/h (0 Bft) S-SW 207 0 min 0,000 mm 0,0 UV-I 0 W/m 13,1 C 14,1 C 1,6 km/h (1 Bft) 100,00 %
28.09.2019 03:56 14,2 C 13,9 C 13,3 C 94 % 1014,2 hPa 0,0 l/m 0,5 km/h (0 Bft) S-SW 207 0 min 0,000 mm 0,0 UV-I 0 W/m 13,2 C 14,2 C 1,6 km/h (1 Bft) 100,00 %
28.09.2019 03:58 14,2 C 13,9 C 13,3 C 94 % 1014,2 hPa 0,0 l/m 0,5 km/h (0 Bft) S-SW 207 0 min 0,000 mm 0,0 UV-I 0 W/m 13,2 C 14,2 C 1,6 km/h (1 Bft) 94,23 %
28.09.2019 04:00 14,2 C 13,9 C 13,3 C 94 % 1014,2 hPa 0,0 l/m 0,9 km/h (0 Bft) S-SW 207 0 min 0,000 mm 0,0 UV-I 0 W/m 13,2 C 14,2 C 1,6 km/h (1 Bft) 100,00 %
28.09.2019 04:02 14,2 C 13,9 C 13,3 C 93 % 1014,2 hPa 0,0 l/m 1,5 km/h (1 Bft) S-SW 207 0 min 0,000 mm 0,0 UV-I 0 W/m 13,1 C 14,2 C 1,6 km/h (1 Bft) 100,00 %
28.09.2019 04:04 14,1 C 13,9 C 13,3 C 93 % 1014,2 hPa 0,0 l/m 1,7 km/h (1 Bft) S-SW 207 0 min 0,000 mm 0,0 UV-I 0 W/m 13,0 C 14,1 C 3,2 km/h (1 Bft) 100,00 %
28.09.2019 04:06 14,0 C 13,9 C 13,3 C 93 % 1014,2 hPa 0,0 l/m 1,6 km/h (1 Bft) S-SW 207 0 min 0,000 mm 0,0 UV-I 0 W/m 12,9 C 14,0 C 3,2 km/h (1 Bft) 100,00 %
28.09.2019 04:08 13,9 C 13,9 C 13,3 C 93 % 1014,2 hPa 0,0 l/m 1,0 km/h (0 Bft) S-SW 207 0 min 0,000 mm 0,0 UV-I 0 W/m 12,8 C 13,9 C 1,6 km/h (1 Bft) 100,00 %
28.09.2019 04:10 13,8 C 13,9 C 13,3 C 93 % 1014,2 hPa 0,0 l/m 0,6 km/h (0 Bft) S-SW 207 0 min 0,000 mm 0,0 UV-I 0 W/m 12,7 C 13,8 C 1,6 km/h (1 Bft) 100,00 %
28.09.2019 04:12 13,8 C 13,9 C 13,3 C 93 % 1014,3 hPa 0,0 l/m 0,3 km/h (0 Bft) S-SW 207 0 min 0,000 mm 0,0 UV-I 0 W/m 12,7 C 13,8 C 1,6 km/h (1 Bft) 100,00 %
28.09.2019 04:14 13,8 C 13,9 C 13,3 C 93 % 1014,3 hPa 0,0 l/m 0,0 km/h (0 Bft) S-SW 207 0 min 0,000 mm 0,0 UV-I 0 W/m 12,7 C 13,8 C 0,0 km/h (0 Bft) 100,00 %
28.09.2019 04:16 13,9 C 13,9 C 12,8 C 93 % 1014,4 hPa 0,0 l/m 0,5 km/h (0 Bft) S-SW 207 0 min 0,000 mm 0,0 UV-I 0 W/m 12,8 C 13,9 C 1,6 km/h (1 Bft) 100,00 %
28.09.2019 04:18 13,9 C 13,9 C 13,3 C 93 % 1014,4 hPa 0,0 l/m 1,2 km/h (1 Bft) S-SW 207 0 min 0,000 mm 0,0 UV-I 0 W/m 12,8 C 13,9 C 3,2 km/h (1 Bft) 100,00 %
28.09.2019 04:20 13,9 C 13,9 C 13,3 C 93 % 1014,4 hPa 0,0 l/m 1,0 km/h (0 Bft) S-SW 207 0 min 0,000 mm 0,0 UV-I 0 W/m 12,8 C 13,9 C 1,6 km/h (1 Bft) 97,87 %
28.09.2019 04:22 13,9 C 13,9 C 13,3 C 93 % 1014,4 hPa 0,0 l/m 0,7 km/h (0 Bft) S-SW 207 0 min 0,000 mm 0,0 UV-I 0 W/m 12,8 C 13,9 C 1,6 km/h (1 Bft) 97,56 %
28.09.2019 04:24 13,8 C 13,9 C 13,3 C 93 % 1014,4 hPa 0,0 l/m 0,1 km/h (0 Bft) S-SW 207 0 min 0,000 mm 0,0 UV-I 0 W/m 12,7 C 13,8 C 1,6 km/h (1 Bft) 97,87 %
28.09.2019 04:26 13,8 C 13,9 C 13,3 C 93 % 1014,4 hPa 0,0 l/m 0,1 km/h (0 Bft) S-SW 207 0 min 0,000 mm 0,0 UV-I 0 W/m 12,7 C 13,8 C 1,6 km/h (1 Bft) 98,00 %
28.09.2019 04:28 13,8 C 13,9 C 13,3 C 93 % 1014,4 hPa 0,0 l/m 0,5 km/h (0 Bft) S-SW 207 0 min 0,000 mm 0,0 UV-I 0 W/m 12,7 C 13,8 C 1,6 km/h (1 Bft) 95,74 %
28.09.2019 04:30 13,8 C 13,9 C 13,3 C 93 % 1014,4 hPa 0,0 l/m 1,1 km/h (1 Bft) W-NW 299 0 min 0,000 mm 0,0 UV-I 0 W/m 12,7 C 13,8 C 3,2 km/h (1 Bft) 100,00 %
28.09.2019 04:32 13,9 C 13,9 C 13,3 C 93 % 1014,4 hPa 0,0 l/m 0,8 km/h (0 Bft) W-NW 299 0 min 0,000 mm 0,0 UV-I 0 W/m 12,8 C 13,9 C 3,2 km/h (1 Bft) 96,15 %
28.09.2019 04:34 13,9 C 13,9 C 13,3 C 93 % 1014,4 hPa 0,0 l/m 1,6 km/h (1 Bft) W-NW 299 0 min 0,000 mm 0,0 UV-I 0 W/m 12,8 C 13,9 C 3,2 km/h (1 Bft) 98,00 %
28.09.2019 04:36 13,9 C 13,9 C 13,3 C 93 % 1014,5 hPa 0,0 l/m 1,5 km/h (1 Bft) W-NW 299 0 min 0,000 mm 0,0 UV-I 0 W/m 12,8 C 13,9 C 3,2 km/h (1 Bft) 97,44 %
28.09.2019 04:38 14,0 C 13,9 C 13,9 C 93 % 1014,5 hPa 0,0 l/m 2,1 km/h (1 Bft) W-NW 298 0 min 0,000 mm 0,0 UV-I 0 W/m 12,9 C 14,0 C 3,2 km/h (1 Bft) 98,00 %
28.09.2019 04:40 13,9 C 13,9 C 13,9 C 93 % 1014,5 hPa 0,0 l/m 0,3 km/h (0 Bft) W-NW 298 0 min 0,000 mm 0,0 UV-I 0 W/m 12,8 C 13,9 C 1,6 km/h (1 Bft) 98,00 %
28.09.2019 04:42 13,9 C 13,9 C 13,9 C 93 % 1014,5 hPa 0,0 l/m 0,0 km/h (0 Bft) W-NW 298 0 min 0,000 mm 0,0 UV-I 0 W/m 12,8 C 13,9 C 0,0 km/h (0 Bft) 98,00 %
28.09.2019 04:44 13,8 C 13,9 C 13,3 C 93 % 1014,5 hPa 0,0 l/m 0,0 km/h (0 Bft) W-NW 298 0 min 0,000 mm 0,0 UV-I 0 W/m 12,7 C 13,8 C 0,0 km/h (0 Bft) 94,74 %
28.09.2019 04:46 13,8 C 13,9 C 13,3 C 93 % 1014,5 hPa 0,0 l/m 0,0 km/h (0 Bft) W-NW 298 0 min 0,000 mm 0,0 UV-I 0 W/m 12,7 C 13,8 C 0,0 km/h (0 Bft) 100,00 %
28.09.2019 04:48 13,8 C 13,9 C 13,3 C 93 % 1014,5 hPa 0,0 l/m 0,1 km/h (0 Bft) W-NW 298 0 min 0,000 mm 0,0 UV-I 0 W/m 12,7 C 13,8 C 1,6 km/h (1 Bft) 97,87 %
28.09.2019 04:50 13,7 C 13,9 C 13,3 C 93 % 1014,5 hPa 0,0 l/m 0,0 km/h (0 Bft) W-NW 298 0 min 0,000 mm 0,0 UV-I 0 W/m 12,6 C 13,7 C 0,0 km/h (0 Bft) 98,00 %
28.09.2019 04:52 13,7 C 13,9 C 13,3 C 93 % 1014,5 hPa 0,0 l/m 0,0 km/h (0 Bft) W-NW 298 0 min 0,000 mm 0,0 UV-I 0 W/m 12,6 C 13,7 C 0,0 km/h (0 Bft) 97,37 %
28.09.2019 04:54 13,7 C 13,9 C 13,3 C 93 % 1014,5 hPa 0,0 l/m 0,0 km/h (0 Bft) W-NW 298 0 min 0,000 mm 0,0 UV-I 0 W/m 12,6 C 13,7 C 1,6 km/h (1 Bft) 98,00 %
28.09.2019 04:56 13,7 C 13,9 C 13,3 C 93 % 1014,5 hPa 0,0 l/m 0,9 km/h (0 Bft) W-NW 298 0 min 0,000 mm 0,0 UV-I 0 W/m 12,6 C 13,7 C 1,6 km/h (1 Bft) 95,74 %
28.09.2019 04:58 13,7 C 13,9 C 13,3 C 93 % 1014,5 hPa 0,0 l/m 0,6 km/h (0 Bft) W-NW 298 0 min 0,000 mm 0,0 UV-I 0 W/m 12,6 C 13,7 C 1,6 km/h (1 Bft) 94,34 %
28.09.2019 05:00 13,7 C 13,9 C 13,3 C 93 % 1014,5 hPa 0,0 l/m 1,0 km/h (0 Bft) W-NW 298 0 min 0,000 mm 0,0 UV-I 0 W/m 12,6 C 13,7 C 1,6 km/h (1 Bft) 100,00 %
28.09.2019 05:02 13,7 C 13,9 C 13,3 C 92 % 1014,6 hPa 0,0 l/m 0,5 km/h (0 Bft) W-NW 298 0 min 0,000 mm 0,0 UV-I 0 W/m 12,4 C 13,7 C 1,6 km/h (1 Bft) 94,34 %
28.09.2019 05:04 13,7 C 13,9 C 12,8 C 92 % 1014,6 hPa 0,0 l/m 0,0 km/h (0 Bft) W-NW 298 0 min 0,000 mm 0,0 UV-I 0 W/m 12,4 C 13,7 C 0,0 km/h (0 Bft) 97,37 %
28.09.2019 05:06 13,6 C 13,9 C 12,8 C 92 % 1014,6 hPa 0,0 l/m 1,4 km/h (1 Bft) W-NW 298 0 min 0,000 mm 0,0 UV-I 0 W/m 12,3 C 13,6 C 3,2 km/h (1 Bft) 98,11 %
28.09.2019 05:08 13,7 C 13,9 C 12,8 C 92 % 1014,5 hPa 0,0 l/m 0,5 km/h (0 Bft) W-NW 298 0 min 0,000 mm 0,0 UV-I 0 W/m 12,4 C 13,7 C 1,6 km/h (1 Bft) 96,00 %
28.09.2019 05:10 13,7 C 13,9 C 12,8 C 91 % 1014,5 hPa 0,0 l/m 0,5 km/h (0 Bft) W-NW 298 0 min 0,000 mm 0,0 UV-I 0 W/m 12,3 C 13,7 C 1,6 km/h (1 Bft) 94,87 %
28.09.2019 05:12 13,7 C 13,9 C 13,3 C 91 % 1014,5 hPa 0,0 l/m 2,4 km/h (1 Bft) W-NW 294 0 min 0,000 mm 0,0 UV-I 0 W/m 12,3 C 13,7 C 4,8 km/h (1 Bft) 96,00 %
28.09.2019 05:14 13,7 C 13,9 C 13,3 C 91 % 1014,5 hPa 0,0 l/m 2,8 km/h (1 Bft) SW 216 0 min 0,000 mm 0,0 UV-I 0 W/m 12,3 C 13,7 C 3,2 km/h (1 Bft) 91,49 %
28.09.2019 05:16 13,6 C 13,9 C 13,3 C 91 % 1014,4 hPa 0,0 l/m 2,8 km/h (1 Bft) SW 216 0 min 0,000 mm 0,0 UV-I 0 W/m 12,2 C 13,6 C 4,8 km/h (1 Bft) 94,00 %
28.09.2019 05:18 13,5 C 13,9 C 13,3 C 92 % 1014,5 hPa 0,0 l/m 3,0 km/h (1 Bft) SW 216 0 min 0,000 mm 0,0 UV-I 0 W/m 12,2 C 13,5 C 3,2 km/h (1 Bft) 95,12 %
28.09.2019 05:20 13,4 C 13,9 C 13,3 C 92 % 1014,6 hPa 0,0 l/m 2,0 km/h (1 Bft) SW 216 0 min 0,000 mm 0,0 UV-I 0 W/m 12,1 C 13,4 C 3,2 km/h (1 Bft) 96,23 %
28.09.2019 05:22 13,4 C 13,9 C 13,3 C 92 % 1014,6 hPa 0,0 l/m 2,0 km/h (1 Bft) SW 216 0 min 0,000 mm 0,0 UV-I 0 W/m 12,1 C 13,4 C 3,2 km/h (1 Bft) 97,87 %
28.09.2019 05:24 13,5 C 13,9 C 13,3 C 92 % 1014,6 hPa 0,0 l/m 2,9 km/h (1 Bft) SW 216 0 min 0,000 mm 0,0 UV-I 0 W/m 12,2 C 13,5 C 4,8 km/h (1 Bft) 98,00 %
28.09.2019 05:26 13,6 C 13,9 C 13,3 C 92 % 1014,7 hPa 0,0 l/m 3,7 km/h (1 Bft) SW 215 0 min 0,000 mm 0,0 UV-I 0 W/m 12,3 C 13,6 C 4,8 km/h (1 Bft) 97,37 %
28.09.2019 05:28 13,6 C 13,9 C 13,9 C 92 % 1014,6 hPa 0,0 l/m 4,0 km/h (1 Bft) S-SW 192 0 min 0,000 mm 0,0 UV-I 0 W/m 12,3 C 13,6 C 4,8 km/h (1 Bft) 97,87 %
28.09.2019 05:30 13,5 C 13,9 C 13,9 C 92 % 1014,4 hPa 0,0 l/m 5,2 km/h (1 Bft) S-SO 163 0 min 0,000 mm 0,0 UV-I 0 W/m 12,2 C 13,5 C 8,0 km/h (2 Bft) 96,00 %
28.09.2019 05:32 13,4 C 13,9 C 13,9 C 92 % 1014,3 hPa 0,0 l/m 6,9 km/h (2 Bft) S-SO 155 0 min 0,000 mm 0,0 UV-I 0 W/m 12,1 C 13,1 C 9,7 km/h (2 Bft) 100,00 %
28.09.2019 05:34 13,4 C 13,9 C 13,9 C 92 % 1014,2 hPa 0,0 l/m 7,7 km/h (2 Bft) S-SO 166 0 min 0,000 mm 0,0 UV-I 0 W/m 12,1 C 12,6 C 9,7 km/h (2 Bft) 96,61 %
28.09.2019 05:36 13,5 C 13,9 C 13,9 C 92 % 1014,2 hPa 0,0 l/m 4,8 km/h (1 Bft) S-SO 165 0 min 0,000 mm 0,0 UV-I 0 W/m 12,2 C 13,5 C 8,0 km/h (2 Bft) 95,45 %
28.09.2019 05:38 13,6 C 13,9 C 13,9 C 92 % 1014,3 hPa 0,0 l/m 1,6 km/h (1 Bft) S-SO 165 0 min 0,000 mm 0,0 UV-I 0 W/m 12,3 C 13,6 C 3,2 km/h (1 Bft) 98,00 %
28.09.2019 05:40 13,6 C 13,9 C 13,9 C 92 % 1014,4 hPa 0,0 l/m 2,0 km/h (1 Bft) S-SO 165 0 min 0,000 mm 0,0 UV-I 0 W/m 12,3 C 13,6 C 3,2 km/h (1 Bft) 97,50 %
28.09.2019 05:42 13,7 C 13,9 C 13,9 C 91 % 1014,6 hPa 0,0 l/m 3,8 km/h (1 Bft) S-SO 167 0 min 0,000 mm 0,0 UV-I 0 W/m 12,3 C 13,7 C 6,4 km/h (2 Bft) 98,00 %
28.09.2019 05:44 13,7 C 13,9 C 13,9 C 91 % 1014,7 hPa 0,0 l/m 2,5 km/h (1 Bft) S-SO 168 0 min 0,000 mm 0,0 UV-I 0 W/m 12,3 C 13,7 C 4,8 km/h (1 Bft) 97,87 %
28.09.2019 05:46 13,8 C 13,9 C 13,9 C 91 % 1014,7 hPa 0,0 l/m 2,9 km/h (1 Bft) S-SW 208 0 min 0,000 mm 0,0 UV-I 0 W/m 12,4 C 13,8 C 4,8 km/h (1 Bft) 94,00 %
28.09.2019 05:48 13,7 C 13,9 C 13,9 C 91 % 1014,7 hPa 0,0 l/m 2,9 km/h (1 Bft) S-SW 208 0 min 0,000 mm 0,0 UV-I 0 W/m 12,3 C 13,7 C 4,8 km/h (1 Bft) 95,24 %
28.09.2019 05:50 13,7 C 13,9 C 13,9 C 91 % 1014,6 hPa 0,0 l/m 2,1 km/h (1 Bft) S-SW 208 0 min 0,000 mm 0,0 UV-I 0 W/m 12,3 C 13,7 C 3,2 km/h (1 Bft) 98,08 %
28.09.2019 05:52 13,7 C 13,9 C 13,9 C 91 % 1014,6 hPa 0,0 l/m 0,8 km/h (0 Bft) S-SW 208 0 min 0,000 mm 0,0 UV-I 0 W/m 12,3 C 13,7 C 3,2 km/h (1 Bft) 92,31 %
28.09.2019 05:54 13,7 C 13,9 C 13,9 C 91 % 1014,6 hPa 0,0 l/m 1,1 km/h (1 Bft) S-SW 208 0 min 0,000 mm 0,0 UV-I 0 W/m 12,3 C 13,7 C 1,6 km/h (1 Bft) 94,00 %
28.09.2019 05:56 13,7 C 13,9 C 13,9 C 91 % 1014,6 hPa 0,0 l/m 0,5 km/h (0 Bft) S-SW 208 0 min 0,000 mm 0,0 UV-I 0 W/m 12,3 C 13,7 C 1,6 km/h (1 Bft) 93,62 %
28.09.2019 05:59 13,7 C 13,9 C 13,3 C 91 % 1014,7 hPa 0,0 l/m 0,3 km/h (0 Bft) S-SW 208 0 min 0,000 mm 0,0 UV-I 0 W/m 12,3 C 13,7 C 1,6 km/h (1 Bft) 97,37 %
28.09.2019 06:00 13,6 C 13,9 C 13,3 C 91 % 1014,7 hPa 0,0 l/m 0,8 km/h (0 Bft) S-SW 208 0 min 0,000 mm 0,0 UV-I 0 W/m 12,2 C 13,6 C 1,6 km/h (1 Bft) 83,33 %
28.09.2019 06:02 13,6 C 13,9 C 13,3 C 91 % 1014,8 hPa 0,0 l/m 0,9 km/h (0 Bft) S-SW 208 0 min 0,000 mm 0,0 UV-I 0 W/m 12,2 C 13,6 C 1,6 km/h (1 Bft) 94,00 %
28.09.2019 06:04 13,6 C 13,9 C 13,3 C 91 % 1014,8 hPa 0,0 l/m 1,4 km/h (1 Bft) S-SW 208 0 min 0,000 mm 0,0 UV-I 0 W/m 12,2 C 13,6 C 1,6 km/h (1 Bft) 93,62 %
28.09.2019 06:06 13,6 C 13,9 C 13,3 C 92 % 1014,8 hPa 0,0 l/m 1,1 km/h (1 Bft) S-SW 208 0 min 0,000 mm 0,0 UV-I 0 W/m 12,3 C 13,6 C 3,2 km/h (1 Bft) 95,74 %
28.09.2019 06:08 13,5 C 13,9 C 13,3 C 92 % 1014,9 hPa 0,0 l/m 1,0 km/h (0 Bft) S-SW 208 0 min 0,000 mm 0,0 UV-I 0 W/m 12,2 C 13,5 C 1,6 km/h (1 Bft) 96,23 %
28.09.2019 06:10 13,4 C 13,9 C 13,3 C 92 % 1014,9 hPa 0,0 l/m 1,2 km/h (1 Bft) S-SW 208 0 min 0,000 mm 0,0 UV-I 0 W/m 12,1 C 13,4 C 1,6 km/h (1 Bft) 92,68 %
28.09.2019 06:12 13,4 C 13,9 C 13,3 C 92 % 1015,0 hPa 0,0 l/m 2,5 km/h (1 Bft) S-SW 208 0 min 0,000 mm 0,0 UV-I 0 W/m 12,1 C 13,4 C 3,2 km/h (1 Bft) 98,00 %
28.09.2019 06:14 13,4 C 13,9 C 13,3 C 93 % 1014,9 hPa 0,0 l/m 1,3 km/h (1 Bft) S-SW 208 0 min 0,000 mm 0,0 UV-I 0 W/m 12,3 C 13,4 C 3,2 km/h (1 Bft) 98,00 %
28.09.2019 06:16 13,4 C 13,9 C 13,3 C 93 % 1014,9 hPa 0,0 l/m 0,0 km/h (0 Bft) S-SW 208 0 min 0,000 mm 0,0 UV-I 0 W/m 12,3 C 13,4 C 0,0 km/h (0 Bft) 100,00 %
28.09.2019 06:18 13,4 C 13,9 C 13,3 C 92 % 1014,9 hPa 0,0 l/m 0,4 km/h (0 Bft) S-SW 208 0 min 0,000 mm 0,0 UV-I 0 W/m 12,1 C 13,4 C 1,6 km/h (1 Bft) 100,00 %
28.09.2019 06:20 13,5 C 13,9 C 13,3 C 92 % 1014,9 hPa 0,0 l/m 1,9 km/h (1 Bft) S-SW 208 0 min 0,000 mm 0,0 UV-I 0 W/m 12,2 C 13,5 C 3,2 km/h (1 Bft) 100,00 %
28.09.2019 06:22 13,6 C 13,9 C 13,3 C 92 % 1014,9 hPa 0,0 l/m 1,2 km/h (1 Bft) S-SW 208 0 min 0,000 mm 0,0 UV-I 0 W/m 12,3 C 13,6 C 3,2 km/h (1 Bft) 98,11 %
28.09.2019 06:24 13,6 C 13,9 C 13,3 C 92 % 1014,9 hPa 0,0 l/m 1,8 km/h (1 Bft) S-SW 208 0 min 0,000 mm 0,0 UV-I 0 W/m 12,3 C 13,6 C 3,2 km/h (1 Bft) 98,00 %
28.09.2019 06:26 13,6 C 13,9 C 13,3 C 92 % 1014,9 hPa 0,0 l/m 1,8 km/h (1 Bft) S-SW 208 0 min 0,000 mm 0,0 UV-I 0 W/m 12,3 C 13,6 C 3,2 km/h (1 Bft) 100,00 %
28.09.2019 06:28 13,6 C 13,9 C 13,3 C 92 % 1014,9 hPa 0,0 l/m 0,3 km/h (0 Bft) S-SW 208 0 min 0,000 mm 0,0 UV-I 0 W/m 12,3 C 13,6 C 1,6 km/h (1 Bft) 98,18 %
28.09.2019 06:30 13,6 C 13,9 C 13,3 C 92 % 1015,0 hPa 0,0 l/m 0,0 km/h (0 Bft) S-SW 208 0 min 0,000 mm 0,0 UV-I 0 W/m 12,3 C 13,6 C 0,0 km/h (0 Bft) 100,00 %
28.09.2019 06:32 13,6 C 13,9 C 13,3 C 92 % 1015,0 hPa 0,0 l/m 0,1 km/h (0 Bft) S-SW 208 0 min 0,000 mm 0,0 UV-I 0 W/m 12,3 C 13,6 C 1,6 km/h (1 Bft) 100,00 %
28.09.2019 06:34 13,6 C 13,9 C 13,3 C 92 % 1015,1 hPa 0,0 l/m 0,0 km/h (0 Bft) S-SW 208 0 min 0,000 mm 0,0 UV-I 0 W/m 12,3 C 13,6 C 0,0 km/h (0 Bft) 100,00 %
28.09.2019 06:36 13,6 C 13,9 C 13,3 C 92 % 1015,1 hPa 0,0 l/m 0,0 km/h (0 Bft) S-SW 208 0 min 0,000 mm 0,0 UV-I 0 W/m 12,3 C 13,6 C 0,0 km/h (0 Bft) 100,00 %
28.09.2019 06:38 13,6 C 13,9 C 13,3 C 92 % 1015,1 hPa 0,0 l/m 0,3 km/h (0 Bft) S-SW 208 0 min 0,000 mm 0,0 UV-I 0 W/m 12,3 C 13,6 C 1,6 km/h (1 Bft) 100,00 %
28.09.2019 06:40 13,6 C 13,9 C 13,3 C 92 % 1015,0 hPa 0,0 l/m 2,2 km/h (1 Bft) S-SW 208 0 min 0,000 mm 0,0 UV-I 0 W/m 12,3 C 13,6 C 3,2 km/h (1 Bft) 100,00 %
28.09.2019 06:42 13,6 C 13,9 C 13,3 C 92 % 1015,1 hPa 0,0 l/m 2,4 km/h (1 Bft) S-SW 208 0 min 0,000 mm 0,0 UV-I 0 W/m 12,3 C 13,6 C 3,2 km/h (1 Bft) 100,00 %
28.09.2019 06:44 13,6 C 13,9 C 13,3 C 92 % 1015,0 hPa 0,0 l/m 1,7 km/h (1 Bft) S-SW 208 0 min 0,000 mm 0,0 UV-I 0 W/m 12,3 C 13,6 C 3,2 km/h (1 Bft) 100,00 %
28.09.2019 06:46 13,6 C 13,9 C 13,3 C 92 % 1015,1 hPa 0,0 l/m 2,9 km/h (1 Bft) S-SW 208 0 min 0,000 mm 0,0 UV-I 0 W/m 12,3 C 13,6 C 3,2 km/h (1 Bft) 100,00 %
28.09.2019 06:48 13,5 C 13,9 C 13,3 C 92 % 1015,1 hPa 0,0 l/m 2,3 km/h (1 Bft) S-SW 208 0 min 0,000 mm 0,0 UV-I 0 W/m 12,2 C 13,5 C 3,2 km/h (1 Bft) 97,73 %
28.09.2019 06:50 13,5 C 13,9 C 13,3 C 92 % 1015,2 hPa 0,0 l/m 1,4 km/h (1 Bft) S-SW 208 0 min 0,000 mm 0,0 UV-I 0 W/m 12,2 C 13,5 C 3,2 km/h (1 Bft) 96,00 %
28.09.2019 06:52 13,5 C 13,9 C 13,3 C 92 % 1015,2 hPa 0,0 l/m 1,5 km/h (1 Bft) S-SW 208 0 min 0,000 mm 0,0 UV-I 0 W/m 12,2 C 13,5 C 3,2 km/h (1 Bft) 97,87 %
28.09.2019 06:54 13,5 C 13,9 C 13,3 C 92 % 1015,2 hPa 0,0 l/m 1,6 km/h (1 Bft) S-SW 208 0 min 0,000 mm 0,0 UV-I 0 W/m 12,2 C 13,5 C 3,2 km/h (1 Bft) 98,00 %
28.09.2019 06:56 13,5 C 13,9 C 13,3 C 92 % 1015,4 hPa 0,0 l/m 1,7 km/h (1 Bft) S-SW 208 0 min 0,000 mm 0,0 UV-I 0 W/m 12,2 C 13,5 C 3,2 km/h (1 Bft) 97,87 %
28.09.2019 06:58 13,4 C 13,9 C 13,3 C 92 % 1015,4 hPa 0,0 l/m 1,6 km/h (1 Bft) S-SW 208 0 min 0,000 mm 0,0 UV-I 0 W/m 12,1 C 13,4 C 3,2 km/h (1 Bft) 97,22 %
28.09.2019 07:00 13,4 C 13,9 C 13,3 C 92 % 1015,5 hPa 0,0 l/m 1,3 km/h (1 Bft) S-SW 208 0 min 0,000 mm 0,0 UV-I 0 W/m 12,1 C 13,4 C 3,2 km/h (1 Bft) 96,36 %
28.09.2019 07:02 13,4 C 13,9 C 13,3 C 92 % 1015,4 hPa 0,0 l/m 1,7 km/h (1 Bft) S-SW 208 0 min 0,000 mm 0,0 UV-I 0 W/m 12,1 C 13,4 C 3,2 km/h (1 Bft) 97,87 %
28.09.2019 07:04 13,4 C 13,9 C 13,3 C 93 % 1015,4 hPa 0,0 l/m 0,6 km/h (0 Bft) S-SW 208 0 min 0,000 mm 0,0 UV-I 4 W/m 12,3 C 13,4 C 1,6 km/h (1 Bft) 98,00 %
28.09.2019 07:06 13,4 C 13,9 C 13,3 C 93 % 1015,5 hPa 0,0 l/m 0,6 km/h (0 Bft) S-SW 208 0 min 0,000 mm 0,0 UV-I 5 W/m 12,3 C 13,4 C 1,6 km/h (1 Bft) 94,44 %
28.09.2019 07:08 13,4 C 13,9 C 13,3 C 93 % 1015,4 hPa 0,0 l/m 0,0 km/h (0 Bft) S-SW 208 0 min 0,000 mm 0,0 UV-I 5 W/m 12,3 C 13,4 C 0,0 km/h (0 Bft) 98,31 %
28.09.2019 07:10 13,4 C 13,9 C 13,3 C 93 % 1015,5 hPa 0,0 l/m 0,0 km/h (0 Bft) S-SW 208 0 min 0,000 mm 0,0 UV-I 5 W/m 12,3 C 13,4 C 0,0 km/h (0 Bft) 97,14 %
28.09.2019 07:12 13,4 C 13,9 C 13,3 C 93 % 1015,5 hPa 0,0 l/m 0,1 km/h (0 Bft) S-SW 208 0 min 0,000 mm 0,0 UV-I 5 W/m 12,3 C 13,4 C 1,6 km/h (1 Bft) 98,11 %
28.09.2019 07:14 13,4 C 13,9 C 13,3 C 93 % 1015,5 hPa 0,0 l/m 1,1 km/h (1 Bft) S-SW 208 0 min 0,000 mm 0,0 UV-I 5 W/m 12,3 C 13,4 C 3,2 km/h (1 Bft) 95,12 %
28.09.2019 07:16 13,4 C 13,9 C 13,3 C 93 % 1015,5 hPa 0,0 l/m 1,4 km/h (1 Bft) S-SW 208 0 min 0,000 mm 0,0 UV-I 5 W/m 12,3 C 13,4 C 3,2 km/h (1 Bft) 95,74 %
28.09.2019 07:18 13,4 C 13,9 C 13,3 C 93 % 1015,6 hPa 0,0 l/m 2,9 km/h (1 Bft) S-SW 208 0 min 0,000 mm 0,0 UV-I 5 W/m 12,3 C 13,4 C 3,2 km/h (1 Bft) 92,31 %
28.09.2019 07:20 13,5 C 13,9 C 13,3 C 94 % 1015,6 hPa 0,0 l/m 1,7 km/h (1 Bft) S-SW 208 0 min 0,000 mm 0,0 UV-I 5 W/m 12,6 C 13,5 C 3,2 km/h (1 Bft) 96,00 %
28.09.2019 07:22 13,5 C 13,9 C 13,3 C 93 % 1015,6 hPa 0,0 l/m 0,8 km/h (0 Bft) S-SW 208 0 min 0,000 mm 0,0 UV-I 7 W/m 12,4 C 13,5 C 1,6 km/h (1 Bft) 93,62 %
28.09.2019 07:24 13,5 C 13,9 C 13,9 C 93 % 1015,6 hPa 0,0 l/m 1,5 km/h (1 Bft) S-SW 208 0 min 0,000 mm 0,0 UV-I 7 W/m 12,4 C 13,5 C 3,2 km/h (1 Bft) 95,74 %
28.09.2019 07:26 13,6 C 13,9 C 13,9 C 94 % 1015,6 hPa 0,0 l/m 2,5 km/h (1 Bft) S-SW 208 0 min 0,000 mm 0,0 UV-I 7 W/m 12,7 C 13,6 C 3,2 km/h (1 Bft) 97,87 %
28.09.2019 07:28 13,6 C 13,9 C 13,9 C 93 % 1015,6 hPa 0,0 l/m 3,4 km/h (1 Bft) SW 233 0 min 0,000 mm 0,0 UV-I 8 W/m 12,5 C 13,6 C 6,4 km/h (2 Bft) 94,74 %
28.09.2019 07:30 13,5 C 13,9 C 13,9 C 94 % 1015,6 hPa 0,0 l/m 2,6 km/h (1 Bft) SW 232 0 min 0,000 mm 0,0 UV-I 9 W/m 12,6 C 13,5 C 3,2 km/h (1 Bft) 97,87 %
28.09.2019 07:32 13,5 C 13,9 C 13,9 C 94 % 1015,7 hPa 0,0 l/m 2,9 km/h (1 Bft) SW 232 0 min 0,000 mm 0,0 UV-I 11 W/m 12,6 C 13,5 C 4,8 km/h (1 Bft) 98,11 %
28.09.2019 07:34 13,5 C 13,9 C 13,9 C 94 % 1015,7 hPa 0,0 l/m 3,7 km/h (1 Bft) SW 235 0 min 0,000 mm 0,0 UV-I 12 W/m 12,6 C 13,5 C 4,8 km/h (1 Bft) 95,74 %
28.09.2019 07:36 13,6 C 13,9 C 13,9 C 94 % 1015,7 hPa 0,0 l/m 4,4 km/h (1 Bft) S-SW 213 0 min 0,000 mm 0,0 UV-I 12 W/m 12,7 C 13,6 C 6,4 km/h (2 Bft) 98,00 %
28.09.2019 07:38 13,6 C 13,9 C 13,9 C 94 % 1015,7 hPa 0,0 l/m 4,2 km/h (1 Bft) S-SW 213 0 min 0,000 mm 0,0 UV-I 12 W/m 12,7 C 13,6 C 6,4 km/h (2 Bft) 100,00 %
28.09.2019 07:40 13,6 C 13,9 C 13,9 C 94 % 1015,6 hPa 0,0 l/m 3,3 km/h (1 Bft) SW 215 0 min 0,000 mm 0,0 UV-I 14 W/m 12,7 C 13,6 C 6,4 km/h (2 Bft) 100,00 %
28.09.2019 07:42 13,7 C 13,9 C 13,9 C 94 % 1015,6 hPa 0,0 l/m 4,7 km/h (1 Bft) SW 219 0 min 0,000 mm 0,0 UV-I 14 W/m 12,8 C 13,7 C 6,4 km/h (2 Bft) 100,00 %
28.09.2019 07:44 13,7 C 13,9 C 13,9 C 94 % 1015,6 hPa 0,0 l/m 5,2 km/h (1 Bft) SW 225 0 min 0,000 mm 0,0 UV-I 15 W/m 12,8 C 13,7 C 6,4 km/h (2 Bft) 100,00 %
28.09.2019 07:46 13,8 C 13,9 C 13,9 C 94 % 1015,6 hPa 0,0 l/m 4,4 km/h (1 Bft) S-SW 213 0 min 0,000 mm 0,0 UV-I 15 W/m 12,9 C 13,8 C 6,4 km/h (2 Bft) 100,00 %
28.09.2019 07:48 13,8 C 13,9 C 13,9 C 94 % 1015,6 hPa 0,0 l/m 5,3 km/h (1 Bft) SW 232 0 min 0,000 mm 0,0 UV-I 14 W/m 12,9 C 13,8 C 8,0 km/h (2 Bft) 98,11 %
28.09.2019 07:50 13,8 C 13,9 C 13,9 C 94 % 1015,6 hPa 0,0 l/m 4,8 km/h (1 Bft) SW 228 0 min 0,000 mm 0,0 UV-I 14 W/m 12,9 C 13,8 C 8,0 km/h (2 Bft) 100,00 %
28.09.2019 07:52 13,8 C 13,9 C 13,9 C 94 % 1015,5 hPa 0,0 l/m 4,5 km/h (1 Bft) SW 234 0 min 0,000 mm 0,0 UV-I 15 W/m 12,9 C 13,8 C 6,4 km/h (2 Bft) 100,00 %
28.09.2019 07:54 13,8 C 13,9 C 13,9 C 94 % 1015,5 hPa 0,0 l/m 4,2 km/h (1 Bft) SW 222 0 min 0,000 mm 0,0 UV-I 16 W/m 12,9 C 13,8 C 6,4 km/h (2 Bft) 100,00 %
28.09.2019 07:56 13,8 C 13,9 C 13,9 C 94 % 1015,5 hPa 0,0 l/m 4,1 km/h (1 Bft) SW 217 0 min 0,000 mm 0,0 UV-I 18 W/m 12,9 C 13,8 C 6,4 km/h (2 Bft) 100,00 %
28.09.2019 07:58 13,8 C 13,9 C 14,4 C 94 % 1015,5 hPa 0,0 l/m 2,7 km/h (1 Bft) S-SW 212 0 min 0,000 mm 0,0 UV-I 19 W/m 12,9 C 13,8 C 6,4 km/h (2 Bft) 100,00 %
28.09.2019 08:00 13,8 C 13,9 C 14,4 C 94 % 1015,5 hPa 0,0 l/m 4,1 km/h (1 Bft) S-SW 211 0 min 0,000 mm 0,0 UV-I 22 W/m 12,9 C 13,8 C 6,4 km/h (2 Bft) 100,00 %
28.09.2019 08:02 13,8 C 13,9 C 14,4 C 94 % 1015,5 hPa 0,0 l/m 3,3 km/h (1 Bft) S-SW 211 0 min 0,000 mm 0,0 UV-I 28 W/m 12,9 C 13,8 C 4,8 km/h (1 Bft) 97,56 %
28.09.2019 08:04 13,8 C 13,9 C 14,4 C 95 % 1015,5 hPa 0,0 l/m 2,7 km/h (1 Bft) S-SW 211 0 min 0,000 mm 0,0 UV-I 32 W/m 13,0 C 13,8 C 4,8 km/h (1 Bft) 100,00 %
28.09.2019 08:06 13,8 C 13,9 C 14,4 C 95 % 1015,4 hPa 0,0 l/m 3,9 km/h (1 Bft) S-SW 211 0 min 0,000 mm 0,0 UV-I 29 W/m 13,0 C 13,8 C 6,4 km/h (2 Bft) 98,00 %
28.09.2019 08:08 13,8 C 13,9 C 14,4 C 95 % 1015,4 hPa 0,0 l/m 4,3 km/h (1 Bft) S-SW 209 0 min 0,000 mm 0,0 UV-I 25 W/m 13,0 C 13,8 C 6,4 km/h (2 Bft) 100,00 %
28.09.2019 08:10 13,9 C 13,9 C 14,4 C 95 % 1015,4 hPa 0,0 l/m 4,5 km/h (1 Bft) S 185 0 min 0,000 mm 0,0 UV-I 26 W/m 13,1 C 13,9 C 6,4 km/h (2 Bft) 100,00 %
28.09.2019 08:12 13,9 C 13,9 C 14,4 C 95 % 1015,3 hPa 0,0 l/m 6,3 km/h (2 Bft) S 187 0 min 0,000 mm 0,0 UV-I 30 W/m 13,1 C 13,9 C 9,7 km/h (2 Bft) 100,00 %
28.09.2019 08:14 13,9 C 13,9 C 14,4 C 95 % 1015,4 hPa 0,0 l/m 6,8 km/h (2 Bft) S-SW 203 0 min 0,000 mm 0,0 UV-I 30 W/m 13,1 C 13,7 C 11,3 km/h (2 Bft) 100,00 %
28.09.2019 08:16 13,9 C 13,9 C 14,4 C 95 % 1015,3 hPa 0,0 l/m 7,1 km/h (2 Bft) S 188 0 min 0,000 mm 0,0 UV-I 27 W/m 13,1 C 13,5 C 11,3 km/h (2 Bft) 97,78 %
28.09.2019 08:18 13,9 C 13,9 C 14,4 C 95 % 1015,3 hPa 0,0 l/m 6,2 km/h (2 Bft) S-SW 195 0 min 0,000 mm 0,0 UV-I 26 W/m 13,1 C 13,9 C 11,3 km/h (2 Bft) 97,87 %
28.09.2019 08:20 13,9 C 13,9 C 14,4 C 94 % 1015,3 hPa 0,0 l/m 8,3 km/h (2 Bft) S 189 0 min 0,000 mm 0,0 UV-I 27 W/m 12,9 C 12,8 C 12,9 km/h (3 Bft) 98,00 %
28.09.2019 08:22 14,0 C 13,9 C 14,4 C 94 % 1015,4 hPa 0,0 l/m 6,1 km/h (2 Bft) S-SW 202 0 min 0,000 mm 0,0 UV-I 29 W/m 13,0 C 14,0 C 12,9 km/h (3 Bft) 93,62 %
28.09.2019 08:24 14,1 C 13,9 C 14,4 C 94 % 1015,4 hPa 0,0 l/m 5,6 km/h (1 Bft) S 178 0 min 0,000 mm 0,0 UV-I 30 W/m 13,1 C 14,1 C 9,7 km/h (2 Bft) 95,74 %
28.09.2019 08:26 14,1 C 13,9 C 14,4 C 94 % 1015,4 hPa 0,0 l/m 6,0 km/h (2 Bft) S-SW 205 0 min 0,000 mm 0,0 UV-I 32 W/m 13,1 C 14,1 C 9,7 km/h (2 Bft) 100,00 %
28.09.2019 08:28 14,1 C 13,9 C 14,4 C 94 % 1015,5 hPa 0,0 l/m 4,9 km/h (1 Bft) SW 228 0 min 0,000 mm 0,0 UV-I 32 W/m 13,1 C 14,1 C 9,7 km/h (2 Bft) 98,00 %
28.09.2019 08:30 14,1 C 13,9 C 14,4 C 94 % 1015,5 hPa 0,0 l/m 5,8 km/h (2 Bft) W-SW 246 0 min 0,000 mm 0,0 UV-I 34 W/m 13,1 C 14,1 C 8,0 km/h (2 Bft) 100,00 %
28.09.2019 08:32 14,1 C 13,9 C 14,4 C 94 % 1015,5 hPa 0,0 l/m 5,6 km/h (1 Bft) SW 225 0 min 0,000 mm 0,0 UV-I 38 W/m 13,1 C 14,1 C 11,3 km/h (2 Bft) 100,00 %
28.09.2019 08:34 14,1 C 13,9 C 14,4 C 94 % 1015,6 hPa 0,0 l/m 6,3 km/h (2 Bft) SW 234 0 min 0,000 mm 0,0 UV-I 40 W/m 13,1 C 14,1 C 9,7 km/h (2 Bft) 100,00 %
28.09.2019 08:36 14,2 C 13,9 C 14,4 C 94 % 1015,5 hPa 0,0 l/m 8,2 km/h (2 Bft) W-SW 240 0 min 0,000 mm 0,0 UV-I 40 W/m 13,2 C 13,2 C 12,9 km/h (3 Bft) 100,00 %
28.09.2019 08:39 14,2 C 13,9 C 14,4 C 94 % 1015,5 hPa 0,2 l/m 5,5 km/h (1 Bft) W-SW 243 0 min 0,000 mm 0,0 UV-I 40 W/m 13,2 C 14,2 C 11,3 km/h (2 Bft) 98,68 %
28.09.2019 08:40 14,2 C 13,9 C 14,4 C 94 % 1015,5 hPa 0,0 l/m 4,3 km/h (1 Bft) SW 215 0 min 0,000 mm 0,0 UV-I 40 W/m 13,2 C 14,2 C 6,4 km/h (2 Bft) 95,83 %
28.09.2019 08:42 14,2 C 13,9 C 14,4 C 94 % 1015,5 hPa 0,0 l/m 4,7 km/h (1 Bft) SW 234 0 min 0,000 mm 0,0 UV-I 40 W/m 13,2 C 14,2 C 6,4 km/h (2 Bft) 97,87 %
28.09.2019 08:44 14,2 C 13,9 C 14,4 C 94 % 1015,6 hPa 0,0 l/m 3,5 km/h (1 Bft) SW 235 0 min 0,000 mm 0,0 UV-I 41 W/m 13,2 C 14,2 C 4,8 km/h (1 Bft) 97,37 %
28.09.2019 08:46 14,2 C 13,9 C 14,4 C 94 % 1015,6 hPa 0,0 l/m 2,9 km/h (1 Bft) SW 235 0 min 0,000 mm 0,0 UV-I 44 W/m 13,2 C 14,2 C 4,8 km/h (1 Bft) 98,21 %
28.09.2019 08:48 14,2 C 13,9 C 14,4 C 94 % 1015,7 hPa 0,0 l/m 2,4 km/h (1 Bft) SW 235 0 min 0,000 mm 0,0 UV-I 48 W/m 13,2 C 14,2 C 4,8 km/h (1 Bft) 97,87 %
28.09.2019 08:50 14,2 C 13,9 C 14,4 C 94 % 1015,7 hPa 0,0 l/m 2,3 km/h (1 Bft) SW 236 0 min 0,000 mm 0,0 UV-I 53 W/m 13,2 C 14,2 C 4,8 km/h (1 Bft) 97,14 %
28.09.2019 08:52 14,2 C 13,9 C 14,4 C 94 % 1015,6 hPa 0,0 l/m 2,4 km/h (1 Bft) W-SW 239 0 min 0,000 mm 0,0 UV-I 58 W/m 13,2 C 14,2 C 4,8 km/h (1 Bft) 94,92 %
28.09.2019 08:54 14,2 C 13,9 C 14,4 C 94 % 1015,7 hPa 0,0 l/m 3,1 km/h (1 Bft) W-SW 240 0 min 0,000 mm 0,0 UV-I 63 W/m 13,2 C 14,2 C 4,8 km/h (1 Bft) 91,49 %
28.09.2019 08:56 14,2 C 13,9 C 14,4 C 94 % 1015,7 hPa 0,0 l/m 1,9 km/h (1 Bft) W-SW 240 0 min 0,000 mm 0,0 UV-I 65 W/m 13,2 C 14,2 C 3,2 km/h (1 Bft) 95,12 %
28.09.2019 08:58 14,3 C 13,9 C 15,0 C 94 % 1015,7 hPa 0,0 l/m 2,6 km/h (1 Bft) W-SW 240 0 min 0,000 mm 0,0 UV-I 66 W/m 13,3 C 14,3 C 4,8 km/h (1 Bft) 87,18 %
28.09.2019 09:00 14,3 C 13,9 C 15,0 C 94 % 1015,7 hPa 0,0 l/m 1,9 km/h (1 Bft) W-SW 240 0 min 0,026 mm 0,0 UV-I 67 W/m 13,3 C 14,3 C 3,2 km/h (1 Bft) 94,34 %
28.09.2019 09:02 14,3 C 13,9 C 15,0 C 94 % 1015,7 hPa 0,0 l/m 1,0 km/h (0 Bft) W-SW 240 0 min 0,000 mm 0,0 UV-I 69 W/m 13,3 C 14,3 C 3,2 km/h (1 Bft) 90,00 %
28.09.2019 09:04 14,3 C 13,9 C 15,0 C 94 % 1015,7 hPa 0,0 l/m 1,5 km/h (1 Bft) W-SW 240 0 min 0,000 mm 0,0 UV-I 55 W/m 13,3 C 14,3 C 3,2 km/h (1 Bft) 94,00 %
28.09.2019 09:06 14,3 C 13,9 C 15,0 C 94 % 1015,8 hPa 0,0 l/m 1,2 km/h (1 Bft) W-SW 241 0 min 0,000 mm 0,0 UV-I 46 W/m 13,3 C 14,3 C 1,6 km/h (1 Bft) 94,74 %
28.09.2019 09:08 14,3 C 13,9 C 15,0 C 94 % 1015,8 hPa 0,0 l/m 0,9 km/h (0 Bft) W-SW 246 0 min 0,000 mm 0,0 UV-I 64 W/m 13,3 C 14,3 C 1,6 km/h (1 Bft) 95,74 %
28.09.2019 09:10 14,3 C 13,9 C 15,0 C 94 % 1015,8 hPa 0,0 l/m 0,9 km/h (0 Bft) SW 236 0 min 0,000 mm 0,0 UV-I 65 W/m 13,3 C 14,3 C 1,6 km/h (1 Bft) 96,43 %
28.09.2019 09:12 14,4 C 13,9 C 15,0 C 94 % 1015,8 hPa 0,0 l/m 1,2 km/h (1 Bft) SW 236 0 min 0,000 mm 0,0 UV-I 68 W/m 13,4 C 14,4 C 1,6 km/h (1 Bft) 94,74 %
28.09.2019 09:14 14,3 C 13,9 C 15,0 C 94 % 1015,9 hPa 0,0 l/m 0,8 km/h (0 Bft) SW 236 0 min 0,000 mm 0,0 UV-I 70 W/m 13,3 C 14,3 C 1,6 km/h (1 Bft) 93,62 %
28.09.2019 09:16 14,4 C 13,9 C 15,0 C 94 % 1015,8 hPa 0,0 l/m 0,7 km/h (0 Bft) SW 236 0 min 0,000 mm 0,0 UV-I 70 W/m 13,4 C 14,4 C 3,2 km/h (1 Bft) 96,00 %
28.09.2019 09:18 14,4 C 13,9 C 15,0 C 94 % 1015,9 hPa 0,0 l/m 1,6 km/h (1 Bft) SW 236 0 min 0,000 mm 0,0 UV-I 71 W/m 13,4 C 14,4 C 3,2 km/h (1 Bft) 94,00 %
28.09.2019 09:20 14,4 C 13,9 C 15,0 C 94 % 1015,9 hPa 0,0 l/m 1,3 km/h (1 Bft) SW 236 0 min 0,000 mm 0,0 UV-I 70 W/m 13,4 C 14,4 C 1,6 km/h (1 Bft) 93,62 %
28.09.2019 09:22 14,4 C 13,9 C 15,0 C 94 % 1015,9 hPa 0,0 l/m 1,5 km/h (1 Bft) SW 236 0 min 0,000 mm 0,0 UV-I 67 W/m 13,4 C 14,4 C 3,2 km/h (1 Bft) 96,00 %
28.09.2019 09:24 14,4 C 13,9 C 15,0 C 94 % 1015,9 hPa 0,0 l/m 1,7 km/h (1 Bft) SW 236 0 min 0,000 mm 0,0 UV-I 64 W/m 13,4 C 14,4 C 3,2 km/h (1 Bft) 94,29 %
28.09.2019 09:26 14,4 C 13,9 C 15,0 C 94 % 1016,0 hPa 0,0 l/m 1,9 km/h (1 Bft) SW 236 0 min 0,000 mm 0,0 UV-I 65 W/m 13,4 C 14,4 C 3,2 km/h (1 Bft) 96,43 %
28.09.2019 09:28 14,4 C 13,9 C 15,0 C 94 % 1016,0 hPa 0,0 l/m 2,5 km/h (1 Bft) SW 236 0 min 0,000 mm 0,0 UV-I 67 W/m 13,4 C 14,4 C 3,2 km/h (1 Bft) 97,56 %
28.09.2019 09:30 14,4 C 13,9 C 15,0 C 94 % 1015,9 hPa 0,0 l/m 0,9 km/h (0 Bft) SW 236 0 min 0,000 mm 0,0 UV-I 67 W/m 13,4 C 14,4 C 3,2 km/h (1 Bft) 95,74 %
28.09.2019 09:32 14,4 C 13,9 C 15,0 C 95 % 1016,0 hPa 0,0 l/m 1,5 km/h (1 Bft) SW 236 0 min 0,000 mm 0,0 UV-I 70 W/m 13,6 C 14,4 C 3,2 km/h (1 Bft) 96,00 %
28.09.2019 09:34 14,5 C 13,9 C 15,6 C 95 % 1016,0 hPa 0,0 l/m 1,8 km/h (1 Bft) SW 236 0 min 0,000 mm 0,0 UV-I 72 W/m 13,7 C 14,5 C 3,2 km/h (1 Bft) 95,83 %
28.09.2019 09:36 14,5 C 13,9 C 15,6 C 95 % 1016,0 hPa 0,0 l/m 0,8 km/h (0 Bft) SW 236 0 min 0,000 mm 0,0 UV-I 80 W/m 13,7 C 14,5 C 3,2 km/h (1 Bft) 97,37 %
28.09.2019 09:38 14,6 C 13,9 C 15,6 C 95 % 1016,0 hPa 0,0 l/m 1,3 km/h (1 Bft) SW 236 0 min 0,000 mm 0,0 UV-I 88 W/m 13,8 C 14,6 C 3,2 km/h (1 Bft) 98,00 %
28.09.2019 09:40 14,6 C 13,9 C 15,6 C 95 % 1016,1 hPa 0,0 l/m 1,9 km/h (1 Bft) SW 236 0 min 0,000 mm 0,0 UV-I 88 W/m 13,8 C 14,6 C 3,2 km/h (1 Bft) 98,11 %
28.09.2019 09:42 14,6 C 13,9 C 15,6 C 95 % 1016,1 hPa 0,0 l/m 1,8 km/h (1 Bft) SW 236 0 min 0,000 mm 0,0 UV-I 91 W/m 13,8 C 14,6 C 3,2 km/h (1 Bft) 97,87 %
28.09.2019 09:44 14,6 C 13,9 C 15,6 C 95 % 1016,1 hPa 0,0 l/m 1,6 km/h (1 Bft) SW 236 0 min 0,000 mm 0,0 UV-I 88 W/m 13,8 C 14,6 C 3,2 km/h (1 Bft) 97,87 %
28.09.2019 09:46 14,6 C 13,9 C 15,6 C 95 % 1016,1 hPa 0,0 l/m 3,0 km/h (1 Bft) W-SW 239 0 min 0,000 mm 0,0 UV-I 83 W/m 13,8 C 14,6 C 4,8 km/h (1 Bft) 97,56 %
28.09.2019 09:48 14,6 C 13,9 C 15,6 C 95 % 1016,2 hPa 0,0 l/m 2,8 km/h (1 Bft) W-SW 239 0 min 0,000 mm 0,0 UV-I 82 W/m 13,8 C 14,6 C 4,8 km/h (1 Bft) 95,74 %
28.09.2019 09:50 14,6 C 13,9 C 15,6 C 95 % 1016,1 hPa 0,0 l/m 3,8 km/h (1 Bft) W-SW 252 0 min 0,000 mm 0,0 UV-I 81 W/m 13,8 C 14,6 C 6,4 km/h (2 Bft) 93,62 %
28.09.2019 09:52 14,6 C 13,9 C 15,6 C 95 % 1016,1 hPa 0,0 l/m 3,5 km/h (1 Bft) W-SW 237 0 min 0,000 mm 0,0 UV-I 78 W/m 13,8 C 14,6 C 6,4 km/h (2 Bft) 96,23 %
28.09.2019 09:54 14,7 C 13,9 C 15,6 C 95 % 1016,2 hPa 0,0 l/m 3,8 km/h (1 Bft) W-SW 240 0 min 0,000 mm 0,0 UV-I 76 W/m 13,9 C 14,7 C 6,4 km/h (2 Bft) 97,56 %
28.09.2019 09:56 14,7 C 13,9 C 15,6 C 95 % 1016,2 hPa 0,0 l/m 3,9 km/h (1 Bft) W-SW 237 0 min 0,000 mm 0,0 UV-I 80 W/m 13,9 C 14,7 C 4,8 km/h (1 Bft) 95,74 %
28.09.2019 09:58 14,7 C 13,9 C 15,6 C 95 % 1016,2 hPa 0,2 l/m 3,9 km/h (1 Bft) SW 236 0 min 0,000 mm 0,0 UV-I 83 W/m 13,9 C 14,7 C 8,0 km/h (2 Bft) 95,74 %
28.09.2019 10:00 14,8 C 13,9 C 15,6 C 95 % 1016,2 hPa 0,0 l/m 3,0 km/h (1 Bft) SW 235 0 min 0,051 mm 0,0 UV-I 81 W/m 14,0 C 14,8 C 4,8 km/h (1 Bft) 100,00 %
28.09.2019 10:02 14,8 C 13,9 C 15,6 C 94 % 1016,1 hPa 0,0 l/m 4,8 km/h (1 Bft) SW 223 0 min 0,000 mm 0,0 UV-I 80 W/m 13,8 C 14,8 C 6,4 km/h (2 Bft) 100,00 %
28.09.2019 10:04 14,8 C 13,9 C 15,6 C 94 % 1016,1 hPa 0,0 l/m 4,2 km/h (1 Bft) W 259 0 min 0,000 mm 0,0 UV-I 84 W/m 13,8 C 14,8 C 11,3 km/h (2 Bft) 100,00 %
28.09.2019 10:06 14,9 C 13,9 C 15,6 C 95 % 1016,2 hPa 0,0 l/m 4,3 km/h (1 Bft) SW 236 0 min 0,000 mm 0,0 UV-I 91 W/m 14,1 C 14,9 C 8,0 km/h (2 Bft) 95,74 %
28.09.2019 10:08 14,9 C 13,9 C 15,6 C 94 % 1016,2 hPa 0,0 l/m 5,4 km/h (1 Bft) W-SW 240 0 min 0,000 mm 0,0 UV-I 91 W/m 13,9 C 14,9 C 8,0 km/h (2 Bft) 98,00 %
28.09.2019 10:10 15,0 C 13,9 C 15,6 C 94 % 1016,3 hPa 0,0 l/m 3,3 km/h (1 Bft) W-SW 241 0 min 0,000 mm 0,2 UV-I 96 W/m 14,0 C 15,0 C 6,4 km/h (2 Bft) 98,00 %
28.09.2019 10:12 15,0 C 13,9 C 15,6 C 94 % 1016,2 hPa 0,0 l/m 5,5 km/h (1 Bft) SW 232 0 min 0,000 mm 0,5 UV-I 104 W/m 14,0 C 15,0 C 8,0 km/h (2 Bft) 98,00 %
28.09.2019 10:14 15,1 C 13,9 C 16,1 C 94 % 1016,2 hPa 0,0 l/m 4,3 km/h (1 Bft) W-SW 244 0 min 0,000 mm 0,5 UV-I 112 W/m 14,1 C 15,1 C 6,4 km/h (2 Bft) 97,62 %
28.09.2019 10:16 15,1 C 13,9 C 16,1 C 94 % 1016,2 hPa 0,0 l/m 4,3 km/h (1 Bft) W-SW 243 0 min 0,000 mm 0,6 UV-I 120 W/m 14,1 C 15,1 C 8,0 km/h (2 Bft) 97,87 %
28.09.2019 10:18 15,2 C 13,9 C 16,7 C 94 % 1016,2 hPa 0,0 l/m 4,5 km/h (1 Bft) SW 227 0 min 0,000 mm 0,6 UV-I 119 W/m 14,2 C 15,2 C 8,0 km/h (2 Bft) 92,00 %
28.09.2019 10:20 15,2 C 13,9 C 16,7 C 94 % 1016,2 hPa 0,0 l/m 6,8 km/h (2 Bft) SW 225 0 min 0,000 mm 0,6 UV-I 109 W/m 14,2 C 15,0 C 11,3 km/h (2 Bft) 97,73 %
28.09.2019 10:22 15,2 C 13,9 C 16,1 C 93 % 1016,2 hPa 0,0 l/m 7,7 km/h (2 Bft) SW 219 0 min 0,000 mm 0,5 UV-I 102 W/m 14,1 C 14,5 C 12,9 km/h (3 Bft) 97,56 %
28.09.2019 10:24 15,2 C 13,9 C 16,1 C 93 % 1016,2 hPa 0,0 l/m 6,9 km/h (2 Bft) S-SW 202 0 min 0,000 mm 0,6 UV-I 111 W/m 14,1 C 14,9 C 9,7 km/h (2 Bft) 96,00 %
28.09.2019 10:26 15,2 C 13,9 C 16,1 C 93 % 1016,2 hPa 0,0 l/m 7,2 km/h (2 Bft) W-SW 244 0 min 0,000 mm 0,7 UV-I 135 W/m 14,1 C 14,8 C 11,3 km/h (2 Bft) 98,11 %
28.09.2019 10:28 15,3 C 13,9 C 16,1 C 92 % 1016,2 hPa 0,0 l/m 6,2 km/h (2 Bft) W-SW 239 0 min 0,000 mm 0,8 UV-I 160 W/m 14,0 C 15,3 C 11,3 km/h (2 Bft) 97,56 %
28.09.2019 10:30 15,3 C 13,9 C 16,1 C 92 % 1016,3 hPa 0,0 l/m 6,6 km/h (2 Bft) W-SW 250 0 min 0,000 mm 0,8 UV-I 168 W/m 14,0 C 15,2 C 9,7 km/h (2 Bft) 98,00 %
28.09.2019 10:32 15,4 C 13,9 C 16,7 C 92 % 1016,3 hPa 0,0 l/m 5,8 km/h (2 Bft) W-SW 241 0 min 0,000 mm 0,8 UV-I 163 W/m 14,1 C 15,4 C 8,0 km/h (2 Bft) 95,45 %
28.09.2019 10:34 15,4 C 13,9 C 16,7 C 92 % 1016,3 hPa 0,0 l/m 4,0 km/h (1 Bft) W-SW 239 0 min 0,000 mm 0,8 UV-I 163 W/m 14,1 C 15,4 C 9,7 km/h (2 Bft) 100,00 %
28.09.2019 10:36 15,6 C 13,9 C 17,2 C 92 % 1016,3 hPa 0,0 l/m 6,2 km/h (2 Bft) SW 236 0 min 0,000 mm 0,8 UV-I 162 W/m 14,3 C 15,6 C 11,3 km/h (2 Bft) 100,00 %
28.09.2019 10:38 15,6 C 13,9 C 17,2 C 92 % 1016,3 hPa 0,0 l/m 4,0 km/h (1 Bft) W-SW 242 0 min 0,000 mm 0,8 UV-I 159 W/m 14,3 C 15,6 C 6,4 km/h (2 Bft) 100,00 %
28.09.2019 10:40 15,6 C 13,9 C 17,2 C 92 % 1016,4 hPa 0,0 l/m 5,7 km/h (1 Bft) SW 216 0 min 0,000 mm 0,8 UV-I 150 W/m 14,3 C 15,6 C 9,7 km/h (2 Bft) 97,37 %
28.09.2019 10:42 15,6 C 13,9 C 16,7 C 91 % 1016,4 hPa 0,0 l/m 7,2 km/h (2 Bft) SW 236 0 min 0,000 mm 0,7 UV-I 146 W/m 14,1 C 15,2 C 11,3 km/h (2 Bft) 100,00 %
28.09.2019 10:44 15,6 C 13,9 C 16,7 C 91 % 1016,4 hPa 0,0 l/m 5,4 km/h (1 Bft) W-SW 251 0 min 0,000 mm 0,7 UV-I 142 W/m 14,1 C 15,6 C 12,9 km/h (3 Bft) 97,87 %
28.09.2019 10:46 15,6 C 13,9 C 16,7 C 91 % 1016,3 hPa 0,0 l/m 7,5 km/h (2 Bft) W 259 0 min 0,000 mm 0,7 UV-I 140 W/m 14,1 C 15,0 C 16,1 km/h (3 Bft) 98,00 %
28.09.2019 10:48 15,7 C 13,9 C 16,7 C 90 % 1016,4 hPa 0,0 l/m 8,9 km/h (2 Bft) W 264 0 min 0,000 mm 0,7 UV-I 141 W/m 14,1 C 14,4 C 16,1 km/h (3 Bft) 98,00 %
28.09.2019 10:50 15,7 C 13,9 C 16,7 C 90 % 1016,4 hPa 0,0 l/m 9,0 km/h (2 Bft) W-SW 240 0 min 0,000 mm 0,8 UV-I 147 W/m 14,1 C 14,3 C 11,3 km/h (2 Bft) 97,44 %
28.09.2019 10:52 15,7 C 13,9 C 16,7 C 90 % 1016,4 hPa 0,0 l/m 6,3 km/h (2 Bft) W-SW 249 0 min 0,000 mm 0,8 UV-I 150 W/m 14,1 C 15,7 C 12,9 km/h (3 Bft) 97,87 %
28.09.2019 10:54 15,7 C 13,9 C 16,7 C 90 % 1016,5 hPa 0,0 l/m 7,2 km/h (2 Bft) W 261 0 min 0,000 mm 0,8 UV-I 147 W/m 14,1 C 15,3 C 11,3 km/h (2 Bft) 97,14 %
28.09.2019 10:56 15,7 C 13,9 C 16,7 C 90 % 1016,5 hPa 0,0 l/m 6,6 km/h (2 Bft) W-SW 253 0 min 0,000 mm 0,7 UV-I 142 W/m 14,1 C 15,6 C 11,3 km/h (2 Bft) 96,00 %
28.09.2019 10:58 15,7 C 13,9 C 16,7 C 89 % 1016,5 hPa 0,0 l/m 12,2 km/h (2 Bft) W-SW 246 0 min 0,000 mm 0,8 UV-I 146 W/m 13,9 C 13,0 C 17,7 km/h (3 Bft) 98,21 %
28.09.2019 11:00 15,7 C 13,9 C 16,7 C 89 % 1016,6 hPa 0,0 l/m 13,0 km/h (3 Bft) W-SW 250 0 min 0,000 mm 0,8 UV-I 153 W/m 13,9 C 12,7 C 19,3 km/h (3 Bft) 96,00 %
28.09.2019 11:02 15,7 C 13,9 C 16,7 C 89 % 1016,6 hPa 0,0 l/m 11,2 km/h (2 Bft) W-SW 242 0 min 0,076 mm 0,8 UV-I 157 W/m 13,9 C 13,4 C 16,1 km/h (3 Bft) 96,00 %
28.09.2019 11:04 15,8 C 13,9 C 16,7 C 89 % 1016,5 hPa 0,0 l/m 12,7 km/h (3 Bft) W 277 0 min 0,000 mm 0,8 UV-I 163 W/m 14,0 C 12,9 C 19,3 km/h (3 Bft) 97,56 %
28.09.2019 11:06 15,8 C 13,9 C 16,7 C 89 % 1016,5 hPa 0,0 l/m 11,0 km/h (2 Bft) W-SW 251 0 min 0,000 mm 0,8 UV-I 163 W/m 14,0 C 13,6 C 16,1 km/h (3 Bft) 98,00 %
28.09.2019 11:08 15,8 C 13,9 C 17,2 C 89 % 1016,6 hPa 0,0 l/m 8,7 km/h (2 Bft) W-SW 255 0 min 0,000 mm 0,9 UV-I 164 W/m 14,0 C 14,6 C 17,7 km/h (3 Bft) 97,87 %
28.09.2019 11:10 15,8 C 13,9 C 17,2 C 89 % 1016,6 hPa 0,0 l/m 11,5 km/h (2 Bft) W-SW 256 0 min 0,000 mm 0,9 UV-I 167 W/m 14,0 C 13,4 C 17,7 km/h (3 Bft) 98,11 %
28.09.2019 11:12 15,9 C 13,9 C 17,2 C 89 % 1016,6 hPa 0,0 l/m 12,9 km/h (3 Bft) W-SW 257 0 min 0,000 mm 0,9 UV-I 164 W/m 14,1 C 13,0 C 17,7 km/h (3 Bft) 97,56 %
28.09.2019 11:14 15,9 C 13,9 C 17,2 C 88 % 1016,6 hPa 0,0 l/m 10,2 km/h (2 Bft) W 272 0 min 0,000 mm 0,9 UV-I 155 W/m 13,9 C 14,0 C 17,7 km/h (3 Bft) 98,00 %
28.09.2019 11:16 15,9 C 13,9 C 17,2 C 88 % 1016,6 hPa 0,0 l/m 13,2 km/h (3 Bft) W 269 0 min 0,000 mm 0,8 UV-I 146 W/m 13,9 C 12,9 C 20,9 km/h (4 Bft) 96,67 %
28.09.2019 11:18 15,9 C 13,9 C 17,2 C 87 % 1016,6 hPa 0,0 l/m 12,3 km/h (3 Bft) W-SW 250 0 min 0,000 mm 0,8 UV-I 148 W/m 13,7 C 13,2 C 22,5 km/h (4 Bft) 98,44 %
28.09.2019 11:20 15,9 C 13,9 C 17,2 C 88 % 1016,6 hPa 0,0 l/m 12,3 km/h (3 Bft) W 266 0 min 0,000 mm 0,9 UV-I 156 W/m 13,9 C 13,2 C 20,9 km/h (4 Bft) 94,44 %
28.09.2019 11:22 15,9 C 13,9 C 17,2 C 87 % 1016,7 hPa 0,0 l/m 14,8 km/h (3 Bft) W-SW 251 0 min 0,000 mm 0,9 UV-I 154 W/m 13,7 C 12,3 C 22,5 km/h (4 Bft) 96,36 %
28.09.2019 11:24 15,9 C 13,9 C 17,2 C 86 % 1016,7 hPa 0,0 l/m 16,1 km/h (3 Bft) W-NW 294 0 min 0,000 mm 0,9 UV-I 153 W/m 13,6 C 11,9 C 27,4 km/h (4 Bft) 100,00 %
28.09.2019 11:26 15,9 C 13,9 C 16,7 C 86 % 1016,7 hPa 0,0 l/m 11,1 km/h (2 Bft) W 270 0 min 0,000 mm 0,8 UV-I 144 W/m 13,6 C 13,7 C 16,1 km/h (3 Bft) 100,00 %
28.09.2019 11:28 15,9 C 13,9 C 16,7 C 86 % 1016,7 hPa 0,0 l/m 16,1 km/h (3 Bft) W-SW 257 0 min 0,000 mm 0,8 UV-I 131 W/m 13,6 C 11,9 C 22,5 km/h (4 Bft) 100,00 %
28.09.2019 11:30 15,9 C 13,9 C 16,7 C 86 % 1016,8 hPa 0,0 l/m 13,6 km/h (3 Bft) W 277 0 min 0,000 mm 0,8 UV-I 129 W/m 13,6 C 12,7 C 20,9 km/h (4 Bft) 96,92 %
28.09.2019 11:32 15,9 C 13,9 C 16,7 C 86 % 1016,8 hPa 0,0 l/m 14,3 km/h (3 Bft) W-SW 249 0 min 0,000 mm 0,8 UV-I 140 W/m 13,6 C 12,5 C 19,3 km/h (3 Bft) 100,00 %
28.09.2019 11:34 15,8 C 13,9 C 16,7 C 86 % 1016,8 hPa 0,0 l/m 16,6 km/h (3 Bft) SW 215 0 min 0,000 mm 0,9 UV-I 152 W/m 13,5 C 11,7 C 27,4 km/h (4 Bft) 100,00 %
28.09.2019 11:36 15,8 C 13,9 C 16,7 C 85 % 1016,8 hPa 0,0 l/m 13,9 km/h (3 Bft) SW 234 0 min 0,000 mm 0,9 UV-I 169 W/m 13,3 C 12,5 C 20,9 km/h (4 Bft) 97,87 %
28.09.2019 11:38 15,8 C 13,9 C 16,7 C 85 % 1016,8 hPa 0,0 l/m 16,2 km/h (3 Bft) SW 223 0 min 0,000 mm 1,0 UV-I 179 W/m 13,3 C 11,8 C 24,1 km/h (4 Bft) 97,37 %
28.09.2019 11:40 15,8 C 13,9 C 16,7 C 86 % 1016,8 hPa 0,0 l/m 12,4 km/h (3 Bft) W 268 0 min 0,000 mm 1,1 UV-I 199 W/m 13,5 C 13,0 C 19,3 km/h (3 Bft) 97,87 %
28.09.2019 11:42 15,9 C 13,9 C 17,2 C 86 % 1016,8 hPa 0,0 l/m 11,3 km/h (2 Bft) W-SW 250 0 min 0,000 mm 1,3 UV-I 230 W/m 13,6 C 13,6 C 16,1 km/h (3 Bft) 97,87 %
28.09.2019 11:44 15,9 C 13,9 C 17,8 C 86 % 1016,8 hPa 0,0 l/m 15,8 km/h (3 Bft) W-SW 246 0 min 0,000 mm 1,3 UV-I 225 W/m 13,6 C 12,0 C 25,7 km/h (4 Bft) 97,87 %
28.09.2019 11:46 15,9 C 13,9 C 17,2 C 85 % 1016,9 hPa 0,0 l/m 18,0 km/h (3 Bft) W-SW 248 0 min 0,000 mm 1,3 UV-I 212 W/m 13,4 C 11,4 C 25,7 km/h (4 Bft) 98,11 %
28.09.2019 11:48 15,9 C 13,9 C 17,2 C 85 % 1016,9 hPa 0,0 l/m 15,8 km/h (3 Bft) W-SW 242 0 min 0,000 mm 1,1 UV-I 184 W/m 13,4 C 12,0 C 25,7 km/h (4 Bft) 97,37 %
28.09.2019 11:50 15,9 C 13,9 C 17,2 C 85 % 1016,9 hPa 0,0 l/m 14,0 km/h (3 Bft) W 277 0 min 0,000 mm 1,1 UV-I 163 W/m 13,4 C 12,6 C 20,9 km/h (4 Bft) 98,11 %
28.09.2019 11:52 15,9 C 13,9 C 17,2 C 85 % 1016,9 hPa 0,0 l/m 13,9 km/h (3 Bft) W-SW 246 0 min 0,000 mm 1,1 UV-I 178 W/m 13,4 C 12,6 C 22,5 km/h (4 Bft) 97,73 %
28.09.2019 11:54 15,9 C 13,9 C 17,8 C 85 % 1017,0 hPa 0,0 l/m 15,4 km/h (3 Bft) W-SW 242 0 min 0,000 mm 1,2 UV-I 218 W/m 13,4 C 12,2 C 22,5 km/h (4 Bft) 96,23 %
28.09.2019 11:56 15,9 C 13,9 C 17,8 C 85 % 1016,9 hPa 0,0 l/m 15,0 km/h (3 Bft) SW 234 0 min 0,000 mm 1,5 UV-I 256 W/m 13,4 C 12,3 C 22,5 km/h (4 Bft) 100,00 %
28.09.2019 11:58 15,9 C 13,9 C 18,9 C 85 % 1016,9 hPa 0,0 l/m 16,6 km/h (3 Bft) W-SW 241 0 min 0,000 mm 1,7 UV-I 291 W/m 13,4 C 11,8 C 27,4 km/h (4 Bft) 96,72 %
28.09.2019 12:00 16,1 C 13,9 C 19,4 C 85 % 1016,9 hPa 0,0 l/m 15,1 km/h (3 Bft) SW 232 0 min 0,000 mm 1,8 UV-I 322 W/m 13,6 C 12,5 C 25,7 km/h (4 Bft) 96,23 %
28.09.2019 12:02 16,1 C 13,9 C 19,4 C 85 % 1016,9 hPa 0,0 l/m 14,3 km/h (3 Bft) W-SW 239 0 min 0,127 mm 1,6 UV-I 278 W/m 13,6 C 12,7 C 20,9 km/h (4 Bft) 97,73 %
28.09.2019 12:04 16,2 C 13,9 C 19,4 C 84 % 1016,8 hPa 0,0 l/m 14,4 km/h (3 Bft) SW 215 0 min 0,000 mm 1,6 UV-I 275 W/m 13,5 C 12,8 C 25,7 km/h (4 Bft) 100,00 %
28.09.2019 12:06 16,3 C 13,9 C 20,0 C 85 % 1016,8 hPa 0,0 l/m 11,9 km/h (2 Bft) W 259 0 min 0,000 mm 1,8 UV-I 321 W/m 13,8 C 13,8 C 19,3 km/h (3 Bft) 100,00 %
28.09.2019 12:08 16,4 C 13,9 C 21,1 C 85 % 1016,9 hPa 0,0 l/m 9,8 km/h (2 Bft) SW 226 2 min 0,000 mm 2,0 UV-I 407 W/m 13,9 C 14,7 C 19,3 km/h (3 Bft) 100,00 %
28.09.2019 12:10 16,5 C 13,9 C 21,1 C 84 % 1016,9 hPa 0,0 l/m 16,0 km/h (3 Bft) W-NW 290 0 min 0,000 mm 1,7 UV-I 338 W/m 13,8 C 12,7 C 24,1 km/h (4 Bft) 96,00 %
28.09.2019 12:12 16,6 C 13,9 C 21,1 C 83 % 1016,9 hPa 0,0 l/m 17,2 km/h (3 Bft) S-SW 208 0 min 0,000 mm 1,7 UV-I 326 W/m 13,7 C 12,5 C 25,7 km/h (4 Bft) 100,00 %
28.09.2019 12:14 16,6 C 13,9 C 21,1 C 83 % 1016,9 hPa 0,0 l/m 13,0 km/h (3 Bft) SW 217 2 min 0,000 mm 1,9 UV-I 368 W/m 13,7 C 13,8 C 22,5 km/h (4 Bft) 100,00 %
28.09.2019 12:16 16,7 C 13,9 C 20,6 C 81 % 1016,8 hPa 0,0 l/m 21,3 km/h (4 Bft) W-SW 257 2 min 0,000 mm 2,1 UV-I 379 W/m 13,4 C 11,7 C 30,6 km/h (5 Bft) 100,00 %
28.09.2019 12:18 16,7 C 13,9 C 21,1 C 81 % 1016,9 hPa 0,0 l/m 15,1 km/h (3 Bft) W-SW 257 2 min 0,000 mm 2,2 UV-I 422 W/m 13,4 C 13,2 C 22,5 km/h (4 Bft) 100,00 %
28.09.2019 12:20 16,8 C 13,9 C 22,2 C 82 % 1016,8 hPa 0,0 l/m 17,4 km/h (3 Bft) SW 225 2 min 0,000 mm 2,6 UV-I 484 W/m 13,7 C 12,7 C 25,7 km/h (4 Bft) 100,00 %
28.09.2019 12:22 17,1 C 13,9 C 24,4 C 81 % 1016,8 hPa 0,0 l/m 20,2 km/h (4 Bft) SW 230 2 min 0,000 mm 3,1 UV-I 649 W/m 13,8 C 12,4 C 30,6 km/h (5 Bft) 100,00 %
28.09.2019 12:24 17,3 C 13,9 C 26,1 C 81 % 1016,8 hPa 0,0 l/m 14,4 km/h (3 Bft) W 259 2 min 0,000 mm 3,2 UV-I 786 W/m 14,0 C 14,2 C 19,3 km/h (3 Bft) 100,00 %
28.09.2019 12:26 17,6 C 13,9 C 26,7 C 80 % 1016,7 hPa 0,0 l/m 16,2 km/h (3 Bft) W 269 2 min 0,000 mm 3,0 UV-I 724 W/m 14,1 C 14,0 C 29,0 km/h (5 Bft) 100,00 %
28.09.2019 12:28 17,7 C 13,9 C 26,1 C 79 % 1016,7 hPa 0,0 l/m 16,2 km/h (3 Bft) W-SW 257 2 min 0,000 mm 2,8 UV-I 613 W/m 14,0 C 14,1 C 29,0 km/h (5 Bft) 100,00 %
28.09.2019 12:30 17,8 C 13,9 C 26,1 C 79 % 1016,7 hPa 0,0 l/m 17,9 km/h (3 Bft) W-SW 241 2 min 0,000 mm 2,6 UV-I 511 W/m 14,1 C 13,8 C 30,6 km/h (5 Bft) 100,00 %
28.09.2019 12:32 17,9 C 13,9 C 25,0 C 78 % 1016,7 hPa 0,0 l/m 15,6 km/h (3 Bft) W-SW 248 2 min 0,000 mm 2,4 UV-I 558 W/m 14,0 C 14,5 C 25,7 km/h (4 Bft) 100,00 %
28.09.2019 12:34 17,8 C 13,9 C 23,3 C 76 % 1016,8 hPa 0,0 l/m 18,4 km/h (3 Bft) W-SW 253 2 min 0,000 mm 2,2 UV-I 361 W/m 13,5 C 13,7 C 27,4 km/h (4 Bft) 100,00 %
28.09.2019 12:36 17,7 C 13,9 C 22,2 C 76 % 1016,7 hPa 0,0 l/m 24,1 km/h (4 Bft) W 279 2 min 0,000 mm 2,2 UV-I 365 W/m 13,4 C 12,4 C 37,0 km/h (5 Bft) 100,00 %
28.09.2019 12:38 17,6 C 13,9 C 22,2 C 76 % 1016,7 hPa 0,0 l/m 18,7 km/h (3 Bft) W-SW 254 2 min 0,000 mm 2,6 UV-I 431 W/m 13,3 C 13,4 C 29,0 km/h (5 Bft) 100,00 %
28.09.2019 12:40 17,5 C 13,9 C 22,2 C 76 % 1016,7 hPa 0,0 l/m 17,7 km/h (3 Bft) SW 219 2 min 0,000 mm 2,5 UV-I 442 W/m 13,2 C 13,5 C 27,4 km/h (4 Bft) 100,00 %
28.09.2019 12:42 17,5 C 13,9 C 21,7 C 76 % 1016,8 hPa 0,0 l/m 22,1 km/h (4 Bft) W-SW 246 2 min 0,000 mm 2,2 UV-I 354 W/m 13,2 C 12,5 C 33,8 km/h (5 Bft) 100,00 %
28.09.2019 12:44 17,5 C 13,9 C 21,1 C 76 % 1016,8 hPa 0,0 l/m 22,9 km/h (4 Bft) W 275 0 min 0,000 mm 2,2 UV-I 351 W/m 13,2 C 12,4 C 33,8 km/h (5 Bft) 100,00 %
28.09.2019 12:46 17,4 C 13,9 C 21,1 C 75 % 1016,7 hPa 0,0 l/m 16,8 km/h (3 Bft) W 281 0 min 0,000 mm 1,9 UV-I 344 W/m 12,9 C 13,6 C 25,7 km/h (4 Bft) 98,00 %
28.09.2019 12:48 17,4 C 13,9 C 21,7 C 76 % 1016,7 hPa 0,0 l/m 18,1 km/h (3 Bft) W-NW 282 0 min 0,000 mm 2,1 UV-I 314 W/m 13,1 C 13,3 C 25,7 km/h (4 Bft) 97,87 %
28.09.2019 12:50 17,6 C 13,9 C 22,2 C 76 % 1016,8 hPa 0,0 l/m 17,7 km/h (3 Bft) W-NW 290 2 min 0,000 mm 2,5 UV-I 445 W/m 13,3 C 13,6 C 25,7 km/h (4 Bft) 98,00 %
28.09.2019 12:52 17,8 C 13,9 C 24,4 C 77 % 1016,8 hPa 0,0 l/m 16,0 km/h (3 Bft) W-SW 240 2 min 0,000 mm 2,8 UV-I 628 W/m 13,7 C 14,3 C 27,4 km/h (4 Bft) 97,56 %
28.09.2019 12:54 18,1 C 13,9 C 25,6 C 75 % 1016,8 hPa 0,0 l/m 18,5 km/h (3 Bft) W-SW 252 2 min 0,000 mm 2,9 UV-I 685 W/m 13,6 C 14,1 C 25,7 km/h (4 Bft) 98,00 %
28.09.2019 12:56 18,2 C 13,9 C 23,9 C 74 % 1016,7 hPa 0,0 l/m 20,1 km/h (4 Bft) S-SW 211 2 min 0,000 mm 2,4 UV-I 565 W/m 13,5 C 13,9 C 29,0 km/h (5 Bft) 97,37 %
28.09.2019 12:58 18,1 C 13,9 C 22,8 C 73 % 1016,7 hPa 0,0 l/m 19,6 km/h (3 Bft) SW 233 2 min 0,000 mm 2,2 UV-I 386 W/m 13,2 C 13,8 C 32,2 km/h (5 Bft) 98,21 %
28.09.2019 13:00 18,0 C 13,9 C 22,8 C 73 % 1016,7 hPa 0,0 l/m 26,1 km/h (4 Bft) W-SW 240 2 min 0,305 mm 2,4 UV-I 372 W/m 13,1 C 12,5 C 43,5 km/h (6 Bft) 97,56 %
28.09.2019 13:02 17,9 C 13,9 C 22,2 C 73 % 1016,7 hPa 0,0 l/m 23,7 km/h (4 Bft) W-SW 250 2 min 0,000 mm 2,3 UV-I 374 W/m 13,0 C 12,8 C 40,2 km/h (6 Bft) 98,00 %
28.09.2019 13:04 17,9 C 13,9 C 21,1 C 73 % 1016,6 hPa 0,0 l/m 21,0 km/h (4 Bft) SW 223 2 min 0,000 mm 2,2 UV-I 404 W/m 13,0 C 13,3 C 33,8 km/h (5 Bft) 94,00 %
28.09.2019 13:06 17,8 C 13,9 C 21,7 C 73 % 1016,6 hPa 0,0 l/m 18,0 km/h (3 Bft) W-SW 258 0 min 0,000 mm 2,1 UV-I 251 W/m 12,9 C 13,8 C 27,4 km/h (4 Bft) 94,74 %
28.09.2019 13:08 17,8 C 13,9 C 22,8 C 73 % 1016,5 hPa 0,0 l/m 20,1 km/h (4 Bft) S-SW 209 2 min 0,000 mm 2,8 UV-I 483 W/m 12,9 C 13,3 C 33,8 km/h (5 Bft) 95,74 %
28.09.2019 13:10 17,9 C 13,9 C 22,8 C 73 % 1016,5 hPa 0,0 l/m 24,2 km/h (4 Bft) W-SW 241 0 min 0,000 mm 2,3 UV-I 318 W/m 13,0 C 12,7 C 37,0 km/h (5 Bft) 96,00 %
28.09.2019 13:12 17,9 C 13,9 C 22,8 C 74 % 1016,5 hPa 0,0 l/m 16,0 km/h (3 Bft) SW 226 0 min 0,000 mm 2,1 UV-I 304 W/m 13,2 C 14,4 C 24,1 km/h (4 Bft) 92,45 %
28.09.2019 13:14 17,9 C 13,9 C 22,2 C 73 % 1016,5 hPa 0,0 l/m 14,8 km/h (3 Bft) W-SW 258 0 min 0,000 mm 1,9 UV-I 287 W/m 13,0 C 14,8 C 25,7 km/h (4 Bft) 88,64 %
28.09.2019 13:16 17,9 C 13,9 C 21,7 C 73 % 1016,5 hPa 0,0 l/m 20,5 km/h (4 Bft) W-SW 254 0 min 0,000 mm 1,8 UV-I 309 W/m 13,0 C 13,4 C 29,0 km/h (5 Bft) 92,31 %
28.09.2019 13:18 17,9 C 13,9 C 21,1 C 73 % 1016,5 hPa 0,0 l/m 17,6 km/h (3 Bft) W-SW 251 0 min 0,000 mm 1,9 UV-I 335 W/m 13,0 C 14,0 C 33,8 km/h (5 Bft) 96,00 %
28.09.2019 13:20 17,9 C 13,9 C 21,1 C 72 % 1016,4 hPa 0,0 l/m 21,8 km/h (4 Bft) SW 219 0 min 0,000 mm 1,8 UV-I 349 W/m 12,8 C 13,1 C 27,4 km/h (4 Bft) 94,23 %
28.09.2019 13:22 17,8 C 13,9 C 20,0 C 71 % 1016,4 hPa 0,0 l/m 22,7 km/h (4 Bft) W 277 0 min 0,000 mm 1,6 UV-I 292 W/m 12,5 C 12,8 C 38,6 km/h (5 Bft) 93,75 %
28.09.2019 13:24 17,8 C 13,9 C 20,0 C 72 % 1016,4 hPa 0,0 l/m 18,8 km/h (3 Bft) W-SW 238 0 min 0,000 mm 1,2 UV-I 224 W/m 12,7 C 13,6 C 30,6 km/h (5 Bft) 93,62 %
28.09.2019 13:26 17,7 C 13,9 C 20,0 C 72 % 1016,4 hPa 0,0 l/m 23,3 km/h (4 Bft) W-SW 244 0 min 0,000 mm 1,3 UV-I 214 W/m 12,6 C 12,6 C 35,4 km/h (5 Bft) 94,74 %
28.09.2019 13:28 17,7 C 13,9 C 19,4 C 71 % 1016,6 hPa 0,0 l/m 25,5 km/h (4 Bft) W-SW 251 0 min 0,000 mm 1,3 UV-I 233 W/m 12,4 C 12,2 C 35,4 km/h (5 Bft) 95,45 %
28.09.2019 13:30 17,6 C 13,9 C 19,4 C 72 % 1016,5 hPa 0,0 l/m 22,8 km/h (4 Bft) SW 225 0 min 0,000 mm 1,2 UV-I 221 W/m 12,5 C 12,5 C 33,8 km/h (5 Bft) 98,21 %
28.09.2019 13:32 17,6 C 13,9 C 19,4 C 71 % 1016,5 hPa 0,0 l/m 19,1 km/h (3 Bft) SW 223 0 min 0,000 mm 1,1 UV-I 212 W/m 12,3 C 13,3 C 27,4 km/h (4 Bft) 97,87 %
28.09.2019 13:34 17,5 C 13,9 C 18,9 C 71 % 1016,5 hPa 0,0 l/m 20,6 km/h (4 Bft) W 276 0 min 0,000 mm 1,1 UV-I 212 W/m 12,2 C 12,8 C 27,4 km/h (4 Bft) 97,56 %
28.09.2019 13:36 17,4 C 13,9 C 18,9 C 71 % 1016,4 hPa 0,0 l/m 18,4 km/h (3 Bft) SW 225 0 min 0,000 mm 1,1 UV-I 203 W/m 12,1 C 13,2 C 30,6 km/h (5 Bft) 97,87 %
28.09.2019 13:38 17,4 C 13,9 C 18,9 C 72 % 1016,4 hPa 0,0 l/m 20,5 km/h (4 Bft) W-SW 250 0 min 0,000 mm 1,1 UV-I 206 W/m 12,3 C 12,7 C 35,4 km/h (5 Bft) 97,87 %
28.09.2019 13:40 17,4 C 13,9 C 19,4 C 72 % 1016,5 hPa 0,0 l/m 21,2 km/h (4 Bft) W-SW 238 0 min 0,000 mm 1,4 UV-I 244 W/m 12,3 C 12,6 C 30,6 km/h (5 Bft) 98,21 %
28.09.2019 13:42 17,5 C 13,9 C 20,0 C 72 % 1016,4 hPa 0,0 l/m 19,8 km/h (3 Bft) W-SW 252 0 min 0,000 mm 1,6 UV-I 281 W/m 12,4 C 13,0 C 27,4 km/h (4 Bft) 97,37 %
28.09.2019 13:44 17,6 C 13,9 C 20,0 C 71 % 1016,4 hPa 0,0 l/m 17,5 km/h (3 Bft) S-SW 213 0 min 0,000 mm 1,7 UV-I 304 W/m 12,3 C 13,7 C 27,4 km/h (4 Bft) 96,23 %
28.09.2019 13:46 17,7 C 13,9 C 21,1 C 72 % 1016,4 hPa 0,0 l/m 13,5 km/h (3 Bft) SW 234 0 min 0,000 mm 2,0 UV-I 328 W/m 12,6 C 14,9 C 20,9 km/h (4 Bft) 97,56 %
28.09.2019 13:48 17,8 C 13,9 C 21,7 C 71 % 1016,4 hPa 0,0 l/m 18,2 km/h (3 Bft) W 263 2 min 0,000 mm 2,2 UV-I 443 W/m 12,5 C 13,8 C 27,4 km/h (4 Bft) 98,00 %
28.09.2019 13:50 17,9 C 13,9 C 21,1 C 69 % 1016,4 hPa 0,0 l/m 20,2 km/h (4 Bft) SW 232 2 min 0,000 mm 1,7 UV-I 395 W/m 12,1 C 13,5 C 32,2 km/h (5 Bft) 97,44 %
28.09.2019 13:52 17,9 C 13,9 C 21,1 C 70 % 1016,4 hPa 0,0 l/m 22,0 km/h (4 Bft) SW 220 0 min 0,000 mm 1,5 UV-I 284 W/m 12,3 C 13,1 C 30,6 km/h (5 Bft) 98,18 %
28.09.2019 13:54 17,9 C 13,9 C 20,6 C 70 % 1016,4 hPa 0,0 l/m 21,9 km/h (4 Bft) W-SW 254 0 min 0,000 mm 1,7 UV-I 288 W/m 12,3 C 13,1 C 35,4 km/h (5 Bft) 98,00 %
28.09.2019 13:56 17,8 C 13,9 C 20,6 C 71 % 1016,4 hPa 0,0 l/m 15,8 km/h (3 Bft) W 265 0 min 0,000 mm 1,7 UV-I 277 W/m 12,5 C 14,4 C 20,9 km/h (4 Bft) 97,44 %
28.09.2019 13:58 17,9 C 13,9 C 20,6 C 71 % 1016,4 hPa 0,0 l/m 14,6 km/h (3 Bft) W 268 0 min 0,000 mm 1,6 UV-I 231 W/m 12,6 C 14,8 C 24,1 km/h (4 Bft) 98,11 %
28.09.2019 14:00 17,8 C 13,9 C 20,0 C 70 % 1016,3 hPa 0,0 l/m 19,0 km/h (3 Bft) SW 223 0 min 0,228 mm 1,7 UV-I 223 W/m 12,3 C 13,6 C 25,7 km/h (4 Bft) 97,87 %
28.09.2019 14:02 17,8 C 13,9 C 20,0 C 70 % 1016,3 hPa 0,0 l/m 15,3 km/h (3 Bft) W-SW 249 0 min 0,000 mm 1,8 UV-I 245 W/m 12,3 C 14,5 C 30,6 km/h (5 Bft) 98,00 %
28.09.2019 14:04 17,8 C 13,9 C 19,4 C 70 % 1016,3 hPa 0,0 l/m 17,9 km/h (3 Bft) W-NW 282 0 min 0,000 mm 1,7 UV-I 201 W/m 12,3 C 13,8 C 27,4 km/h (4 Bft) 94,74 %
28.09.2019 14:06 17,7 C 13,9 C 18,9 C 71 % 1016,3 hPa 0,0 l/m 22,1 km/h (4 Bft) W 271 0 min 0,000 mm 1,7 UV-I 174 W/m 12,4 C 12,8 C 41,8 km/h (6 Bft) 98,00 %
28.09.2019 14:08 17,7 C 13,9 C 18,9 C 68 % 1016,3 hPa 0,0 l/m 21,2 km/h (4 Bft) SW 227 0 min 0,000 mm 1,7 UV-I 183 W/m 11,7 C 13,0 C 35,4 km/h (5 Bft) 95,74 %
28.09.2019 14:10 17,6 C 13,9 C 18,9 C 67 % 1016,3 hPa 0,0 l/m 21,9 km/h (4 Bft) SW 223 0 min 0,000 mm 1,8 UV-I 201 W/m 11,4 C 12,7 C 40,2 km/h (6 Bft) 97,87 %
28.09.2019 14:12 17,6 C 13,9 C 18,9 C 66 % 1016,3 hPa 0,0 l/m 25,2 km/h (4 Bft) SW 219 0 min 0,000 mm 1,9 UV-I 228 W/m 11,2 C 12,1 C 38,6 km/h (5 Bft) 98,11 %
28.09.2019 14:14 17,6 C 13,9 C 18,9 C 66 % 1016,3 hPa 0,0 l/m 26,5 km/h (4 Bft) SW 233 0 min 0,000 mm 2,2 UV-I 291 W/m 11,2 C 11,9 C 45,1 km/h (6 Bft) 97,56 %
28.09.2019 14:16 17,7 C 13,9 C 19,4 C 66 % 1016,4 hPa 0,0 l/m 20,4 km/h (4 Bft) SW 231 2 min 0,000 mm 2,3 UV-I 331 W/m 11,3 C 13,1 C 33,8 km/h (5 Bft) 95,45 %
28.09.2019 14:18 18,0 C 13,9 C 20,6 C 67 % 1016,4 hPa 0,0 l/m 18,2 km/h (3 Bft) SW 225 2 min 0,000 mm 2,6 UV-I 626 W/m 11,8 C 14,0 C 27,4 km/h (4 Bft) 97,73 %
28.09.2019 14:20 18,3 C 13,9 C 21,1 C 65 % 1016,3 hPa 0,0 l/m 21,8 km/h (4 Bft) W-SW 240 2 min 0,000 mm 2,3 UV-I 566 W/m 11,6 C 13,7 C 35,4 km/h (5 Bft) 98,21 %
28.09.2019 14:22 18,4 C 13,9 C 20,6 C 63 % 1016,3 hPa 0,0 l/m 26,3 km/h (4 Bft) W 264 2 min 0,000 mm 2,0 UV-I 442 W/m 11,2 C 13,0 C 35,4 km/h (5 Bft) 95,74 %
28.09.2019 14:24 18,4 C 13,9 C 20,6 C 63 % 1016,3 hPa 0,0 l/m 25,3 km/h (4 Bft) W-SW 243 2 min 0,000 mm 2,0 UV-I 326 W/m 11,2 C 13,2 C 37,0 km/h (5 Bft) 97,56 %
28.09.2019 14:26 18,4 C 13,9 C 20,6 C 62 % 1016,4 hPa 0,0 l/m 23,4 km/h (4 Bft) SW 226 0 min 0,000 mm 1,9 UV-I 278 W/m 11,0 C 13,5 C 38,6 km/h (5 Bft) 97,87 %
28.09.2019 14:28 18,3 C 13,9 C 20,0 C 63 % 1016,3 hPa 0,0 l/m 16,3 km/h (3 Bft) W-SW 246 0 min 0,000 mm 1,6 UV-I 224 W/m 11,1 C 14,9 C 27,4 km/h (4 Bft) 98,00 %
28.09.2019 14:30 18,2 C 13,9 C 20,0 C 63 % 1016,4 hPa 0,0 l/m 25,5 km/h (4 Bft) W-SW 242 0 min 0,000 mm 1,4 UV-I 203 W/m 11,0 C 12,9 C 40,2 km/h (6 Bft) 97,44 %
28.09.2019 14:32 18,1 C 13,9 C 19,4 C 62 % 1016,3 hPa 0,0 l/m 23,5 km/h (4 Bft) W-SW 257 0 min 0,000 mm 1,4 UV-I 191 W/m 10,7 C 13,1 C 40,2 km/h (6 Bft) 98,08 %
28.09.2019 14:34 18,1 C 13,9 C 19,4 C 63 % 1016,5 hPa 0,0 l/m 18,8 km/h (3 Bft) W-SW 252 0 min 0,000 mm 1,5 UV-I 190 W/m 10,9 C 14,0 C 27,4 km/h (4 Bft) 95,83 %
28.09.2019 14:36 18,0 C 13,9 C 19,4 C 64 % 1016,3 hPa 0,0 l/m 19,6 km/h (3 Bft) W-SW 257 0 min 0,000 mm 1,8 UV-I 248 W/m 11,1 C 13,7 C 25,7 km/h (4 Bft) 97,87 %
28.09.2019 14:38 18,1 C 13,9 C 19,4 C 65 % 1016,2 hPa 0,0 l/m 15,9 km/h (3 Bft) SW 230 2 min 0,000 mm 1,9 UV-I 366 W/m 11,4 C 14,7 C 24,1 km/h (4 Bft) 95,74 %
28.09.2019 14:40 18,2 C 13,9 C 20,0 C 65 % 1016,2 hPa 0,0 l/m 13,4 km/h (3 Bft) SW 227 0 min 0,000 mm 1,8 UV-I 298 W/m 11,5 C 15,5 C 22,5 km/h (4 Bft) 95,74 %
28.09.2019 14:42 18,2 C 13,9 C 20,0 C 65 % 1016,3 hPa 0,0 l/m 15,0 km/h (3 Bft) W-SW 251 0 min 0,000 mm 1,5 UV-I 204 W/m 11,5 C 15,1 C 24,1 km/h (4 Bft) 94,00 %
28.09.2019 14:44 18,3 C 13,9 C 20,0 C 65 % 1016,2 hPa 0,0 l/m 13,0 km/h (3 Bft) W-SW 257 0 min 0,000 mm 1,4 UV-I 207 W/m 11,6 C 15,8 C 24,1 km/h (4 Bft) 95,12 %
28.09.2019 14:46 18,3 C 13,9 C 20,0 C 64 % 1016,2 hPa 0,0 l/m 18,0 km/h (3 Bft) W-SW 250 0 min 0,000 mm 1,3 UV-I 210 W/m 11,4 C 14,4 C 27,4 km/h (4 Bft) 96,00 %
28.09.2019 14:48 18,3 C 13,9 C 20,0 C 63 % 1016,2 hPa 0,0 l/m 15,1 km/h (3 Bft) SW 235 0 min 0,000 mm 1,1 UV-I 186 W/m 11,1 C 15,2 C 22,5 km/h (4 Bft) 94,00 %
28.09.2019 14:50 18,3 C 13,9 C 20,0 C 63 % 1016,2 hPa 0,0 l/m 15,2 km/h (3 Bft) W-SW 245 0 min 0,000 mm 1,0 UV-I 175 W/m 11,1 C 15,1 C 22,5 km/h (4 Bft) 95,65 %
28.09.2019 14:52 18,3 C 13,9 C 20,0 C 63 % 1016,3 hPa 0,0 l/m 13,2 km/h (3 Bft) SW 223 0 min 0,000 mm 0,9 UV-I 168 W/m 11,1 C 15,7 C 24,1 km/h (4 Bft) 93,85 %
28.09.2019 14:54 18,3 C 13,9 C 19,4 C 62 % 1016,3 hPa 0,0 l/m 18,9 km/h (3 Bft) W-SW 250 0 min 0,000 mm 0,8 UV-I 156 W/m 10,9 C 14,2 C 27,4 km/h (4 Bft) 95,12 %
28.09.2019 14:56 18,2 C 13,9 C 19,4 C 63 % 1016,3 hPa 0,0 l/m 12,6 km/h (3 Bft) W-SW 256 0 min 0,000 mm 0,8 UV-I 150 W/m 11,0 C 15,8 C 19,3 km/h (3 Bft) 96,00 %
28.09.2019 14:58 18,2 C 13,9 C 19,4 C 62 % 1016,3 hPa 0,0 l/m 18,7 km/h (3 Bft) S-SW 194 0 min 0,000 mm 0,8 UV-I 150 W/m 10,8 C 14,2 C 32,2 km/h (5 Bft) 98,00 %
28.09.2019 15:00 18,2 C 13,9 C 19,4 C 62 % 1016,2 hPa 0,0 l/m 19,2 km/h (3 Bft) W 266 0 min 0,229 mm 0,8 UV-I 137 W/m 10,8 C 14,1 C 35,4 km/h (5 Bft) 98,00 %
28.09.2019 15:02 18,1 C 13,9 C 18,9 C 62 % 1016,3 hPa 0,0 l/m 23,9 km/h (4 Bft) SW 229 0 min 0,000 mm 0,7 UV-I 120 W/m 10,7 C 13,0 C 33,8 km/h (5 Bft) 97,37 %
28.09.2019 15:04 18,1 C 13,9 C 18,9 C 63 % 1016,3 hPa 0,0 l/m 18,2 km/h (3 Bft) W-SW 248 0 min 0,000 mm 0,7 UV-I 135 W/m 10,9 C 14,1 C 25,7 km/h (4 Bft) 96,43 %
28.09.2019 15:06 18,0 C 13,9 C 18,9 C 62 % 1016,3 hPa 0,0 l/m 18,9 km/h (3 Bft) W-SW 254 0 min 0,000 mm 0,7 UV-I 124 W/m 10,6 C 13,9 C 24,1 km/h (4 Bft) 96,00 %
28.09.2019 15:08 18,0 C 13,9 C 18,9 C 63 % 1016,3 hPa 0,0 l/m 18,7 km/h (3 Bft) W-SW 248 0 min 0,000 mm 0,6 UV-I 113 W/m 10,8 C 13,9 C 27,4 km/h (4 Bft) 100,00 %
28.09.2019 15:10 17,9 C 13,9 C 18,9 C 62 % 1016,4 hPa 0,0 l/m 20,9 km/h (4 Bft) W-SW 252 0 min 0,000 mm 0,6 UV-I 119 W/m 10,5 C 13,3 C 37,0 km/h (5 Bft) 96,55 %
28.09.2019 15:12 17,9 C 13,9 C 18,9 C 63 % 1016,4 hPa 0,0 l/m 16,9 km/h (3 Bft) W-SW 246 0 min 0,000 mm 0,6 UV-I 113 W/m 10,8 C 14,2 C 25,7 km/h (4 Bft) 100,00 %
28.09.2019 15:14 17,8 C 13,9 C 18,9 C 64 % 1016,3 hPa 0,0 l/m 15,5 km/h (3 Bft) W-SW 238 0 min 0,000 mm 0,6 UV-I 115 W/m 10,9 C 14,4 C 24,1 km/h (4 Bft) 100,00 %
28.09.2019 15:16 17,8 C 13,9 C 18,9 C 64 % 1016,3 hPa 0,0 l/m 16,5 km/h (3 Bft) W-SW 237 0 min 0,000 mm 0,6 UV-I 116 W/m 10,9 C 14,2 C 24,1 km/h (4 Bft) 100,00 %
28.09.2019 15:18 17,8 C 13,9 C 18,9 C 64 % 1016,3 hPa 0,0 l/m 16,8 km/h (3 Bft) W-SW 240 0 min 0,000 mm 0,6 UV-I 120 W/m 10,9 C 14,1 C 24,1 km/h (4 Bft) 98,21 %
28.09.2019 15:20 17,8 C 13,9 C 18,9 C 64 % 1016,3 hPa 0,0 l/m 18,3 km/h (3 Bft) SW 229 0 min 0,000 mm 0,6 UV-I 118 W/m 10,9 C 13,7 C 22,5 km/h (4 Bft) 100,00 %
28.09.2019 15:22 17,8 C 13,9 C 18,3 C 64 % 1016,3 hPa 0,0 l/m 18,0 km/h (3 Bft) SW 230 0 min 0,000 mm 0,6 UV-I 105 W/m 10,9 C 13,8 C 25,7 km/h (4 Bft) 100,00 %
28.09.2019 15:24 17,7 C 13,9 C 18,3 C 64 % 1016,3 hPa 0,0 l/m 20,5 km/h (4 Bft) SW 225 0 min 0,000 mm 0,5 UV-I 103 W/m 10,8 C 13,1 C 32,2 km/h (5 Bft) 100,00 %
28.09.2019 15:26 17,8 C 13,9 C 18,3 C 64 % 1016,3 hPa 0,0 l/m 19,7 km/h (3 Bft) SW 235 0 min 0,000 mm 0,5 UV-I 96 W/m 10,9 C 13,4 C 27,4 km/h (4 Bft) 100,00 %
28.09.2019 15:28 17,7 C 13,9 C 18,3 C 64 % 1016,3 hPa 0,0 l/m 14,8 km/h (3 Bft) W-SW 256 0 min 0,000 mm 0,0 UV-I 89 W/m 10,8 C 14,5 C 19,3 km/h (3 Bft) 97,87 %
28.09.2019 15:30 17,7 C 13,9 C 18,3 C 65 % 1016,3 hPa 0,0 l/m 11,8 km/h (2 Bft) W-SW 244 0 min 0,000 mm 0,0 UV-I 89 W/m 11,0 C 15,4 C 19,3 km/h (3 Bft) 100,00 %
28.09.2019 15:32 17,7 C 13,9 C 18,3 C 66 % 1016,3 hPa 0,0 l/m 12,1 km/h (2 Bft) W-SW 238 0 min 0,000 mm 0,0 UV-I 92 W/m 11,3 C 15,3 C 17,7 km/h (3 Bft) 95,74 %
28.09.2019 15:34 17,7 C 13,9 C 18,3 C 66 % 1016,2 hPa 0,0 l/m 11,0 km/h (2 Bft) W 260 0 min 0,000 mm 0,0 UV-I 90 W/m 11,3 C 15,7 C 24,1 km/h (4 Bft) 100,00 %
28.09.2019 15:36 17,7 C 13,9 C 18,3 C 66 % 1016,2 hPa 0,0 l/m 15,2 km/h (3 Bft) SW 234 0 min 0,000 mm 0,0 UV-I 88 W/m 11,3 C 14,4 C 20,9 km/h (4 Bft) 100,00 %
28.09.2019 15:38 17,7 C 13,9 C 18,3 C 65 % 1016,2 hPa 0,0 l/m 18,0 km/h (3 Bft) W-SW 243 0 min 0,000 mm 0,0 UV-I 90 W/m 11,0 C 13,7 C 25,7 km/h (4 Bft) 100,00 %
28.09.2019 15:40 17,7 C 13,9 C 18,3 C 65 % 1016,2 hPa 0,0 l/m 17,2 km/h (3 Bft) W-SW 242 0 min 0,000 mm 0,1 UV-I 100 W/m 11,0 C 13,9 C 22,5 km/h (4 Bft) 97,87 %
28.09.2019 15:42 17,7 C 13,9 C 18,3 C 65 % 1016,3 hPa 0,0 l/m 16,3 km/h (3 Bft) W-NW 288 0 min 0,000 mm 0,5 UV-I 110 W/m 11,0 C 14,1 C 25,7 km/h (4 Bft) 100,00 %
28.09.2019 15:44 17,7 C 13,9 C 18,9 C 65 % 1016,2 hPa 0,0 l/m 11,1 km/h (2 Bft) W-SW 240 0 min 0,000 mm 0,6 UV-I 136 W/m 11,0 C 15,7 C 20,9 km/h (4 Bft) 100,00 %
28.09.2019 15:46 17,7 C 13,9 C 18,9 C 65 % 1016,2 hPa 0,0 l/m 11,0 km/h (2 Bft) W-SW 246 0 min 0,000 mm 0,6 UV-I 150 W/m 11,0 C 15,7 C 16,1 km/h (3 Bft) 97,62 %
28.09.2019 15:48 17,7 C 13,9 C 18,9 C 65 % 1016,3 hPa 0,0 l/m 11,9 km/h (2 Bft) W 278 0 min 0,000 mm 0,7 UV-I 164 W/m 11,0 C 15,4 C 19,3 km/h (3 Bft) 100,00 %
28.09.2019 15:50 17,8 C 13,9 C 19,4 C 66 % 1016,3 hPa 0,0 l/m 9,9 km/h (2 Bft) W-SW 255 0 min 0,000 mm 0,8 UV-I 189 W/m 11,4 C 16,2 C 16,1 km/h (3 Bft) 97,44 %
28.09.2019 15:52 17,8 C 13,9 C 19,4 C 66 % 1016,3 hPa 0,0 l/m 10,7 km/h (2 Bft) W 261 0 min 0,000 mm 0,8 UV-I 184 W/m 11,4 C 15,9 C 17,7 km/h (3 Bft) 100,00 %
28.09.2019 15:54 17,8 C 13,9 C 20,0 C 67 % 1016,3 hPa 0,0 l/m 9,2 km/h (2 Bft) W 271 0 min 0,000 mm 0,7 UV-I 172 W/m 11,6 C 16,5 C 12,9 km/h (3 Bft) 100,00 %
28.09.2019 15:56 17,9 C 13,9 C 20,0 C 67 % 1016,3 hPa 0,0 l/m 9,1 km/h (2 Bft) W-SW 245 0 min 0,000 mm 0,7 UV-I 162 W/m 11,7 C 16,7 C 14,5 km/h (3 Bft) 100,00 %
28.09.2019 15:58 17,9 C 13,9 C 19,4 C 66 % 1016,3 hPa 0,0 l/m 14,8 km/h (3 Bft) W 278 0 min 0,000 mm 0,7 UV-I 155 W/m 11,5 C 14,8 C 20,9 km/h (4 Bft) 100,00 %
28.09.2019 16:00 17,9 C 13,9 C 19,4 C 66 % 1016,3 hPa 0,0 l/m 12,8 km/h (3 Bft) SW 231 0 min 0,152 mm 0,6 UV-I 149 W/m 11,5 C 15,4 C 19,3 km/h (3 Bft) 100,00 %
28.09.2019 16:02 17,9 C 13,9 C 18,9 C 65 % 1016,2 hPa 0,0 l/m 17,6 km/h (3 Bft) W 266 0 min 0,000 mm 0,5 UV-I 135 W/m 11,2 C 14,0 C 25,7 km/h (4 Bft) 98,00 %
28.09.2019 16:04 17,8 C 13,9 C 18,9 C 65 % 1016,3 hPa 0,0 l/m 15,9 km/h (3 Bft) W 267 0 min 0,000 mm 0,5 UV-I 129 W/m 11,1 C 14,3 C 22,5 km/h (4 Bft) 100,00 %
28.09.2019 16:06 17,8 C 13,9 C 18,9 C 65 % 1016,3 hPa 0,0 l/m 13,0 km/h (3 Bft) W 261 0 min 0,000 mm 0,5 UV-I 125 W/m 11,1 C 15,2 C 20,9 km/h (4 Bft) 94,34 %
28.09.2019 16:08 17,7 C 13,9 C 18,9 C 66 % 1016,3 hPa 0,0 l/m 13,8 km/h (3 Bft) W-SW 246 0 min 0,000 mm 0,0 UV-I 102 W/m 11,3 C 14,8 C 19,3 km/h (3 Bft) 98,00 %
28.09.2019 16:10 17,7 C 13,9 C 18,3 C 66 % 1016,2 hPa 0,0 l/m 15,2 km/h (3 Bft) W-SW 250 0 min 0,000 mm 0,0 UV-I 85 W/m 11,3 C 14,4 C 22,5 km/h (4 Bft) 97,73 %
28.09.2019 16:12 17,6 C 13,9 C 18,3 C 66 % 1016,2 hPa 0,0 l/m 14,9 km/h (3 Bft) W 267 0 min 0,000 mm 0,0 UV-I 83 W/m 11,2 C 14,4 C 22,5 km/h (4 Bft) 97,37 %
28.09.2019 16:14 17,6 C 13,9 C 18,3 C 66 % 1016,3 hPa 0,0 l/m 15,3 km/h (3 Bft) W-SW 250 0 min 0,000 mm 0,0 UV-I 96 W/m 11,2 C 14,3 C 19,3 km/h (3 Bft) 96,43 %
28.09.2019 16:16 17,5 C 13,9 C 18,3 C 67 % 1016,3 hPa 0,0 l/m 11,3 km/h (2 Bft) W-SW 238 0 min 0,000 mm 0,0 UV-I 112 W/m 11,3 C 15,4 C 16,1 km/h (3 Bft) 93,18 %
28.09.2019 16:18 17,5 C 13,9 C 18,3 C 67 % 1016,3 hPa 0,0 l/m 15,8 km/h (3 Bft) W-SW 252 0 min 0,000 mm 0,0 UV-I 120 W/m 11,3 C 14,0 C 22,5 km/h (4 Bft) 96,00 %
28.09.2019 16:20 17,4 C 13,9 C 18,3 C 67 % 1016,3 hPa 0,0 l/m 14,3 km/h (3 Bft) W-SW 239 0 min 0,000 mm 0,0 UV-I 122 W/m 11,2 C 14,3 C 20,9 km/h (4 Bft) 97,14 %
28.09.2019 16:22 17,4 C 13,9 C 18,3 C 67 % 1016,3 hPa 0,0 l/m 12,4 km/h (3 Bft) SW 236 0 min 0,000 mm 0,0 UV-I 118 W/m 11,2 C 14,9 C 17,7 km/h (3 Bft) 96,77 %
28.09.2019 16:24 17,4 C 13,9 C 18,3 C 67 % 1016,3 hPa 0,0 l/m 10,6 km/h (2 Bft) W-SW 247 0 min 0,000 mm 0,0 UV-I 112 W/m 11,2 C 15,5 C 17,7 km/h (3 Bft) 97,56 %
28.09.2019 16:26 17,4 C 13,9 C 18,3 C 68 % 1016,3 hPa 0,0 l/m 12,5 km/h (3 Bft) SW 234 0 min 0,000 mm 0,0 UV-I 104 W/m 11,4 C 14,9 C 20,9 km/h (4 Bft) 98,00 %
28.09.2019 16:28 17,4 C 13,9 C 18,3 C 67 % 1016,3 hPa 0,0 l/m 10,4 km/h (2 Bft) SW 236 0 min 0,000 mm 0,0 UV-I 98 W/m 11,2 C 15,6 C 17,7 km/h (3 Bft) 97,92 %
28.09.2019 16:30 17,4 C 13,9 C 18,3 C 68 % 1016,3 hPa 0,0 l/m 10,1 km/h (2 Bft) S-SW 213 0 min 0,000 mm 0,0 UV-I 104 W/m 11,4 C 15,7 C 17,7 km/h (3 Bft) 97,37 %
28.09.2019 16:32 17,4 C 13,9 C 18,9 C 68 % 1016,3 hPa 0,0 l/m 6,9 km/h (2 Bft) W-SW 242 0 min 0,000 mm 0,0 UV-I 120 W/m 11,4 C 17,2 C 9,7 km/h (2 Bft) 98,21 %
28.09.2019 16:34 17,4 C 13,9 C 18,9 C 67 % 1016,4 hPa 0,0 l/m 10,3 km/h (2 Bft) W-SW 240 0 min 0,000 mm 0,0 UV-I 128 W/m 11,2 C 15,7 C 17,7 km/h (3 Bft) 97,37 %
28.09.2019 16:36 17,4 C 13,9 C 18,9 C 68 % 1016,4 hPa 0,0 l/m 10,6 km/h (2 Bft) W-SW 244 0 min 0,000 mm 0,0 UV-I 126 W/m 11,4 C 15,5 C 17,7 km/h (3 Bft) 93,62 %
28.09.2019 16:38 17,4 C 13,9 C 18,9 C 68 % 1016,4 hPa 0,0 l/m 8,0 km/h (2 Bft) W-SW 242 0 min 0,000 mm 0,0 UV-I 135 W/m 11,4 C 16,6 C 12,9 km/h (3 Bft) 98,11 %
28.09.2019 16:40 17,5 C 13,9 C 18,9 C 68 % 1016,4 hPa 0,0 l/m 9,5 km/h (2 Bft) W-SW 238 0 min 0,000 mm 0,0 UV-I 136 W/m 11,5 C 16,1 C 16,1 km/h (3 Bft) 97,87 %
28.09.2019 16:42 17,6 C 13,9 C 18,9 C 67 % 1016,3 hPa 0,0 l/m 10,2 km/h (2 Bft) W-SW 252 0 min 0,000 mm 0,0 UV-I 129 W/m 11,4 C 15,9 C 16,1 km/h (3 Bft) 96,00 %
28.09.2019 16:44 17,6 C 13,9 C 18,9 C 67 % 1016,4 hPa 0,0 l/m 10,5 km/h (2 Bft) S-SW 206 0 min 0,000 mm 0,0 UV-I 123 W/m 11,4 C 15,8 C 16,1 km/h (3 Bft) 97,87 %
28.09.2019 16:46 17,6 C 13,9 C 18,9 C 67 % 1016,4 hPa 0,0 l/m 10,2 km/h (2 Bft) W-SW 240 0 min 0,000 mm 0,0 UV-I 108 W/m 11,4 C 15,9 C 14,5 km/h (3 Bft) 97,37 %
28.09.2019 16:48 17,5 C 13,9 C 18,9 C 68 % 1016,3 hPa 0,0 l/m 9,3 km/h (2 Bft) SW 224 0 min 0,000 mm 0,0 UV-I 106 W/m 11,5 C 16,2 C 12,9 km/h (3 Bft) 97,87 %
28.09.2019 16:50 17,5 C 13,9 C 18,9 C 67 % 1016,3 hPa 0,0 l/m 5,5 km/h (1 Bft) S-SW 213 0 min 0,000 mm 0,0 UV-I 111 W/m 11,3 C 17,5 C 9,7 km/h (2 Bft) 96,23 %
28.09.2019 16:52 17,5 C 13,9 C 18,9 C 67 % 1016,3 hPa 0,0 l/m 8,2 km/h (2 Bft) SW 226 0 min 0,000 mm 0,0 UV-I 112 W/m 11,3 C 16,6 C 12,9 km/h (3 Bft) 94,00 %
28.09.2019 16:54 17,5 C 13,9 C 18,9 C 67 % 1016,2 hPa 0,0 l/m 10,6 km/h (2 Bft) S-SW 209 0 min 0,000 mm 0,0 UV-I 110 W/m 11,3 C 15,6 C 16,1 km/h (3 Bft) 97,87 %
28.09.2019 16:56 17,5 C 13,9 C 18,9 C 67 % 1016,2 hPa 0,0 l/m 7,7 km/h (2 Bft) W-SW 242 0 min 0,000 mm 0,0 UV-I 101 W/m 11,3 C 16,9 C 16,1 km/h (3 Bft) 97,87 %
28.09.2019 16:58 17,4 C 13,9 C 18,9 C 67 % 1016,2 hPa 0,0 l/m 11,1 km/h (2 Bft) SW 235 0 min 0,000 mm 0,0 UV-I 100 W/m 11,2 C 15,4 C 19,3 km/h (3 Bft) 97,56 %
28.09.2019 17:00 17,4 C 13,9 C 18,9 C 67 % 1016,2 hPa 0,0 l/m 11,1 km/h (2 Bft) W-SW 238 0 min 0,127 mm 0,0 UV-I 105 W/m 11,2 C 15,4 C 17,7 km/h (3 Bft) 97,62 %
28.09.2019 17:02 17,4 C 13,9 C 18,9 C 67 % 1016,2 hPa 0,0 l/m 8,5 km/h (2 Bft) SW 223 0 min 0,000 mm 0,0 UV-I 103 W/m 11,2 C 16,4 C 12,9 km/h (3 Bft) 98,00 %
28.09.2019 17:04 17,4 C 13,9 C 18,3 C 66 % 1016,2 hPa 0,0 l/m 8,6 km/h (2 Bft) W-SW 247 0 min 0,000 mm 0,0 UV-I 94 W/m 11,0 C 16,4 C 17,7 km/h (3 Bft) 97,56 %
28.09.2019 17:06 17,4 C 13,9 C 18,3 C 67 % 1016,3 hPa 0,0 l/m 10,7 km/h (2 Bft) SW 229 0 min 0,000 mm 0,0 UV-I 98 W/m 11,2 C 15,5 C 17,7 km/h (3 Bft) 100,00 %
28.09.2019 17:08 17,4 C 13,9 C 18,3 C 67 % 1016,3 hPa 0,0 l/m 11,6 km/h (2 Bft) SW 221 0 min 0,000 mm 0,0 UV-I 110 W/m 11,2 C 15,2 C 20,9 km/h (4 Bft) 100,00 %
28.09.2019 17:10 17,4 C 13,9 C 18,3 C 67 % 1016,3 hPa 0,0 l/m 12,1 km/h (2 Bft) SW 225 0 min 0,000 mm 0,0 UV-I 115 W/m 11,2 C 15,0 C 19,3 km/h (3 Bft) 100,00 %
28.09.2019 17:12 17,4 C 13,9 C 18,3 C 67 % 1016,3 hPa 0,0 l/m 13,2 km/h (3 Bft) SW 218 0 min 0,000 mm 0,0 UV-I 92 W/m 11,2 C 14,6 C 17,7 km/h (3 Bft) 97,73 %
28.09.2019 17:14 17,4 C 13,9 C 17,8 C 67 % 1016,3 hPa 0,0 l/m 11,7 km/h (2 Bft) SW 227 0 min 0,000 mm 0,0 UV-I 76 W/m 11,2 C 15,1 C 17,7 km/h (3 Bft) 100,00 %
28.09.2019 17:16 17,3 C 13,9 C 17,8 C 67 % 1016,3 hPa 0,0 l/m 10,4 km/h (2 Bft) S-SW 209 0 min 0,000 mm 0,0 UV-I 67 W/m 11,1 C 15,5 C 16,1 km/h (3 Bft) 100,00 %
28.09.2019 17:18 17,3 C 13,9 C 17,8 C 67 % 1016,3 hPa 0,0 l/m 12,3 km/h (3 Bft) SW 230 0 min 0,000 mm 0,0 UV-I 66 W/m 11,1 C 14,8 C 19,3 km/h (3 Bft) 100,00 %
28.09.2019 17:20 17,2 C 13,9 C 17,8 C 67 % 1016,3 hPa 0,0 l/m 12,1 km/h (2 Bft) SW 230 0 min 0,000 mm 0,0 UV-I 77 W/m 11,0 C 14,8 C 17,7 km/h (3 Bft) 100,00 %
28.09.2019 17:22 17,2 C 13,9 C 17,8 C 67 % 1016,3 hPa 0,0 l/m 9,3 km/h (2 Bft) S-SW 213 0 min 0,000 mm 0,0 UV-I 86 W/m 11,0 C 15,8 C 16,1 km/h (3 Bft) 100,00 %
28.09.2019 17:24 17,2 C 13,9 C 17,8 C 67 % 1016,3 hPa 0,0 l/m 7,9 km/h (2 Bft) SW 224 0 min 0,000 mm 0,0 UV-I 91 W/m 11,0 C 16,5 C 14,5 km/h (3 Bft) 100,00 %
28.09.2019 17:26 17,2 C 13,9 C 17,8 C 68 % 1016,2 hPa 0,0 l/m 8,5 km/h (2 Bft) S-SW 213 0 min 0,000 mm 0,0 UV-I 81 W/m 11,2 C 16,2 C 14,5 km/h (3 Bft) 100,00 %
28.09.2019 17:28 17,2 C 13,9 C 17,8 C 67 % 1016,3 hPa 0,0 l/m 12,8 km/h (3 Bft) S-SW 207 0 min 0,000 mm 0,0 UV-I 72 W/m 11,0 C 14,5 C 20,9 km/h (4 Bft) 98,00 %
28.09.2019 17:30 17,2 C 13,9 C 17,2 C 67 % 1016,2 hPa 0,0 l/m 10,2 km/h (2 Bft) SW 215 0 min 0,000 mm 0,0 UV-I 63 W/m 11,0 C 15,5 C 14,5 km/h (3 Bft) 97,73 %
28.09.2019 17:32 17,1 C 13,9 C 17,2 C 68 % 1016,2 hPa 0,0 l/m 9,6 km/h (2 Bft) S-SW 209 0 min 0,000 mm 0,0 UV-I 62 W/m 11,1 C 15,6 C 14,5 km/h (3 Bft) 98,11 %
28.09.2019 17:34 17,1 C 13,9 C 17,2 C 67 % 1016,2 hPa 0,0 l/m 11,2 km/h (2 Bft) SW 225 0 min 0,000 mm 0,0 UV-I 60 W/m 10,9 C 15,0 C 19,3 km/h (3 Bft) 98,00 %
28.09.2019 17:36 17,0 C 13,9 C 17,2 C 68 % 1016,2 hPa 0,0 l/m 10,3 km/h (2 Bft) S-SW 212 0 min 0,000 mm 0,0 UV-I 62 W/m 11,0 C 15,2 C 17,7 km/h (3 Bft) 97,37 %
28.09.2019 17:38 17,0 C 13,9 C 17,2 C 68 % 1016,2 hPa 0,0 l/m 11,6 km/h (2 Bft) SW 230 0 min 0,000 mm 0,0 UV-I 58 W/m 11,0 C 14,7 C 16,1 km/h (3 Bft) 97,92 %
28.09.2019 17:40 16,9 C 13,9 C 17,2 C 68 % 1016,1 hPa 0,0 l/m 10,2 km/h (2 Bft) W-SW 238 0 min 0,000 mm 0,0 UV-I 61 W/m 11,0 C 15,1 C 19,3 km/h (3 Bft) 98,00 %
28.09.2019 17:42 16,9 C 13,9 C 16,7 C 68 % 1016,2 hPa 0,0 l/m 13,9 km/h (3 Bft) W-SW 250 0 min 0,000 mm 0,0 UV-I 54 W/m 11,0 C 13,8 C 20,9 km/h (4 Bft) 93,62 %
28.09.2019 17:44 16,9 C 13,9 C 16,7 C 69 % 1016,1 hPa 0,0 l/m 13,2 km/h (3 Bft) SW 219 0 min 0,000 mm 0,0 UV-I 60 W/m 11,2 C 14,1 C 22,5 km/h (4 Bft) 95,74 %
28.09.2019 17:46 16,9 C 13,9 C 16,7 C 68 % 1016,2 hPa 0,0 l/m 12,3 km/h (3 Bft) W-SW 240 0 min 0,000 mm 0,0 UV-I 64 W/m 11,0 C 14,4 C 20,9 km/h (4 Bft) 93,62 %
28.09.2019 17:48 16,9 C 13,9 C 16,7 C 68 % 1016,2 hPa 0,0 l/m 11,7 km/h (2 Bft) SW 224 0 min 0,000 mm 0,0 UV-I 60 W/m 11,0 C 14,6 C 20,9 km/h (4 Bft) 91,49 %
28.09.2019 17:50 16,8 C 13,9 C 16,7 C 68 % 1016,2 hPa 0,0 l/m 8,4 km/h (2 Bft) S-SW 213 0 min 0,000 mm 0,0 UV-I 53 W/m 10,9 C 15,8 C 14,5 km/h (3 Bft) 96,00 %
28.09.2019 17:52 16,8 C 13,9 C 16,7 C 68 % 1016,2 hPa 0,0 l/m 14,6 km/h (3 Bft) SW 225 0 min 0,000 mm 0,0 UV-I 53 W/m 10,9 C 13,5 C 20,9 km/h (4 Bft) 97,56 %
28.09.2019 17:54 16,8 C 13,9 C 16,7 C 69 % 1016,2 hPa 0,0 l/m 11,2 km/h (2 Bft) S-SW 213 0 min 0,000 mm 0,0 UV-I 57 W/m 11,1 C 14,6 C 24,1 km/h (4 Bft) 94,00 %
28.09.2019 17:56 16,7 C 13,9 C 16,7 C 68 % 1016,2 hPa 0,0 l/m 9,8 km/h (2 Bft) S-SW 211 0 min 0,000 mm 0,0 UV-I 59 W/m 10,8 C 15,1 C 16,1 km/h (3 Bft) 97,87 %
28.09.2019 17:58 16,7 C 13,9 C 16,7 C 69 % 1016,2 hPa 0,0 l/m 9,6 km/h (2 Bft) S-SW 208 0 min 0,000 mm 0,0 UV-I 55 W/m 11,0 C 15,2 C 16,1 km/h (3 Bft) 95,74 %
28.09.2019 18:00 16,7 C 13,9 C 16,7 C 69 % 1016,2 hPa 0,0 l/m 12,2 km/h (2 Bft) S-SW 213 0 min 0,000 mm 0,0 UV-I 58 W/m 11,0 C 14,2 C 16,1 km/h (3 Bft) 94,00 %
28.09.2019 18:02 16,7 C 13,9 C 16,7 C 69 % 1016,2 hPa 0,0 l/m 8,1 km/h (2 Bft) SW 215 0 min 0,102 mm 0,0 UV-I 59 W/m 11,0 C 15,8 C 12,9 km/h (3 Bft) 93,62 %
28.09.2019 18:04 16,7 C 13,9 C 16,7 C 69 % 1016,2 hPa 0,0 l/m 10,3 km/h (2 Bft) SW 226 0 min 0,000 mm 0,0 UV-I 62 W/m 11,0 C 14,9 C 19,3 km/h (3 Bft) 100,00 %
28.09.2019 18:06 16,6 C 13,9 C 16,7 C 69 % 1016,2 hPa 0,0 l/m 9,4 km/h (2 Bft) W-SW 250 0 min 0,000 mm 0,0 UV-I 56 W/m 10,9 C 15,1 C 14,5 km/h (3 Bft) 96,00 %
28.09.2019 18:08 16,6 C 13,9 C 16,7 C 69 % 1016,2 hPa 0,0 l/m 8,3 km/h (2 Bft) S-SW 210 0 min 0,000 mm 0,0 UV-I 54 W/m 10,9 C 15,6 C 16,1 km/h (3 Bft) 89,36 %
28.09.2019 18:10 16,6 C 13,9 C 16,1 C 70 % 1016,2 hPa 0,0 l/m 7,4 km/h (2 Bft) SW 220 0 min 0,000 mm 0,0 UV-I 52 W/m 11,1 C 16,1 C 11,3 km/h (2 Bft) 96,00 %
28.09.2019 18:12 16,5 C 13,9 C 16,1 C 70 % 1016,2 hPa 0,0 l/m 8,5 km/h (2 Bft) SW 223 2 min 0,000 mm 0,0 UV-I 54 W/m 11,0 C 15,4 C 16,1 km/h (3 Bft) 97,87 %
28.09.2019 18:14 16,4 C 13,9 C 16,1 C 70 % 1016,2 hPa 0,0 l/m 8,0 km/h (2 Bft) SW 217 2 min 0,000 mm 0,0 UV-I 54 W/m 10,9 C 15,6 C 14,5 km/h (3 Bft) 97,87 %
28.09.2019 18:16 16,4 C 13,9 C 16,1 C 70 % 1016,2 hPa 0,0 l/m 10,7 km/h (2 Bft) SW 225 2 min 0,000 mm 0,0 UV-I 53 W/m 10,9 C 14,4 C 19,3 km/h (3 Bft) 97,87 %
28.09.2019 18:18 16,4 C 13,9 C 16,1 C 70 % 1016,2 hPa 0,0 l/m 8,8 km/h (2 Bft) SW 217 2 min 0,000 mm 0,0 UV-I 51 W/m 10,9 C 15,2 C 17,7 km/h (3 Bft) 97,87 %
28.09.2019 18:20 16,3 C 13,9 C 15,6 C 70 % 1016,2 hPa 0,0 l/m 8,9 km/h (2 Bft) S-SW 213 2 min 0,000 mm 0,0 UV-I 44 W/m 10,8 C 15,0 C 14,5 km/h (3 Bft) 97,44 %
28.09.2019 18:22 16,3 C 13,9 C 15,6 C 70 % 1016,2 hPa 0,0 l/m 9,8 km/h (2 Bft) SW 215 2 min 0,000 mm 0,0 UV-I 38 W/m 10,8 C 14,6 C 14,5 km/h (3 Bft) 96,36 %
28.09.2019 18:24 16,3 C 13,9 C 15,6 C 70 % 1016,1 hPa 0,0 l/m 8,8 km/h (2 Bft) S-SW 209 2 min 0,000 mm 0,0 UV-I 34 W/m 10,8 C 15,1 C 14,5 km/h (3 Bft) 94,00 %
28.09.2019 18:26 16,2 C 13,9 C 15,6 C 71 % 1016,2 hPa 0,0 l/m 8,7 km/h (2 Bft) S 185 2 min 0,000 mm 0,0 UV-I 31 W/m 10,9 C 15,0 C 16,1 km/h (3 Bft) 97,14 %
28.09.2019 18:29 16,2 C 13,9 C 15,6 C 71 % 1016,1 hPa 0,0 l/m 7,8 km/h (2 Bft) S-SW 208 0 min 0,000 mm 0,0 UV-I 25 W/m 10,9 C 15,5 C 16,1 km/h (3 Bft) 95,89 %
28.09.2019 18:30 16,2 C 13,9 C 15,6 C 71 % 1016,1 hPa 0,0 l/m 7,7 km/h (2 Bft) SW 218 0 min 0,000 mm 0,0 UV-I 23 W/m 10,9 C 15,5 C 12,9 km/h (3 Bft) 95,83 %
28.09.2019 18:32 16,1 C 13,9 C 15,6 C 71 % 1016,1 hPa 0,0 l/m 8,5 km/h (2 Bft) S-SW 196 2 min 0,000 mm 0,0 UV-I 21 W/m 10,8 C 15,0 C 14,5 km/h (3 Bft) 96,00 %
28.09.2019 18:34 16,0 C 13,9 C 15,6 C 71 % 1016,2 hPa 0,0 l/m 8,5 km/h (2 Bft) SW 219 2 min 0,000 mm 0,0 UV-I 18 W/m 10,7 C 14,9 C 14,5 km/h (3 Bft) 94,00 %
28.09.2019 18:36 15,9 C 13,9 C 15,0 C 72 % 1016,2 hPa 0,0 l/m 8,0 km/h (2 Bft) S-SW 192 2 min 0,000 mm 0,0 UV-I 18 W/m 10,9 C 15,0 C 11,3 km/h (2 Bft) 93,62 %
28.09.2019 18:38 15,9 C 13,9 C 15,0 C 72 % 1016,2 hPa 0,0 l/m 7,3 km/h (2 Bft) SW 223 2 min 0,000 mm 0,0 UV-I 15 W/m 10,9 C 15,4 C 11,3 km/h (2 Bft) 93,62 %
28.09.2019 18:40 15,8 C 13,9 C 15,0 C 73 % 1016,1 hPa 0,0 l/m 6,4 km/h (2 Bft) SW 225 0 min 0,000 mm 0,0 UV-I 14 W/m 11,0 C 15,8 C 9,7 km/h (2 Bft) 95,74 %
28.09.2019 18:42 15,7 C 13,9 C 15,0 C 73 % 1016,1 hPa 0,0 l/m 6,1 km/h (2 Bft) S-SW 211 0 min 0,000 mm 0,0 UV-I 12 W/m 10,9 C 15,7 C 11,3 km/h (2 Bft) 95,74 %
28.09.2019 18:44 15,7 C 13,9 C 15,0 C 73 % 1016,1 hPa 0,0 l/m 6,2 km/h (2 Bft) W-SW 242 0 min 0,000 mm 0,0 UV-I 11 W/m 10,9 C 15,7 C 12,9 km/h (3 Bft) 95,74 %
28.09.2019 18:46 15,6 C 13,9 C 14,4 C 73 % 1016,1 hPa 0,0 l/m 7,1 km/h (2 Bft) SW 222 0 min 0,000 mm 0,0 UV-I 10 W/m 10,8 C 15,2 C 11,3 km/h (2 Bft) 93,62 %
28.09.2019 18:48 15,5 C 13,9 C 14,4 C 74 % 1016,1 hPa 0,0 l/m 8,5 km/h (2 Bft) SW 221 0 min 0,000 mm 0,0 UV-I 8 W/m 10,9 C 14,4 C 12,9 km/h (3 Bft) 97,37 %
28.09.2019 18:50 15,4 C 13,9 C 14,4 C 74 % 1016,2 hPa 0,0 l/m 9,3 km/h (2 Bft) SW 217 0 min 0,000 mm 0,0 UV-I 7 W/m 10,8 C 13,9 C 14,5 km/h (3 Bft) 97,87 %
28.09.2019 18:52 15,4 C 13,9 C 14,4 C 74 % 1016,2 hPa 0,0 l/m 6,7 km/h (2 Bft) S-SW 200 0 min 0,000 mm 0,0 UV-I 7 W/m 10,8 C 15,2 C 9,7 km/h (2 Bft) 94,00 %
28.09.2019 18:54 15,4 C 13,9 C 14,4 C 74 % 1016,2 hPa 0,0 l/m 7,8 km/h (2 Bft) W-SW 239 0 min 0,000 mm 0,0 UV-I 6 W/m 10,8 C 14,6 C 11,3 km/h (2 Bft) 95,74 %
28.09.2019 18:56 15,3 C 13,9 C 14,4 C 74 % 1016,3 hPa 0,0 l/m 5,7 km/h (1 Bft) S-SW 205 0 min 0,000 mm 0,0 UV-I 5 W/m 10,7 C 15,3 C 9,7 km/h (2 Bft) 93,75 %
28.09.2019 18:58 15,2 C 13,9 C 13,9 C 75 % 1016,2 hPa 0,0 l/m 6,7 km/h (2 Bft) S-SW 212 0 min 0,000 mm 0,0 UV-I 5 W/m 10,8 C 15,0 C 12,9 km/h (3 Bft) 95,74 %
28.09.2019 19:00 15,2 C 13,9 C 13,9 C 75 % 1016,2 hPa 0,0 l/m 6,3 km/h (2 Bft) S-SW 201 0 min 0,051 mm 0,0 UV-I 1 W/m 10,8 C 15,2 C 9,7 km/h (2 Bft) 95,74 %
28.09.2019 19:02 15,1 C 13,9 C 13,9 C 75 % 1016,2 hPa 0,0 l/m 7,3 km/h (2 Bft) SW 222 0 min 0,000 mm 0,0 UV-I 0 W/m 10,7 C 14,6 C 11,3 km/h (2 Bft) 95,74 %
28.09.2019 19:04 15,1 C 13,9 C 13,9 C 75 % 1016,3 hPa 0,0 l/m 8,0 km/h (2 Bft) S-SW 208 0 min 0,000 mm 0,0 UV-I 0 W/m 10,7 C 14,2 C 11,3 km/h (2 Bft) 91,49 %
28.09.2019 19:06 15,0 C 13,9 C 13,9 C 75 % 1016,3 hPa 0,0 l/m 5,6 km/h (1 Bft) S-SW 212 0 min 0,000 mm 0,0 UV-I 0 W/m 10,6 C 15,0 C 8,0 km/h (2 Bft) 98,00 %
28.09.2019 19:08 14,9 C 13,9 C 13,9 C 75 % 1016,3 hPa 0,0 l/m 6,6 km/h (2 Bft) S-SW 203 0 min 0,000 mm 0,0 UV-I 0 W/m 10,5 C 14,8 C 9,7 km/h (2 Bft) 97,87 %
28.09.2019 19:10 14,9 C 13,9 C 13,9 C 75 % 1016,3 hPa 0,0 l/m 6,8 km/h (2 Bft) SW 216 0 min 0,000 mm 0,0 UV-I 0 W/m 10,5 C 14,7 C 11,3 km/h (2 Bft) 97,87 %
28.09.2019 19:12 14,9 C 13,9 C 13,9 C 76 % 1016,4 hPa 0,0 l/m 6,7 km/h (2 Bft) S-SW 200 0 min 0,000 mm 0,0 UV-I 0 W/m 10,7 C 14,7 C 11,3 km/h (2 Bft) 95,74 %
28.09.2019 19:14 14,8 C 13,9 C 13,9 C 75 % 1016,4 hPa 0,0 l/m 8,4 km/h (2 Bft) SW 229 0 min 0,000 mm 0,0 UV-I 0 W/m 10,4 C 13,7 C 11,3 km/h (2 Bft) 95,74 %
28.09.2019 19:16 14,8 C 13,9 C 13,9 C 75 % 1016,4 hPa 0,0 l/m 7,0 km/h (2 Bft) SW 224 0 min 0,000 mm 0,0 UV-I 0 W/m 10,4 C 14,5 C 11,3 km/h (2 Bft) 97,87 %
28.09.2019 19:18 14,8 C 13,9 C 13,3 C 76 % 1016,4 hPa 0,0 l/m 7,0 km/h (2 Bft) SW 232 0 min 0,000 mm 0,0 UV-I 0 W/m 10,6 C 14,5 C 9,7 km/h (2 Bft) 97,14 %
28.09.2019 19:20 14,8 C 13,9 C 13,9 C 75 % 1016,4 hPa 0,0 l/m 7,9 km/h (2 Bft) SW 214 0 min 0,000 mm 0,0 UV-I 0 W/m 10,4 C 13,9 C 12,9 km/h (3 Bft) 98,21 %
28.09.2019 19:22 14,8 C 13,9 C 13,9 C 75 % 1016,4 hPa 0,0 l/m 8,7 km/h (2 Bft) S-SW 209 0 min 0,000 mm 0,0 UV-I 0 W/m 10,4 C 13,5 C 11,3 km/h (2 Bft) 97,56 %
28.09.2019 19:24 14,8 C 13,9 C 13,9 C 75 % 1016,4 hPa 0,0 l/m 8,3 km/h (2 Bft) SW 232 0 min 0,000 mm 0,0 UV-I 0 W/m 10,4 C 13,7 C 11,3 km/h (2 Bft) 97,87 %
28.09.2019 19:26 14,8 C 13,9 C 13,9 C 75 % 1016,4 hPa 0,0 l/m 8,9 km/h (2 Bft) W-SW 244 0 min 0,000 mm 0,0 UV-I 0 W/m 10,4 C 13,4 C 14,5 km/h (3 Bft) 100,00 %
28.09.2019 19:28 14,8 C 13,9 C 13,9 C 75 % 1016,4 hPa 0,0 l/m 8,3 km/h (2 Bft) SW 226 0 min 0,000 mm 0,0 UV-I 0 W/m 10,4 C 13,7 C 11,3 km/h (2 Bft) 97,87 %
28.09.2019 19:30 14,8 C 13,9 C 13,9 C 75 % 1016,4 hPa 0,0 l/m 8,3 km/h (2 Bft) S-SW 211 0 min 0,000 mm 0,0 UV-I 0 W/m 10,4 C 13,7 C 12,9 km/h (3 Bft) 100,00 %
28.09.2019 19:32 14,8 C 13,9 C 13,9 C 75 % 1016,4 hPa 0,0 l/m 8,9 km/h (2 Bft) S-SW 212 0 min 0,000 mm 0,0 UV-I 0 W/m 10,4 C 13,4 C 14,5 km/h (3 Bft) 97,92 %
28.09.2019 19:34 14,9 C 13,9 C 14,4 C 75 % 1016,4 hPa 0,0 l/m 7,6 km/h (2 Bft) S-SW 200 0 min 0,000 mm 0,0 UV-I 0 W/m 10,5 C 14,2 C 11,3 km/h (2 Bft) 100,00 %
28.09.2019 19:36 14,9 C 13,9 C 14,4 C 75 % 1016,4 hPa 0,0 l/m 9,2 km/h (2 Bft) SW 223 0 min 0,000 mm 0,0 UV-I 0 W/m 10,5 C 13,4 C 12,9 km/h (3 Bft) 100,00 %
28.09.2019 19:38 14,9 C 13,9 C 14,4 C 75 % 1016,4 hPa 0,0 l/m 8,0 km/h (2 Bft) SW 225 0 min 0,000 mm 0,0 UV-I 0 W/m 10,5 C 14,0 C 11,3 km/h (2 Bft) 100,00 %
28.09.2019 19:40 14,9 C 13,9 C 14,4 C 75 % 1016,4 hPa 0,0 l/m 8,4 km/h (2 Bft) S-SW 209 0 min 0,000 mm 0,0 UV-I 0 W/m 10,5 C 13,8 C 11,3 km/h (2 Bft) 100,00 %
28.09.2019 19:42 14,9 C 13,9 C 14,4 C 75 % 1016,4 hPa 0,0 l/m 8,5 km/h (2 Bft) SW 227 0 min 0,000 mm 0,0 UV-I 0 W/m 10,5 C 13,7 C 11,3 km/h (2 Bft) 100,00 %
28.09.2019 19:44 14,9 C 13,9 C 14,4 C 75 % 1016,4 hPa 0,0 l/m 8,5 km/h (2 Bft) SW 222 0 min 0,000 mm 0,0 UV-I 0 W/m 10,5 C 13,7 C 11,3 km/h (2 Bft) 95,74 %
28.09.2019 19:46 14,9 C 13,9 C 14,4 C 75 % 1016,5 hPa 0,0 l/m 9,7 km/h (2 Bft) S-SW 207 0 min 0,000 mm 0,0 UV-I 0 W/m 10,5 C 13,1 C 14,5 km/h (3 Bft) 100,00 %
28.09.2019 19:48 14,9 C 13,9 C 14,4 C 75 % 1016,4 hPa 0,0 l/m 8,5 km/h (2 Bft) S-SW 209 0 min 0,000 mm 0,0 UV-I 0 W/m 10,5 C 13,7 C 11,3 km/h (2 Bft) 97,37 %
28.09.2019 19:50 14,9 C 13,9 C 14,4 C 75 % 1016,4 hPa 0,0 l/m 7,0 km/h (2 Bft) S-SW 202 0 min 0,000 mm 0,0 UV-I 0 W/m 10,5 C 14,6 C 11,3 km/h (2 Bft) 97,87 %
28.09.2019 19:52 14,8 C 13,9 C 14,4 C 75 % 1016,5 hPa 0,0 l/m 7,4 km/h (2 Bft) S-SW 211 0 min 0,000 mm 0,0 UV-I 0 W/m 10,4 C 14,2 C 11,3 km/h (2 Bft) 100,00 %
28.09.2019 19:54 14,8 C 13,9 C 14,4 C 75 % 1016,5 hPa 0,0 l/m 7,3 km/h (2 Bft) SW 223 0 min 0,000 mm 0,0 UV-I 0 W/m 10,4 C 14,3 C 12,9 km/h (3 Bft) 98,00 %
28.09.2019 19:56 14,8 C 13,9 C 14,4 C 75 % 1016,5 hPa 0,0 l/m 6,3 km/h (2 Bft) SW 217 0 min 0,000 mm 0,0 UV-I 0 W/m 10,4 C 14,8 C 9,7 km/h (2 Bft) 97,87 %
28.09.2019 19:58 14,8 C 13,9 C 14,4 C 75 % 1016,6 hPa 0,0 l/m 6,4 km/h (2 Bft) S-SW 211 0 min 0,000 mm 0,0 UV-I 0 W/m 10,4 C 14,8 C 9,7 km/h (2 Bft) 97,87 %
28.09.2019 20:00 14,8 C 13,9 C 14,4 C 75 % 1016,5 hPa 0,0 l/m 6,8 km/h (2 Bft) S-SW 202 0 min 0,000 mm 0,0 UV-I 0 W/m 10,4 C 14,6 C 11,3 km/h (2 Bft) 97,87 %
28.09.2019 20:02 14,8 C 13,9 C 14,4 C 76 % 1016,6 hPa 0,0 l/m 6,5 km/h (2 Bft) SW 228 0 min 0,025 mm 0,0 UV-I 0 W/m 10,6 C 14,8 C 9,7 km/h (2 Bft) 97,37 %
28.09.2019 20:04 14,8 C 13,9 C 14,4 C 76 % 1016,6 hPa 0,0 l/m 6,4 km/h (2 Bft) SW 225 0 min 0,000 mm 0,0 UV-I 0 W/m 10,6 C 14,8 C 9,7 km/h (2 Bft) 97,87 %
28.09.2019 20:06 14,8 C 13,9 C 14,4 C 76 % 1016,6 hPa 0,0 l/m 5,4 km/h (1 Bft) S-SW 213 0 min 0,000 mm 0,0 UV-I 0 W/m 10,6 C 14,8 C 9,7 km/h (2 Bft) 97,87 %
28.09.2019 20:08 14,7 C 13,9 C 13,9 C 76 % 1016,7 hPa 0,0 l/m 5,1 km/h (1 Bft) S-SW 209 0 min 0,000 mm 0,0 UV-I 0 W/m 10,5 C 14,7 C 6,4 km/h (2 Bft) 97,92 %
28.09.2019 20:10 14,7 C 13,9 C 13,9 C 76 % 1016,7 hPa 0,0 l/m 5,7 km/h (1 Bft) SW 215 0 min 0,000 mm 0,0 UV-I 0 W/m 10,5 C 14,7 C 8,0 km/h (2 Bft) 100,00 %
28.09.2019 20:12 14,7 C 13,9 C 13,9 C 76 % 1016,7 hPa 0,0 l/m 6,1 km/h (2 Bft) SW 225 0 min 0,000 mm 0,0 UV-I 0 W/m 10,5 C 14,7 C 9,7 km/h (2 Bft) 97,87 %
28.09.2019 20:14 14,7 C 13,9 C 13,9 C 76 % 1016,7 hPa 0,0 l/m 5,2 km/h (1 Bft) SW 230 0 min 0,000 mm 0,0 UV-I 0 W/m 10,5 C 14,7 C 8,0 km/h (2 Bft) 100,00 %
28.09.2019 20:16 14,6 C 13,9 C 13,9 C 76 % 1016,7 hPa 0,0 l/m 6,5 km/h (2 Bft) SW 215 0 min 0,000 mm 0,0 UV-I 0 W/m 10,4 C 14,6 C 9,7 km/h (2 Bft) 100,00 %
28.09.2019 20:18 14,6 C 13,9 C 13,9 C 76 % 1016,7 hPa 0,0 l/m 6,5 km/h (2 Bft) SW 219 0 min 0,000 mm 0,0 UV-I 0 W/m 10,4 C 14,6 C 9,7 km/h (2 Bft) 91,43 %
28.09.2019 20:20 14,6 C 13,9 C 13,9 C 77 % 1016,7 hPa 0,0 l/m 6,0 km/h (2 Bft) SW 214 0 min 0,000 mm 0,0 UV-I 0 W/m 10,6 C 14,6 C 9,7 km/h (2 Bft) 96,49 %
28.09.2019 20:22 14,5 C 13,9 C 13,9 C 77 % 1016,7 hPa 0,0 l/m 6,7 km/h (2 Bft) SW 214 0 min 0,000 mm 0,0 UV-I 0 W/m 10,5 C 14,3 C 11,3 km/h (2 Bft) 95,74 %
28.09.2019 20:24 14,4 C 13,9 C 13,9 C 77 % 1016,7 hPa 0,0 l/m 6,5 km/h (2 Bft) SW 221 0 min 0,000 mm 0,0 UV-I 0 W/m 10,4 C 14,4 C 9,7 km/h (2 Bft) 94,74 %
28.09.2019 20:26 14,4 C 13,9 C 13,9 C 77 % 1016,7 hPa 0,0 l/m 5,9 km/h (2 Bft) SW 217 0 min 0,000 mm 0,0 UV-I 0 W/m 10,4 C 14,4 C 8,0 km/h (2 Bft) 98,00 %
28.09.2019 20:28 14,4 C 13,9 C 13,9 C 77 % 1016,7 hPa 0,0 l/m 6,7 km/h (2 Bft) SW 219 0 min 0,000 mm 0,0 UV-I 0 W/m 10,4 C 14,2 C 9,7 km/h (2 Bft) 97,87 %
28.09.2019 20:30 14,4 C 13,9 C 13,9 C 77 % 1016,7 hPa 0,0 l/m 6,5 km/h (2 Bft) SW 229 0 min 0,000 mm 0,0 UV-I 0 W/m 10,4 C 14,4 C 9,7 km/h (2 Bft) 97,87 %
28.09.2019 20:32 14,4 C 13,9 C 13,9 C 77 % 1016,7 hPa 0,0 l/m 5,1 km/h (1 Bft) SW 234 0 min 0,000 mm 0,0 UV-I 0 W/m 10,4 C 14,4 C 8,0 km/h (2 Bft) 95,74 %
28.09.2019 20:34 14,3 C 13,9 C 13,9 C 77 % 1016,7 hPa 0,0 l/m 4,2 km/h (1 Bft) SW 218 0 min 0,000 mm 0,0 UV-I 0 W/m 10,3 C 14,3 C 6,4 km/h (2 Bft) 95,74 %
28.09.2019 20:36 14,3 C 13,9 C 13,3 C 77 % 1016,7 hPa 0,0 l/m 4,8 km/h (1 Bft) SW 216 0 min 0,000 mm 0,0 UV-I 0 W/m 10,3 C 14,3 C 6,4 km/h (2 Bft) 91,49 %
28.09.2019 20:38 14,3 C 13,9 C 13,3 C 77 % 1016,7 hPa 0,0 l/m 5,3 km/h (1 Bft) W-SW 237 0 min 0,000 mm 0,0 UV-I 0 W/m 10,3 C 14,3 C 6,4 km/h (2 Bft) 91,49 %
28.09.2019 20:40 14,3 C 13,9 C 13,3 C 78 % 1016,7 hPa 0,0 l/m 4,7 km/h (1 Bft) SW 219 0 min 0,000 mm 0,0 UV-I 0 W/m 10,5 C 14,3 C 6,4 km/h (2 Bft) 93,62 %
28.09.2019 20:42 14,3 C 13,9 C 13,3 C 78 % 1016,7 hPa 0,0 l/m 5,1 km/h (1 Bft) SW 215 0 min 0,000 mm 0,0 UV-I 0 W/m 10,5 C 14,3 C 6,4 km/h (2 Bft) 95,74 %
28.09.2019 20:44 14,2 C 13,9 C 13,3 C 78 % 1016,7 hPa 0,0 l/m 4,8 km/h (1 Bft) SW 223 0 min 0,000 mm 0,0 UV-I 0 W/m 10,4 C 14,2 C 6,4 km/h (2 Bft) 96,00 %
28.09.2019 20:46 14,2 C 13,9 C 13,3 C 78 % 1016,6 hPa 0,0 l/m 4,7 km/h (1 Bft) SW 225 0 min 0,000 mm 0,0 UV-I 0 W/m 10,4 C 14,2 C 6,4 km/h (2 Bft) 97,87 %
28.09.2019 20:48 14,2 C 13,9 C 13,3 C 78 % 1016,7 hPa 0,0 l/m 4,9 km/h (1 Bft) SW 232 0 min 0,000 mm 0,0 UV-I 0 W/m 10,4 C 14,2 C 6,4 km/h (2 Bft) 97,62 %
28.09.2019 20:50 14,1 C 13,9 C 13,3 C 78 % 1016,7 hPa 0,0 l/m 5,2 km/h (1 Bft) SW 236 0 min 0,000 mm 0,0 UV-I 0 W/m 10,3 C 14,1 C 8,0 km/h (2 Bft) 95,74 %
28.09.2019 20:52 14,2 C 13,9 C 13,3 C 78 % 1016,7 hPa 0,0 l/m 5,3 km/h (1 Bft) SW 236 0 min 0,000 mm 0,0 UV-I 0 W/m 10,4 C 14,2 C 8,0 km/h (2 Bft) 97,87 %
28.09.2019 20:54 14,1 C 13,9 C 13,3 C 79 % 1016,7 hPa 0,0 l/m 5,3 km/h (1 Bft) SW 227 0 min 0,000 mm 0,0 UV-I 0 W/m 10,5 C 14,1 C 8,0 km/h (2 Bft) 95,74 %
28.09.2019 20:56 14,1 C 13,9 C 13,3 C 79 % 1016,8 hPa 0,0 l/m 5,8 km/h (2 Bft) S-SW 211 0 min 0,000 mm 0,0 UV-I 0 W/m 10,5 C 14,1 C 9,7 km/h (2 Bft) 97,87 %
28.09.2019 20:58 14,1 C 13,9 C 13,3 C 79 % 1016,8 hPa 0,0 l/m 6,0 km/h (2 Bft) S-SW 212 0 min 0,000 mm 0,0 UV-I 0 W/m 10,5 C 14,1 C 9,7 km/h (2 Bft) 96,00 %
28.09.2019 21:00 14,1 C 13,9 C 13,3 C 79 % 1016,8 hPa 0,0 l/m 6,3 km/h (2 Bft) SW 222 0 min 0,000 mm 0,0 UV-I 0 W/m 10,5 C 14,1 C 9,7 km/h (2 Bft) 97,87 %
28.09.2019 21:02 14,1 C 13,9 C 13,3 C 79 % 1016,8 hPa 0,0 l/m 5,2 km/h (1 Bft) SW 233 0 min 0,025 mm 0,0 UV-I 0 W/m 10,5 C 14,1 C 9,7 km/h (2 Bft) 93,62 %
28.09.2019 21:04 14,2 C 13,9 C 13,3 C 78 % 1016,8 hPa 0,0 l/m 6,6 km/h (2 Bft) SW 227 0 min 0,000 mm 0,0 UV-I 0 W/m 10,4 C 14,1 C 11,3 km/h (2 Bft) 96,15 %
28.09.2019 21:06 14,2 C 13,9 C 13,3 C 78 % 1016,8 hPa 0,0 l/m 6,8 km/h (2 Bft) W-SW 237 0 min 0,000 mm 0,0 UV-I 0 W/m 10,4 C 14,0 C 11,3 km/h (2 Bft) 98,39 %
28.09.2019 21:08 14,2 C 13,9 C 13,3 C 78 % 1016,8 hPa 0,0 l/m 6,8 km/h (2 Bft) SW 227 0 min 0,000 mm 0,0 UV-I 0 W/m 10,4 C 14,0 C 11,3 km/h (2 Bft) 95,74 %
28.09.2019 21:10 14,1 C 13,9 C 13,3 C 79 % 1016,8 hPa 0,0 l/m 7,7 km/h (2 Bft) W-SW 246 0 min 0,000 mm 0,0 UV-I 0 W/m 10,5 C 13,3 C 12,9 km/h (3 Bft) 97,87 %
28.09.2019 21:12 14,1 C 13,9 C 13,3 C 79 % 1016,8 hPa 0,0 l/m 6,7 km/h (2 Bft) W-SW 249 0 min 0,000 mm 0,0 UV-I 0 W/m 10,5 C 13,9 C 11,3 km/h (2 Bft) 100,00 %
28.09.2019 21:14 14,1 C 13,9 C 13,3 C 79 % 1016,7 hPa 0,0 l/m 6,7 km/h (2 Bft) SW 236 0 min 0,000 mm 0,0 UV-I 0 W/m 10,5 C 13,9 C 11,3 km/h (2 Bft) 100,00 %
28.09.2019 21:16 14,1 C 13,9 C 13,3 C 79 % 1016,8 hPa 0,0 l/m 6,3 km/h (2 Bft) SW 216 0 min 0,000 mm 0,0 UV-I 0 W/m 10,5 C 14,1 C 9,7 km/h (2 Bft) 97,87 %
28.09.2019 21:18 14,1 C 13,9 C 13,3 C 79 % 1016,8 hPa 0,0 l/m 6,6 km/h (2 Bft) S-SW 201 0 min 0,000 mm 0,0 UV-I 0 W/m 10,5 C 14,0 C 9,7 km/h (2 Bft) 100,00 %
28.09.2019 21:20 14,0 C 13,9 C 13,3 C 79 % 1016,8 hPa 0,0 l/m 8,0 km/h (2 Bft) S-SW 213 0 min 0,000 mm 0,0 UV-I 0 W/m 10,4 C 13,1 C 11,3 km/h (2 Bft) 95,74 %
28.09.2019 21:22 14,1 C 13,9 C 13,3 C 79 % 1016,8 hPa 0,0 l/m 8,3 km/h (2 Bft) SW 217 0 min 0,000 mm 0,0 UV-I 0 W/m 10,5 C 13,0 C 11,3 km/h (2 Bft) 100,00 %
28.09.2019 21:24 14,1 C 13,9 C 13,3 C 78 % 1016,8 hPa 0,0 l/m 8,3 km/h (2 Bft) SW 233 0 min 0,000 mm 0,0 UV-I 0 W/m 10,3 C 13,0 C 11,3 km/h (2 Bft) 100,00 %
28.09.2019 21:26 14,1 C 13,9 C 13,3 C 78 % 1016,8 hPa 0,0 l/m 6,2 km/h (2 Bft) SW 231 0 min 0,000 mm 0,0 UV-I 0 W/m 10,3 C 14,1 C 9,7 km/h (2 Bft) 100,00 %
28.09.2019 21:28 14,1 C 13,9 C 13,3 C 78 % 1016,8 hPa 0,0 l/m 5,5 km/h (1 Bft) SW 236 0 min 0,000 mm 0,0 UV-I 0 W/m 10,3 C 14,1 C 8,0 km/h (2 Bft) 100,00 %
28.09.2019 21:30 14,1 C 13,9 C 13,3 C 78 % 1016,8 hPa 0,0 l/m 6,1 km/h (2 Bft) W-SW 238 0 min 0,000 mm 0,0 UV-I 0 W/m 10,3 C 14,1 C 8,0 km/h (2 Bft) 98,00 %
28.09.2019 21:32 13,9 C 13,9 C 13,3 C 79 % 1016,8 hPa 0,0 l/m 6,4 km/h (2 Bft) SW 231 0 min 0,000 mm 0,0 UV-I 0 W/m 10,3 C 13,9 C 8,0 km/h (2 Bft) 97,87 %
28.09.2019 21:34 13,9 C 13,9 C 12,8 C 79 % 1016,8 hPa 0,0 l/m 5,4 km/h (1 Bft) W-SW 238 0 min 0,000 mm 0,0 UV-I 0 W/m 10,3 C 13,9 C 8,0 km/h (2 Bft) 95,74 %
28.09.2019 21:36 13,8 C 13,9 C 12,8 C 79 % 1016,8 hPa 0,0 l/m 5,5 km/h (1 Bft) SW 235 0 min 0,000 mm 0,0 UV-I 0 W/m 10,2 C 13,8 C 8,0 km/h (2 Bft) 97,87 %
28.09.2019 21:38 13,7 C 13,9 C 12,8 C 80 % 1016,8 hPa 0,0 l/m 5,5 km/h (1 Bft) SW 229 0 min 0,000 mm 0,0 UV-I 0 W/m 10,3 C 13,7 C 8,0 km/h (2 Bft) 93,62 %
28.09.2019 21:40 13,7 C 13,9 C 12,8 C 80 % 1016,8 hPa 0,0 l/m 6,9 km/h (2 Bft) SW 236 0 min 0,000 mm 0,0 UV-I 0 W/m 10,3 C 13,4 C 9,7 km/h (2 Bft) 97,56 %
28.09.2019 21:42 13,7 C 13,9 C 12,8 C 80 % 1016,8 hPa 0,0 l/m 7,3 km/h (2 Bft) W-SW 239 0 min 0,000 mm 0,0 UV-I 0 W/m 10,3 C 13,2 C 12,9 km/h (3 Bft) 98,00 %
28.09.2019 21:44 13,7 C 13,9 C 12,8 C 80 % 1016,8 hPa 0,0 l/m 6,2 km/h (2 Bft) W-SW 246 0 min 0,000 mm 0,0 UV-I 0 W/m 10,3 C 13,7 C 9,7 km/h (2 Bft) 95,74 %
28.09.2019 21:46 13,7 C 13,9 C 12,8 C 80 % 1016,9 hPa 0,0 l/m 6,2 km/h (2 Bft) SW 231 0 min 0,000 mm 0,0 UV-I 0 W/m 10,3 C 13,7 C 8,0 km/h (2 Bft) 91,49 %
28.09.2019 21:48 13,7 C 13,9 C 12,8 C 80 % 1016,9 hPa 0,0 l/m 6,1 km/h (2 Bft) SW 217 0 min 0,000 mm 0,0 UV-I 0 W/m 10,3 C 13,7 C 9,7 km/h (2 Bft) 91,49 %
28.09.2019 21:50 13,7 C 13,9 C 12,8 C 80 % 1016,9 hPa 0,0 l/m 6,2 km/h (2 Bft) SW 230 0 min 0,000 mm 0,0 UV-I 0 W/m 10,3 C 13,7 C 9,7 km/h (2 Bft) 93,62 %
28.09.2019 21:52 13,7 C 13,9 C 12,8 C 80 % 1016,9 hPa 0,0 l/m 6,3 km/h (2 Bft) SW 228 0 min 0,000 mm 0,0 UV-I 0 W/m 10,3 C 13,7 C 8,0 km/h (2 Bft) 92,11 %
28.09.2019 21:54 13,7 C 13,9 C 12,8 C 80 % 1016,9 hPa 0,0 l/m 6,7 km/h (2 Bft) SW 221 0 min 0,000 mm 0,0 UV-I 0 W/m 10,3 C 13,5 C 9,7 km/h (2 Bft) 95,74 %
28.09.2019 21:56 13,7 C 13,9 C 12,8 C 80 % 1016,9 hPa 0,0 l/m 5,9 km/h (2 Bft) SW 236 0 min 0,000 mm 0,0 UV-I 0 W/m 10,3 C 13,7 C 8,0 km/h (2 Bft) 95,74 %
28.09.2019 21:58 13,7 C 13,9 C 12,2 C 80 % 1016,9 hPa 0,0 l/m 6,7 km/h (2 Bft) SW 226 0 min 0,000 mm 0,0 UV-I 0 W/m 10,3 C 13,5 C 9,7 km/h (2 Bft) 95,74 %
28.09.2019 22:00 13,6 C 13,9 C 12,2 C 80 % 1017,0 hPa 0,0 l/m 7,9 km/h (2 Bft) S-SW 207 0 min 0,000 mm 0,0 UV-I 0 W/m 10,2 C 12,7 C 11,3 km/h (2 Bft) 93,62 %
28.09.2019 22:02 13,6 C 13,9 C 12,2 C 80 % 1016,9 hPa 0,0 l/m 6,8 km/h (2 Bft) SW 221 0 min 0,026 mm 0,0 UV-I 0 W/m 10,2 C 13,4 C 9,7 km/h (2 Bft) 93,75 %
28.09.2019 22:04 13,5 C 13,9 C 12,2 C 80 % 1017,0 hPa 0,0 l/m 4,6 km/h (1 Bft) W-SW 238 0 min 0,000 mm 0,0 UV-I 0 W/m 10,1 C 13,5 C 6,4 km/h (2 Bft) 95,74 %
28.09.2019 22:06 13,4 C 13,9 C 12,2 C 80 % 1017,0 hPa 0,0 l/m 5,8 km/h (2 Bft) W-SW 244 0 min 0,000 mm 0,0 UV-I 0 W/m 10,0 C 13,4 C 8,0 km/h (2 Bft) 93,62 %
28.09.2019 22:08 13,4 C 13,9 C 11,7 C 81 % 1017,0 hPa 0,0 l/m 6,7 km/h (2 Bft) W-SW 248 0 min 0,000 mm 0,0 UV-I 0 W/m 10,2 C 13,2 C 8,0 km/h (2 Bft) 97,87 %
28.09.2019 22:10 13,4 C 13,9 C 12,2 C 81 % 1017,0 hPa 0,0 l/m 6,6 km/h (2 Bft) SW 227 0 min 0,000 mm 0,0 UV-I 0 W/m 10,2 C 13,3 C 8,0 km/h (2 Bft) 97,87 %
28.09.2019 22:12 13,3 C 13,9 C 12,2 C 81 % 1017,0 hPa 0,0 l/m 6,2 km/h (2 Bft) SW 230 0 min 0,000 mm 0,0 UV-I 0 W/m 10,1 C 13,3 C 8,0 km/h (2 Bft) 97,87 %
28.09.2019 22:14 13,2 C 13,9 C 12,2 C 81 % 1017,0 hPa 0,0 l/m 6,1 km/h (2 Bft) SW 225 0 min 0,000 mm 0,0 UV-I 0 W/m 10,0 C 13,2 C 9,7 km/h (2 Bft) 95,74 %
28.09.2019 22:16 13,2 C 13,9 C 12,2 C 81 % 1017,0 hPa 0,0 l/m 6,4 km/h (2 Bft) W-SW 240 0 min 0,000 mm 0,0 UV-I 0 W/m 10,0 C 13,2 C 9,7 km/h (2 Bft) 97,87 %
28.09.2019 22:18 13,3 C 13,9 C 11,7 C 81 % 1017,0 hPa 0,0 l/m 5,8 km/h (2 Bft) W-SW 248 0 min 0,000 mm 0,0 UV-I 0 W/m 10,1 C 13,3 C 8,0 km/h (2 Bft) 97,87 %
28.09.2019 22:20 13,3 C 13,9 C 12,2 C 81 % 1017,0 hPa 0,0 l/m 5,3 km/h (1 Bft) SW 232 0 min 0,000 mm 0,0 UV-I 0 W/m 10,1 C 13,3 C 6,4 km/h (2 Bft) 96,00 %
28.09.2019 22:22 13,2 C 13,9 C 11,7 C 81 % 1017,0 hPa 0,0 l/m 6,0 km/h (2 Bft) SW 216 0 min 0,000 mm 0,0 UV-I 0 W/m 10,0 C 13,2 C 8,0 km/h (2 Bft) 93,62 %
28.09.2019 22:24 13,2 C 13,9 C 12,2 C 81 % 1017,1 hPa 0,0 l/m 7,1 km/h (2 Bft) SW 228 0 min 0,000 mm 0,0 UV-I 0 W/m 10,0 C 12,8 C 8,0 km/h (2 Bft) 98,00 %
28.09.2019 22:26 13,2 C 13,9 C 12,2 C 81 % 1017,1 hPa 0,0 l/m 6,0 km/h (2 Bft) SW 216 0 min 0,000 mm 0,0 UV-I 0 W/m 10,0 C 13,2 C 9,7 km/h (2 Bft) 97,37 %
28.09.2019 22:28 13,2 C 13,9 C 12,2 C 81 % 1017,0 hPa 0,0 l/m 4,7 km/h (1 Bft) SW 225 0 min 0,000 mm 0,0 UV-I 0 W/m 10,0 C 13,2 C 6,4 km/h (2 Bft) 95,74 %
28.09.2019 22:30 13,2 C 13,9 C 12,2 C 81 % 1017,0 hPa 0,0 l/m 5,8 km/h (2 Bft) SW 215 0 min 0,000 mm 0,0 UV-I 0 W/m 10,0 C 13,2 C 9,7 km/h (2 Bft) 97,87 %
28.09.2019 22:32 13,2 C 13,9 C 12,2 C 82 % 1017,0 hPa 0,0 l/m 6,6 km/h (2 Bft) S-SW 213 0 min 0,000 mm 0,0 UV-I 0 W/m 10,2 C 13,1 C 9,7 km/h (2 Bft) 97,87 %
28.09.2019 22:34 13,2 C 13,9 C 12,2 C 82 % 1017,1 hPa 0,0 l/m 7,0 km/h (2 Bft) SW 214 0 min 0,000 mm 0,0 UV-I 0 W/m 10,2 C 12,8 C 9,7 km/h (2 Bft) 97,87 %
28.09.2019 22:36 13,1 C 13,9 C 12,2 C 82 % 1017,1 hPa 0,0 l/m 5,4 km/h (1 Bft) W-SW 240 0 min 0,000 mm 0,0 UV-I 0 W/m 10,1 C 13,1 C 8,0 km/h (2 Bft) 98,00 %
28.09.2019 22:38 13,1 C 13,9 C 12,2 C 82 % 1017,1 hPa 0,0 l/m 5,7 km/h (1 Bft) SW 230 0 min 0,000 mm 0,0 UV-I 0 W/m 10,1 C 13,1 C 8,0 km/h (2 Bft) 95,74 %
28.09.2019 22:40 13,2 C 13,9 C 12,2 C 82 % 1017,1 hPa 0,0 l/m 6,2 km/h (2 Bft) SW 219 0 min 0,000 mm 0,0 UV-I 0 W/m 10,2 C 13,2 C 8,0 km/h (2 Bft) 97,87 %
28.09.2019 22:42 13,1 C 13,9 C 12,2 C 82 % 1017,1 hPa 0,0 l/m 5,3 km/h (1 Bft) S-SW 209 0 min 0,000 mm 0,0 UV-I 0 W/m 10,1 C 13,1 C 6,4 km/h (2 Bft) 97,87 %
28.09.2019 22:44 13,1 C 13,9 C 12,2 C 82 % 1017,0 hPa 0,0 l/m 4,6 km/h (1 Bft) S-SW 208 0 min 0,000 mm 0,0 UV-I 0 W/m 10,1 C 13,1 C 6,4 km/h (2 Bft) 98,00 %
28.09.2019 22:46 12,9 C 13,9 C 12,2 C 82 % 1017,0 hPa 0,0 l/m 5,2 km/h (1 Bft) SW 215 0 min 0,000 mm 0,0 UV-I 0 W/m 9,9 C 12,9 C 8,0 km/h (2 Bft) 95,74 %
28.09.2019 22:48 12,9 C 13,9 C 12,2 C 82 % 1017,0 hPa 0,0 l/m 4,9 km/h (1 Bft) SW 217 0 min 0,000 mm 0,0 UV-I 0 W/m 9,9 C 12,9 C 6,4 km/h (2 Bft) 93,75 %
28.09.2019 22:50 12,9 C 13,9 C 12,2 C 82 % 1017,0 hPa 0,0 l/m 5,0 km/h (1 Bft) S-SW 209 0 min 0,000 mm 0,0 UV-I 0 W/m 9,9 C 12,9 C 6,4 km/h (2 Bft) 95,74 %
28.09.2019 22:52 12,9 C 13,9 C 11,7 C 83 % 1017,0 hPa 0,0 l/m 4,5 km/h (1 Bft) SW 228 0 min 0,000 mm 0,0 UV-I 0 W/m 10,1 C 12,9 C 6,4 km/h (2 Bft) 95,74 %
28.09.2019 22:54 12,8 C 13,9 C 11,7 C 83 % 1017,0 hPa 0,0 l/m 4,0 km/h (1 Bft) SW 225 0 min 0,000 mm 0,0 UV-I 0 W/m 10,0 C 12,8 C 6,4 km/h (2 Bft) 97,87 %
28.09.2019 22:56 12,8 C 13,9 C 11,7 C 83 % 1017,0 hPa 0,0 l/m 5,4 km/h (1 Bft) S-SW 211 0 min 0,000 mm 0,0 UV-I 0 W/m 10,0 C 12,8 C 6,4 km/h (2 Bft) 97,37 %
28.09.2019 22:58 12,8 C 13,9 C 11,7 C 83 % 1017,0 hPa 0,0 l/m 5,2 km/h (1 Bft) S-SW 212 0 min 0,000 mm 0,0 UV-I 0 W/m 10,0 C 12,8 C 6,4 km/h (2 Bft) 95,74 %
28.09.2019 23:00 12,9 C 13,9 C 11,7 C 83 % 1017,0 hPa 0,0 l/m 7,3 km/h (2 Bft) SW 219 0 min 0,000 mm 0,0 UV-I 0 W/m 10,1 C 12,3 C 9,7 km/h (2 Bft) 98,00 %
28.09.2019 23:02 12,9 C 13,9 C 11,7 C 82 % 1017,1 hPa 0,0 l/m 6,0 km/h (2 Bft) S-SW 212 0 min 0,025 mm 0,0 UV-I 0 W/m 9,9 C 12,9 C 9,7 km/h (2 Bft) 98,00 %
28.09.2019 23:04 13,0 C 13,9 C 11,7 C 82 % 1017,0 hPa 0,0 l/m 5,3 km/h (1 Bft) S-SW 211 0 min 0,000 mm 0,0 UV-I 0 W/m 10,0 C 13,0 C 8,0 km/h (2 Bft) 95,74 %
28.09.2019 23:06 13,1 C 13,9 C 11,7 C 82 % 1017,0 hPa 0,0 l/m 5,3 km/h (1 Bft) S-SW 213 0 min 0,000 mm 0,0 UV-I 0 W/m 10,1 C 13,1 C 8,0 km/h (2 Bft) 96,00 %
28.09.2019 23:08 13,2 C 13,9 C 11,7 C 82 % 1017,0 hPa 0,0 l/m 6,2 km/h (2 Bft) SW 219 0 min 0,000 mm 0,0 UV-I 0 W/m 10,2 C 13,2 C 9,7 km/h (2 Bft) 95,74 %
28.09.2019 23:10 13,2 C 13,9 C 11,7 C 82 % 1017,0 hPa 0,0 l/m 7,1 km/h (2 Bft) S-SW 210 0 min 0,000 mm 0,0 UV-I 0 W/m 10,2 C 12,8 C 9,7 km/h (2 Bft) 94,29 %
28.09.2019 23:12 13,2 C 13,9 C 12,2 C 82 % 1017,0 hPa 0,0 l/m 7,1 km/h (2 Bft) S-SW 205 0 min 0,000 mm 0,0 UV-I 0 W/m 10,2 C 12,8 C 9,7 km/h (2 Bft) 96,23 %
28.09.2019 23:14 13,2 C 13,9 C 12,2 C 82 % 1017,0 hPa 0,0 l/m 5,5 km/h (1 Bft) SW 223 0 min 0,000 mm 0,0 UV-I 0 W/m 10,2 C 13,2 C 8,0 km/h (2 Bft) 93,62 %
28.09.2019 23:16 13,2 C 13,9 C 12,2 C 82 % 1017,1 hPa 0,0 l/m 5,1 km/h (1 Bft) SW 215 0 min 0,000 mm 0,0 UV-I 0 W/m 10,2 C 13,2 C 6,4 km/h (2 Bft) 98,00 %
28.09.2019 23:19 13,2 C 13,9 C 11,7 C 82 % 1017,1 hPa 0,0 l/m 5,2 km/h (1 Bft) SW 215 0 min 0,000 mm 0,0 UV-I 0 W/m 10,2 C 13,2 C 8,0 km/h (2 Bft) 97,30 %
28.09.2019 23:20 13,2 C 13,9 C 11,7 C 82 % 1017,1 hPa 0,0 l/m 5,0 km/h (1 Bft) SW 216 0 min 0,000 mm 0,0 UV-I 0 W/m 10,2 C 13,2 C 6,4 km/h (2 Bft) 100,00 %
28.09.2019 23:22 13,2 C 13,9 C 11,7 C 82 % 1017,1 hPa 0,0 l/m 4,5 km/h (1 Bft) SW 215 0 min 0,000 mm 0,0 UV-I 0 W/m 10,2 C 13,2 C 6,4 km/h (2 Bft) 97,87 %
28.09.2019 23:24 13,2 C 13,9 C 11,7 C 82 % 1017,0 hPa 0,0 l/m 4,5 km/h (1 Bft) S-SW 213 0 min 0,000 mm 0,0 UV-I 0 W/m 10,2 C 13,2 C 6,4 km/h (2 Bft) 97,87 %
28.09.2019 23:26 13,2 C 13,9 C 11,7 C 82 % 1017,0 hPa 0,0 l/m 5,4 km/h (1 Bft) SW 234 0 min 0,000 mm 0,0 UV-I 0 W/m 10,2 C 13,2 C 8,0 km/h (2 Bft) 97,87 %
28.09.2019 23:29 13,3 C 13,9 C 11,7 C 81 % 1017,0 hPa 0,0 l/m 3,6 km/h (1 Bft) W-SW 238 0 min 0,000 mm 0,0 UV-I 0 W/m 10,1 C 13,3 C 6,4 km/h (2 Bft) 97,26 %
28.09.2019 23:30 13,3 C 13,9 C 11,7 C 81 % 1017,0 hPa 0,0 l/m 2,1 km/h (1 Bft) W-SW 238 0 min 0,000 mm 0,0 UV-I 0 W/m 10,1 C 13,3 C 3,2 km/h (1 Bft) 100,00 %
28.09.2019 23:32 13,2 C 13,9 C 11,7 C 82 % 1017,0 hPa 0,0 l/m 3,8 km/h (1 Bft) W-SW 238 0 min 0,000 mm 0,0 UV-I 0 W/m 10,2 C 13,2 C 4,8 km/h (1 Bft) 100,00 %
28.09.2019 23:34 13,0 C 13,9 C 11,1 C 82 % 1017,0 hPa 0,0 l/m 4,0 km/h (1 Bft) SW 214 0 min 0,000 mm 0,0 UV-I 0 W/m 10,0 C 13,0 C 6,4 km/h (2 Bft) 100,00 %
28.09.2019 23:36 12,8 C 13,9 C 11,1 C 83 % 1017,0 hPa 0,0 l/m 6,0 km/h (2 Bft) S 191 0 min 0,000 mm 0,0 UV-I 0 W/m 10,0 C 12,8 C 8,0 km/h (2 Bft) 97,87 %
28.09.2019 23:38 12,7 C 13,9 C 11,1 C 83 % 1017,0 hPa 0,0 l/m 5,3 km/h (1 Bft) SW 221 0 min 0,000 mm 0,0 UV-I 0 W/m 9,9 C 12,7 C 8,0 km/h (2 Bft) 100,00 %
28.09.2019 23:40 12,6 C 13,9 C 11,1 C 83 % 1017,0 hPa 0,0 l/m 5,5 km/h (1 Bft) S-SW 201 0 min 0,000 mm 0,0 UV-I 0 W/m 9,8 C 12,6 C 8,0 km/h (2 Bft) 100,00 %
28.09.2019 23:42 12,7 C 13,9 C 11,7 C 84 % 1017,0 hPa 0,0 l/m 5,5 km/h (1 Bft) S-SW 196 0 min 0,000 mm 0,0 UV-I 0 W/m 10,1 C 12,7 C 8,0 km/h (2 Bft) 100,00 %
28.09.2019 23:44 12,8 C 13,9 C 11,7 C 83 % 1017,0 hPa 0,0 l/m 6,1 km/h (2 Bft) S-SW 205 0 min 0,000 mm 0,0 UV-I 0 W/m 10,0 C 12,8 C 9,7 km/h (2 Bft) 100,00 %
28.09.2019 23:46 12,9 C 13,9 C 11,7 C 83 % 1016,9 hPa 0,0 l/m 5,7 km/h (1 Bft) SW 214 0 min 0,000 mm 0,0 UV-I 0 W/m 10,1 C 12,9 C 8,0 km/h (2 Bft) 100,00 %
28.09.2019 23:48 12,9 C 13,9 C 11,7 C 82 % 1016,9 hPa 0,0 l/m 7,4 km/h (2 Bft) SW 228 0 min 0,000 mm 0,0 UV-I 0 W/m 9,9 C 12,3 C 12,9 km/h (3 Bft) 100,00 %
28.09.2019 23:50 13,1 C 13,9 C 11,7 C 82 % 1016,9 hPa 0,0 l/m 7,9 km/h (2 Bft) SW 223 0 min 0,000 mm 0,0 UV-I 0 W/m 10,1 C 12,2 C 9,7 km/h (2 Bft) 98,00 %
28.09.2019 23:52 13,2 C 13,9 C 11,7 C 81 % 1016,9 hPa 0,0 l/m 7,5 km/h (2 Bft) S-SW 200 0 min 0,000 mm 0,0 UV-I 0 W/m 10,0 C 12,5 C 11,3 km/h (2 Bft) 100,00 %
28.09.2019 23:54 13,2 C 13,9 C 11,7 C 81 % 1016,9 hPa 0,0 l/m 6,2 km/h (2 Bft) S-SW 205 0 min 0,000 mm 0,0 UV-I 0 W/m 10,0 C 13,2 C 8,0 km/h (2 Bft) 100,00 %
28.09.2019 23:56 13,1 C 13,9 C 11,7 C 81 % 1016,8 hPa 0,0 l/m 5,7 km/h (1 Bft) S 188 0 min 0,000 mm 0,0 UV-I 0 W/m 9,9 C 13,1 C 9,7 km/h (2 Bft) 97,87 %
28.09.2019 23:59 13,2 C 13,9 C 11,7 C 80 % 1016,8 hPa 0,0 l/m 6,0 km/h (2 Bft) SW 217 0 min 0,000 mm 0,0 UV-I 0 W/m 9,8 C 13,2 C 8,0 km/h (2 Bft) 100,00 %
_ Min-Zeit 23:40 00:01 23:34 14:26 00:02 - 03:30 - - - - - - 23:40 11:46 03:30 06:00
Minimum _ 12,6 C 13,9 C 11,1 C 62 % 1014,0 hPa - 0,0 km/h (0 Bft) - - - - - - 9,8 C 11,4 C 0,0 km/h (0 Bft) 83,33 %
_ Max-Zeit 14:22 00:01 12:26 08:04 22:24 08:39 14:14 - - 12:08 13:00 12:24 12:24 10:36 16:50 14:14 00:01
Maximum _ 18,4 C 13,9 C 26,7 C 95 % 1017,1 hPa 0,2 l/m 26,5 km/h
SW (4 Bft)
- - 2 min 0,305 mm 3,2 UV-I 786 W/m 14,3 C 17,5 C 45,1 km/h
SW (6 Bft)
100,00 %
Durchschnitt _ 15,2 C 13,9 C 15,6 C 83 % 1015,8 hPa #0,4 l/m 7,8 km/h (2 Bft) SW - #1:30 h #1,600 mm 1,3 UV-I 147 W/m 12,2 C 14,2 C 12,2 km/h (2 Bft) 97,30 %